[[{"header":{"parameterUnit":"m.s-1","parameterCategory":1,"la1":30.6,"la2":29.2853,"lo1":-89.7004,"lo2":-87.6739,"dy":0.0162,"dx":0.0183,"nx":112,"ny":82,"refTime":"2023-04-06T06:00:00:Z","depth":0,"parameterNumber":2,"parameterNumberName":"U-component_of_WINDS"},"data":[0.0,0.0,0.0,0.0,0.0,0.0,0.0,0.0,0.0,0.0,0.0,0.0,0.0,0.0,0.0,0.0,0.0,0.0,0.0,0.0,0.0,0.0,0.0,0.0,0.0,0.0,0.0,0.0,0.0,0.0,0.0,0.0,0.0,0.0,0.0,0.0,0.0,0.0,0.0,0.0,0.0,0.0,0.0,0.0,0.0,0.0,0.0,0.0,0.0,0.0,0.0,0.0,0.0,0.0,0.0,0.0,0.0,0.0,0.0,0.0,0.0,0.0,0.0,0.0,0.0,0.0,0.0,0.0,0.0,0.0,0.0,0.0,0.0,0.0,0.0,0.0,0.0,0.0,0.0,0.0,0.0,0.0,0.0,0.0,0.0,0.0,0.0,0.0,0.0,0.0,-3.0154,-3.1487,-3.2658,-3.3117,-3.2607,-3.211,-3.1104,-2.9392,0.0,0.0,0.0,0.0,0.0,0.0,0.0,0.0,0.0,0.0,0.0,0.0,0.0,0.0,0.0,0.0,0.0,0.0,0.0,0.0,0.0,0.0,0.0,0.0,0.0,0.0,0.0,0.0,0.0,0.0,0.0,0.0,0.0,0.0,0.0,0.0,0.0,0.0,0.0,0.0,0.0,0.0,0.0,0.0,0.0,0.0,0.0,0.0,0.0,0.0,0.0,0.0,0.0,0.0,0.0,0.0,0.0,0.0,0.0,0.0,0.0,0.0,0.0,0.0,0.0,0.0,0.0,0.0,0.0,0.0,0.0,0.0,0.0,0.0,0.0,0.0,0.0,0.0,0.0,0.0,0.0,0.0,0.0,0.0,0.0,0.0,0.0,0.0,0.0,0.0,0.0,0.0,0.0,0.0,0.0,0.0,0.0,0.0,0.0,0.0,0.0,0.0,0.0,0.0,-2.958,-3.1589,-3.1928,-3.2071,-3.198,-3.2042,-3.1254,-2.9392,0.0,0.0,0.0,0.0,0.0,0.0,0.0,0.0,0.0,0.0,0.0,0.0,0.0,0.0,0.0,0.0,0.0,0.0,0.0,0.0,0.0,0.0,0.0,0.0,0.0,0.0,0.0,0.0,0.0,0.0,0.0,0.0,0.0,0.0,0.0,0.0,0.0,0.0,0.0,0.0,0.0,0.0,0.0,0.0,0.0,0.0,0.0,0.0,0.0,0.0,0.0,0.0,0.0,0.0,0.0,0.0,0.0,0.0,0.0,0.0,0.0,0.0,0.0,0.0,0.0,0.0,0.0,0.0,0.0,0.0,0.0,0.0,0.0,0.0,0.0,0.0,0.0,0.0,0.0,0.0,0.0,0.0,0.0,0.0,0.0,0.0,0.0,0.0,0.0,0.0,0.0,0.0,0.0,0.0,0.0,0.0,0.0,0.0,0.0,0.0,0.0,0.0,0.0,-2.9873,-3.0735,-3.168,-3.1759,-3.1836,-3.199,-3.1777,-3.1119,-2.9954,-2.9729,0.0,0.0,0.0,0.0,0.0,0.0,0.0,0.0,0.0,0.0,0.0,0.0,0.0,0.0,0.0,0.0,0.0,0.0,0.0,0.0,0.0,0.0,0.0,0.0,0.0,0.0,0.0,0.0,0.0,0.0,0.0,0.0,0.0,0.0,0.0,0.0,0.0,0.0,0.0,0.0,0.0,0.0,0.0,0.0,0.0,0.0,0.0,0.0,0.0,0.0,0.0,0.0,0.0,0.0,0.0,0.0,0.0,0.0,0.0,0.0,0.0,0.0,0.0,0.0,0.0,0.0,0.0,0.0,0.0,0.0,0.0,0.0,0.0,0.0,0.0,0.0,0.0,0.0,0.0,0.0,0.0,0.0,0.0,0.0,0.0,0.0,0.0,0.0,0.0,0.0,0.0,0.0,0.0,0.0,0.0,0.0,0.0,0.0,0.0,0.0,0.0,0.0,-3.066,-3.164,-3.164,-3.164,-3.1703,-3.1932,-3.1611,-3.1109,-3.0513,-3.0277,0.0,0.0,0.0,0.0,0.0,0.0,0.0,0.0,0.0,0.0,0.0,0.0,0.0,0.0,0.0,0.0,0.0,0.0,0.0,0.0,0.0,0.0,0.0,0.0,0.0,0.0,0.0,0.0,0.0,0.0,0.0,0.0,0.0,0.0,0.0,0.0,0.0,0.0,0.0,0.0,0.0,0.0,0.0,0.0,0.0,0.0,0.0,0.0,0.0,0.0,0.0,0.0,0.0,0.0,0.0,0.0,0.0,0.0,0.0,0.0,0.0,0.0,0.0,0.0,0.0,0.0,0.0,0.0,0.0,0.0,0.0,0.0,0.0,0.0,0.0,0.0,0.0,0.0,0.0,0.0,0.0,0.0,0.0,0.0,0.0,0.0,0.0,0.0,0.0,0.0,0.0,0.0,0.0,0.0,0.0,0.0,0.0,0.0,0.0,0.0,0.0,0.0,-3.0367,-3.1264,-3.1052,-3.1189,-3.1338,-3.1338,-3.1461,-3.1343,-3.073,-3.1034,0.0,0.0,0.0,0.0,0.0,0.0,0.0,0.0,0.0,0.0,0.0,0.0,0.0,0.0,0.0,0.0,0.0,0.0,0.0,0.0,0.0,0.0,0.0,0.0,0.0,0.0,0.0,0.0,0.0,0.0,0.0,0.0,0.0,0.0,0.0,0.0,0.0,0.0,0.0,0.0,0.0,0.0,0.0,0.0,0.0,0.0,0.0,0.0,0.0,0.0,0.0,0.0,0.0,0.0,0.0,0.0,0.0,0.0,0.0,0.0,0.0,0.0,0.0,0.0,0.0,0.0,0.0,0.0,0.0,0.0,0.0,0.0,0.0,0.0,0.0,0.0,0.0,0.0,0.0,0.0,0.0,0.0,0.0,0.0,0.0,0.0,0.0,0.0,0.0,0.0,0.0,0.0,0.0,0.0,0.0,0.0,0.0,0.0,0.0,0.0,0.0,0.0,-3.0646,-3.1447,-3.1373,-3.1447,-3.1508,-3.1656,-3.1743,-3.1723,-3.1481,0.0,0.0,0.0,0.0,0.0,0.0,0.0,0.0,0.0,0.0,0.0,0.0,0.0,0.0,0.0,0.0,0.0,0.0,0.0,0.0,0.0,0.0,0.0,0.0,0.0,0.0,0.0,0.0,0.0,0.0,0.0,0.0,0.0,0.0,0.0,0.0,0.0,0.0,0.0,0.0,0.0,0.0,0.0,0.0,0.0,0.0,0.0,0.0,0.0,0.0,0.0,0.0,0.0,0.0,0.0,0.0,0.0,0.0,0.0,0.0,0.0,0.0,0.0,0.0,0.0,0.0,0.0,0.0,0.0,0.0,0.0,0.0,0.0,0.0,0.0,0.0,0.0,0.0,0.0,0.0,0.0,0.0,0.0,0.0,0.0,0.0,0.0,0.0,0.0,0.0,0.0,0.0,0.0,0.0,0.0,0.0,0.0,0.0,0.0,0.0,0.0,0.0,-2.9597,-3.0791,-3.1683,-3.1609,-3.1683,-3.1743,-3.189,-3.189,-3.1963,-3.1963,0.0,0.0,0.0,0.0,0.0,0.0,0.0,0.0,0.0,0.0,0.0,0.0,0.0,0.0,0.0,0.0,0.0,0.0,0.0,0.0,0.0,0.0,0.0,0.0,0.0,0.0,0.0,0.0,0.0,0.0,0.0,0.0,0.0,0.0,0.0,0.0,0.0,0.0,0.0,0.0,0.0,0.0,0.0,0.0,0.0,0.0,0.0,0.0,0.0,0.0,0.0,0.0,0.0,0.0,0.0,0.0,0.0,0.0,0.0,0.0,0.0,0.0,0.0,0.0,0.0,0.0,0.0,0.0,0.0,0.0,0.0,0.0,0.0,0.0,0.0,0.0,0.0,0.0,0.0,0.0,0.0,0.0,0.0,0.0,0.0,0.0,0.0,0.0,0.0,0.0,0.0,0.0,0.0,0.0,0.0,0.0,0.0,0.0,0.0,0.0,0.0,0.0,-2.9544,-3.0935,-3.1817,-3.1609,-3.1743,-3.189,-3.189,-3.189,-3.1963,0.0,0.0,0.0,0.0,0.0,0.0,0.0,0.0,0.0,0.0,0.0,0.0,0.0,0.0,0.0,0.0,0.0,0.0,0.0,0.0,0.0,0.0,0.0,0.0,0.0,0.0,0.0,0.0,0.0,0.0,0.0,0.0,0.0,0.0,0.0,0.0,0.0,0.0,0.0,0.0,0.0,0.0,0.0,0.0,0.0,0.0,0.0,0.0,0.0,0.0,0.0,0.0,0.0,0.0,0.0,0.0,0.0,0.0,0.0,0.0,0.0,0.0,0.0,0.0,0.0,0.0,0.0,0.0,0.0,0.0,0.0,0.0,0.0,0.0,0.0,0.0,0.0,0.0,0.0,0.0,0.0,0.0,0.0,0.0,0.0,0.0,0.0,0.0,0.0,0.0,0.0,0.0,0.0,0.0,0.0,0.0,0.0,0.0,0.0,0.0,0.0,0.0,0.0,-2.9824,-3.1151,-3.2109,-3.2036,-3.2109,-3.2109,-3.2109,-3.23,-3.2503,-3.2574,0.0,0.0,0.0,0.0,0.0,0.0,0.0,0.0,0.0,0.0,0.0,0.0,0.0,0.0,0.0,0.0,0.0,0.0,0.0,0.0,0.0,0.0,0.0,0.0,0.0,0.0,0.0,0.0,0.0,0.0,0.0,0.0,0.0,0.0,0.0,0.0,0.0,0.0,0.0,0.0,0.0,0.0,0.0,0.0,0.0,0.0,0.0,0.0,0.0,0.0,0.0,0.0,0.0,0.0,0.0,0.0,0.0,0.0,0.0,0.0,0.0,0.0,0.0,0.0,0.0,0.0,0.0,0.0,0.0,0.0,0.0,0.0,0.0,0.0,0.0,0.0,0.0,0.0,0.0,0.0,0.0,0.0,0.0,0.0,0.0,0.0,0.0,0.0,0.0,0.0,0.0,0.0,0.0,0.0,0.0,0.0,0.0,0.0,0.0,0.0,0.0,0.0,-3.0201,-3.1357,-3.2182,-3.2182,-3.2182,-3.2182,-3.2182,-3.2503,-3.2704,-3.2704,0.0,0.0,0.0,0.0,0.0,0.0,0.0,0.0,0.0,0.0,0.0,0.0,0.0,0.0,0.0,0.0,0.0,0.0,0.0,0.0,0.0,0.0,0.0,0.0,0.0,0.0,0.0,0.0,0.0,0.0,0.0,0.0,0.0,0.0,0.0,0.0,0.0,0.0,0.0,0.0,0.0,0.0,0.0,0.0,0.0,0.0,0.0,0.0,0.0,0.0,0.0,0.0,0.0,0.0,0.0,0.0,0.0,0.0,0.0,0.0,0.0,0.0,0.0,0.0,0.0,0.0,0.0,0.0,0.0,0.0,0.0,0.0,0.0,0.0,0.0,0.0,0.0,0.0,0.0,0.0,0.0,0.0,0.0,0.0,0.0,0.0,0.0,0.0,0.0,0.0,0.0,0.0,0.0,0.0,0.0,0.0,0.0,0.0,0.0,0.0,0.0,0.0,-3.0623,-3.1573,-3.2182,-3.2182,-3.2182,-3.2241,-3.2241,-3.2574,-3.2775,-3.2775,0.0,0.0,0.0,0.0,0.0,0.0,0.0,0.0,0.0,0.0,0.0,0.0,0.0,0.0,0.0,0.0,0.0,0.0,0.0,0.0,0.0,0.0,0.0,0.0,0.0,0.0,0.0,0.0,0.0,0.0,0.0,0.0,0.0,0.0,0.0,0.0,0.0,0.0,0.0,0.0,0.0,0.0,0.0,0.0,0.0,0.0,0.0,0.0,0.0,0.0,0.0,0.0,0.0,0.0,0.0,0.0,0.0,0.0,0.0,0.0,-0.2151,0.0,0.0,0.0,0.0,0.0,0.0,0.0,0.0,0.0,0.0,0.0,0.0,0.0,0.0,0.0,0.0,0.0,0.0,0.0,0.0,0.0,0.0,0.0,0.0,0.0,0.0,0.0,0.0,0.0,0.0,0.0,0.0,0.0,0.0,0.0,0.0,0.0,0.0,0.0,0.0,0.0,-3.0677,-3.1573,-3.2182,-3.2182,-3.2182,-3.2314,-3.2561,-3.2917,-3.3269,-3.3563,-3.3908,0.0,0.0,0.0,0.0,0.0,0.0,0.0,0.0,0.0,0.0,0.0,0.0,0.0,0.0,0.0,0.0,0.0,0.0,0.0,0.0,0.0,0.0,0.0,0.0,0.0,0.0,0.0,0.0,0.0,0.0,0.0,0.0,0.0,0.0,0.0,0.0,0.0,0.0,0.0,0.0,0.0,0.0,0.0,0.0,0.0,0.0,0.0,0.0,0.0,0.0,0.0,0.0,0.0,0.0,0.0,0.0,0.0,0.0,0.0,0.0,-0.42,0.0,0.0,0.0,0.0,0.0,0.0,0.0,0.0,0.0,0.0,0.0,0.0,0.0,0.0,0.0,0.0,0.0,0.0,0.0,0.0,0.0,0.0,0.0,0.0,0.0,0.0,0.0,0.0,0.0,0.0,0.0,0.0,0.0,0.0,0.0,0.0,0.0,0.0,0.0,0.0,-3.1235,-3.1965,-3.2444,-3.2444,-3.2588,-3.2789,-3.2988,-3.3339,-3.3632,-3.377,-3.4264,0.0,0.0,0.0,0.0,0.0,0.0,0.0,0.0,0.0,0.0,0.0,0.0,0.0,0.0,0.0,0.0,0.0,0.0,0.0,0.0,0.0,0.0,0.0,0.0,0.0,0.0,0.0,0.0,0.0,0.0,0.0,0.0,0.0,0.0,0.0,0.0,0.0,0.0,0.0,0.0,0.0,0.0,0.0,0.0,0.0,0.0,0.0,0.0,0.0,0.0,0.0,0.0,0.0,-0.4907,-0.5027,-0.5625,-0.5649,-0.6627,-0.8286,-0.8586,-0.7596,-0.5791,-0.7064,0.0,0.0,0.0,0.0,0.0,0.0,0.0,0.0,0.0,0.0,0.0,0.0,0.0,0.0,0.0,0.0,0.0,0.0,0.0,0.0,0.0,0.0,0.0,0.0,-2.5633,-2.5801,0.0,0.0,0.0,0.0,0.0,0.0,0.0,0.0,0.0,0.0,0.0,0.0,-3.1823,-3.23,-3.2632,-3.2704,-3.2988,-3.3269,-3.3409,-3.3632,-3.3839,-3.3977,-3.4414,-3.4698,0.0,0.0,0.0,0.0,0.0,0.0,0.0,0.0,0.0,0.0,0.0,0.0,0.0,0.0,0.0,0.0,0.0,0.0,0.0,0.0,0.0,0.0,0.0,0.0,0.0,0.0,0.0,0.0,0.0,0.0,0.0,0.0,0.6828,0.6374,0.0,0.0,0.0,0.0,0.0,0.0,0.0,0.0,0.0,0.0,0.0,0.0,0.0,-0.1475,-0.1967,-0.2901,-0.3532,-0.3849,-0.5175,-0.6428,-0.7697,-0.8784,-1.0082,-1.1472,-1.3375,0.0,-1.0421,-0.8108,0.0,0.0,0.0,0.0,0.0,0.0,0.0,0.0,0.0,0.0,0.0,0.0,0.0,0.0,0.0,0.0,0.0,0.0,0.0,0.0,0.0,0.0,-2.0476,-2.4799,-2.6373,-2.694,0.0,-2.7476,-2.8573,-3.0266,-3.0833,0.0,0.0,0.0,0.0,0.0,0.0,0.0,-3.1877,-3.2096,-3.2372,-3.2704,-3.2775,-3.3058,-3.3701,-3.377,-3.3991,-3.4563,-3.4631,-3.475,-3.4868,-3.4868,0.0,0.0,0.0,0.0,0.0,0.0,0.0,0.0,0.0,0.0,0.0,0.0,0.0,0.0,0.0,0.0,0.0,0.0,0.0,0.0,0.0,0.0,0.0,0.0,0.0,0.0,0.0,0.0,0.0,0.645,0.5615,0.4669,0.3872,0.343,0.0,0.0,0.0,0.0,0.0,0.0,0.0,0.0,0.0,-0.1622,-0.2677,-0.348,-0.388,-0.4946,-0.5681,-0.5829,-0.6569,-0.7636,-0.9124,-0.9792,-1.1258,-1.3397,-1.4715,-1.5301,-1.4993,-1.2719,-1.1444,-1.0841,0.0,0.0,0.0,0.0,-1.0562,-1.1113,-1.211,-1.2872,0.0,-1.4176,0.0,0.0,0.0,0.0,0.0,0.0,0.0,0.0,0.0,0.0,-2.2121,-2.5185,-2.6539,-2.7336,-2.7947,-2.8652,-2.9434,0.0,-3.0872,-3.136,-3.1434,0.0,0.0,0.0,0.0,-3.2036,-3.23,-3.2646,-3.2931,-3.3269,-3.3479,-3.377,-3.4128,-3.4264,-3.4414,-3.4698,-3.4898,-3.5016,-3.5082,-3.5148,-3.5294,0.0,0.0,0.0,0.0,0.0,0.0,0.0,0.0,0.0,0.0,0.0,0.0,0.0,0.0,0.0,0.0,0.0,0.0,0.0,0.0,0.0,0.0,0.0,0.0,0.0,0.0,0.0,0.0,0.5209,0.4611,0.3609,0.3051,0.2874,0.0,0.0,0.0,0.0,0.0,0.0,-0.045,-0.2235,-0.3317,-0.3391,-0.4634,-0.5452,-0.5638,-0.6747,-0.7441,-0.7646,-0.7746,-0.8531,-1.0002,-1.058,-1.2164,-1.4481,-1.5466,-1.6606,-1.7858,-1.6149,-1.4448,-1.2906,-1.277,-1.2336,-1.1868,-1.2503,-1.3346,-1.4197,-1.4896,-1.591,-1.6997,-1.7395,-1.7781,-1.8214,-1.8626,0.0,0.0,0.0,0.0,-1.7619,-1.9712,-2.1563,-2.349,-2.5802,-2.701,-2.8039,-2.8876,-2.9756,-3.0393,0.0,-3.1022,-3.1508,-3.1669,0.0,0.0,0.0,0.0,-3.23,-3.2775,-3.3129,-3.3409,-3.377,-3.4059,-3.4346,-3.4481,-3.4631,-3.4765,-3.4831,-3.5096,-3.5213,-3.5294,-3.5439,-3.5504,-3.5554,0.0,0.0,0.0,0.0,0.0,0.0,0.0,0.0,0.0,0.0,0.0,0.0,0.0,0.0,0.0,0.0,0.0,0.0,0.0,0.0,0.0,0.0,0.0,0.0,0.0,0.0,0.0,0.0,0.0,0.4581,0.3134,0.0,0.0,0.0,0.0,-0.168,-0.1989,-0.2116,-0.2108,-0.3601,-0.4632,-0.4971,-0.6377,-0.7078,-0.7078,-0.7422,-0.7547,-0.7646,-0.8137,-0.8924,-1.01,-1.188,-1.3375,-1.4771,-1.6288,-1.7341,-1.7747,-1.6395,-1.5889,-1.585,-1.3971,-1.3064,-1.3016,-1.3667,-1.4533,-1.5434,-1.6085,-1.6996,-1.7934,-1.7934,-1.805,-1.8139,-1.8222,-1.8291,0.0,0.0,-1.824,-1.8887,-2.1479,-2.2463,-2.3576,-2.6713,-2.8347,-2.9447,-3.0088,-3.0885,-3.1596,0.0,-3.1817,-3.189,-3.189,0.0,-3.2241,-3.2345,-3.2561,-3.2775,-3.3199,-3.3269,-3.3409,-3.377,-3.3839,-3.4059,-3.4631,-3.4698,-3.4831,-3.5148,-3.5213,-3.5294,-3.5504,-3.5504,-3.5554,-3.5688,-3.5688,0.0,0.0,0.0,0.0,0.0,0.0,0.0,0.0,0.0,0.0,0.0,0.0,0.0,0.0,0.0,0.0,0.0,0.0,0.0,0.0,0.0,0.0,0.0,0.0,0.0,0.0,0.0,0.0,0.1129,0.1822,0.0,-0.0068,-0.0911,-0.1757,-0.2947,-0.3744,-0.4499,-0.526,-0.5794,-0.6147,-0.6432,-0.7091,-0.7444,-0.7444,-0.7939,-0.8137,-0.8137,-0.8531,-0.9604,-1.1463,-1.2314,-1.3819,-1.5704,-1.6787,-1.7414,-1.7581,-1.7414,-1.7412,-1.7517,-1.707,-1.6766,-1.6669,-1.7363,-1.8471,-1.9751,-2.0467,-2.164,-2.2878,-2.3033,-2.3079,-2.2821,-2.1274,-2.107,-2.1008,-1.941,-2.0299,-2.1947,-2.2852,-2.434,-2.5915,-2.7036,-2.8347,-2.9524,-2.9858,-3.0872,-3.1817,-3.2036,-3.1963,-3.1963,-3.2036,-3.23,-3.2574,-3.2561,-3.2846,-3.3199,-3.3563,-3.3632,-3.377,-3.4128,-3.4278,-3.4481,-3.4698,-3.4898,-3.5082,-3.5213,-3.5294,-3.5439,-3.5504,-3.5604,-3.5638,-3.5688,-3.5879,-3.6022,0.0,0.0,0.0,0.0,0.0,0.0,0.0,0.0,0.0,0.0,0.0,0.0,0.0,0.0,0.0,0.0,0.0,0.0,0.0,0.0,0.0,0.0,0.0,0.0,0.0,0.3675,0.2585,0.0076,-0.0496,-0.1025,-0.183,-0.2515,-0.3324,-0.4544,-0.5378,-0.6176,-0.6875,-0.7009,-0.7144,-0.7341,-0.7643,-0.7842,-0.7842,-0.8333,-0.8531,-0.8634,-0.8928,-1.01,-1.2047,-1.2716,-1.407,-1.6021,-1.6989,-1.7376,-1.7574,-1.8058,-1.8343,-1.8343,-1.8612,-1.8847,-1.8928,-1.9463,-2.0619,-2.212,-2.327,-2.4594,-2.5728,-2.5822,-2.5895,-2.56,-2.415,-2.3871,-2.3812,-2.2298,-2.3315,-2.4842,-2.4768,-2.6244,-2.7822,-2.7971,-2.9057,-3.0152,-3.0469,-3.1334,-3.2036,-3.2182,-3.2109,-3.2096,-3.23,-3.2574,-3.2775,-3.3058,-3.3269,-3.3632,-3.3977,-3.4059,-3.4196,-3.4481,-3.4683,-3.4817,-3.4898,-3.5082,-3.5213,-3.5294,-3.5439,-3.5504,-3.5554,-3.5589,-3.5703,-3.5879,-3.6148,-3.6289,-3.6163,0.0,0.0,0.0,0.0,0.0,0.0,0.0,0.0,0.0,0.0,0.0,0.0,0.0,0.0,0.0,0.0,0.0,0.0,0.0,0.0,0.0,0.0,0.0,0.2683,0.2974,0.279,0.1781,-0.3562,-0.5844,-0.2313,-0.3826,-0.5447,-0.6592,-0.6838,-0.6986,-0.6851,-0.7347,-0.7646,-0.7646,-0.8137,-0.8432,-0.8432,-0.8627,-0.8928,-0.9236,-0.9529,-1.0404,-1.1658,-1.3022,-1.4268,-1.5501,-1.6749,-1.7434,-1.7721,-1.8295,-1.8481,-1.8481,-1.8481,-1.8928,-1.9637,-1.9637,-2.0709,-2.2296,-2.4241,-2.538,-2.5895,-2.5895,-2.5895,-2.5979,-2.6362,-2.6528,-2.661,-2.7103,-2.7267,-2.7267,-2.7267,-2.7983,-2.8949,-2.9549,-3.0469,-3.1381,-3.2009,-3.2169,-3.2182,-3.2241,-3.2255,-3.2314,-3.2632,-3.2704,-3.2988,-3.3701,-3.3839,0.0,-3.4346,-3.4563,-3.4698,-3.4698,-3.4817,-3.5001,-3.5148,-3.5213,-3.5279,-3.5504,-3.5504,-3.5554,-3.5688,-3.5604,-3.5733,-3.6196,-3.6414,-3.6492,-3.6492,0.0,0.0,0.0,0.0,0.0,0.0,0.0,0.0,0.0,0.0,0.0,0.0,0.0,0.0,0.0,0.0,0.0,0.0,0.0,0.0,0.0,0.3498,0.3005,0.3062,0.3346,0.205,-0.1684,-0.5122,-0.6791,-0.5638,-0.6215,-0.6631,-0.6632,-0.6908,-0.7176,-0.7051,-0.7444,-0.7646,-0.7842,-0.8233,-0.8432,-0.8432,-0.8832,-0.9232,-0.9529,-1.0596,-1.176,-1.3022,-1.4262,-1.5602,-1.685,-1.7333,-1.7714,-1.8001,-1.8381,-1.8481,-1.8574,-1.9104,-1.9463,-1.9637,-2.0365,-2.1774,-2.3531,-2.5115,-2.5728,-2.5895,-2.5895,-2.6135,-2.6373,-2.6445,-2.6951,-2.7545,-2.7626,-2.7938,-2.8179,-2.8179,-2.8339,-2.8657,-2.8803,-2.9716,-3.062,-3.0784,-3.1556,-3.2241,-3.2503,-3.2561,-3.2561,-3.2704,-3.3129,-3.3563,-3.377,-3.4196,0.0,-3.4631,-3.475,-3.4868,-3.4868,-3.5016,-3.5148,-3.5213,-3.5359,-3.5489,-3.5653,-3.5638,-3.5703,-3.5894,-3.5973,-3.6163,-3.6414,-3.6492,-3.6492,0.0,0.0,0.0,0.0,0.0,0.0,0.0,0.0,0.0,0.0,0.0,0.0,0.0,0.0,0.0,0.0,0.0,0.0,0.0,0.0,0.0,0.0,0.2463,0.18,0.0765,-0.0294,-0.1629,-0.3357,-0.5722,-0.7196,-0.707,-0.713,-0.7147,-0.6821,-0.718,-0.7318,-0.7356,-0.7643,-0.7842,-0.8038,-0.8333,-0.8531,-0.8531,-0.913,-0.9529,-0.992,-1.1179,-1.2436,-1.389,-1.5032,-1.6271,-1.752,-1.7714,-1.8001,-1.828,-1.8566,-1.8751,0.0,0.0,0.0,0.0,0.0,-2.258,-2.3973,-2.5115,-2.5801,-2.6135,-2.6135,-2.6456,-2.6857,-2.7033,-2.7464,-2.7973,-2.8122,-2.8351,-2.851,-2.851,-2.8657,-2.8882,-2.8882,-2.9793,-3.0696,-3.0908,-3.1676,-3.2516,-3.2846,-3.3058,0.0,-3.3129,-3.3479,-3.3839,-3.4059,-3.4414,-3.4698,-3.4698,-3.4883,-3.5001,-3.5001,-3.5213,-3.5359,-3.5359,-3.5474,0.0,0.0,0.0,-3.5894,-3.5973,-3.6226,0.0,0.0,0.0,-3.6492,-3.6492,0.0,0.0,0.0,-3.7141,-3.7343,0.0,0.0,0.0,0.0,0.0,0.0,0.0,0.0,0.0,0.0,0.0,0.0,0.0,0.0,0.0,0.0,0.1,-0.0096,-0.2265,-0.5049,-0.6153,-0.4269,-0.5886,-0.7182,-0.729,-0.7276,-0.7276,-0.7237,-0.7539,-0.7635,-0.7563,0.0,0.0,0.0,0.0,-0.8825,-0.8825,-0.9327,-0.9924,-1.0413,-1.1565,-1.2915,-1.4364,-1.5514,-1.6662,-1.7721,-1.7994,-1.828,-1.8574,-1.8835,-1.9188,-1.9729,-1.9729,-2.0011,-2.0654,-2.2264,-2.3212,-2.3887,-2.468,0.0,0.0,-2.6528,-2.694,-2.736,-2.7788,-2.7962,-2.8042,-2.8431,-2.851,-2.851,-2.851,-2.8895,-2.9263,-2.9263,-3.0177,-3.1145,-3.1502,-3.2028,-3.2632,-3.3129,-3.3479,-3.3701,-3.3839,-3.3839,-3.3991,-3.4414,-3.4616,-3.4698,-3.4765,-3.503,-3.5213,-3.5213,0.0,0.0,-3.5489,-3.5653,-3.5752,-3.5752,-3.5958,-3.6037,-3.6037,-3.6367,-3.6414,-3.6274,-3.6414,-3.6492,-3.6492,-3.6662,-3.6862,-3.7015,-3.7654,-3.8013,0.0,0.0,0.0,0.0,0.0,0.0,0.0,0.0,0.0,0.0,0.0,0.0,0.0,0.0,0.0,0.2165,0.1169,0.0419,-0.0434,-0.2761,-0.4795,-0.6369,-0.6945,-0.729,-0.7502,-0.7496,-0.75,-0.756,-0.775,-0.7839,-0.7662,-0.7842,-0.8137,-0.8333,-0.8627,-0.8928,-0.9133,-0.9624,-1.0117,-1.0413,0.0,0.0,-1.4364,-1.6379,-1.7613,-1.7994,-1.8288,-1.8566,-1.8743,-1.9279,-1.9911,-2.0727,-2.0727,-2.1006,-2.1553,-2.2441,-2.3212,-2.3963,-2.4988,-2.5841,-2.6528,-2.6928,-2.736,-2.78,-2.7893,-2.8122,0.0,-2.851,-2.851,-2.851,-2.851,-2.859,-2.8657,-2.8657,-2.9328,-3.0012,-3.0075,-3.0709,-3.1629,-3.2632,-3.2846,-3.3199,-3.4128,-3.4264,-3.4346,-3.4631,-3.475,-3.4935,-3.5082,-3.5294,-3.5439,-3.5439,-3.5589,-3.5638,-3.5638,-3.5831,-3.5958,-3.6085,-3.6289,-3.6429,-3.6429,-3.6492,-3.6492,-3.6414,-3.66,-3.6662,-3.6662,-3.6952,-3.7134,-3.7134,-3.7259,-3.7458,0.0,0.0,0.0,0.0,0.0,0.0,0.0,0.0,0.0,0.0,0.0,0.547,0.4752,0.0,0.4496,0.1971,0.0384,-0.0429,-0.0436,-0.2967,-0.5324,-0.6956,-0.729,-0.7502,-0.7607,-0.7715,-0.7856,-0.7981,-0.8002,-0.7972,-0.7968,-0.8079,-0.8233,-0.8432,-0.8829,-0.9031,-0.9236,-0.9727,-1.0117,-1.0413,-1.2818,-1.407,-1.4364,-1.6669,-1.7815,-1.8087,-1.8381,-1.8566,-1.8827,-1.9646,-2.0365,-2.0997,-2.1275,-2.1463,-2.182,-2.2539,-2.3387,-2.4317,-2.5158,-2.6257,-2.7208,-2.7452,-2.7869,-2.8203,-2.8203,-2.8351,-2.851,-2.851,-2.851,-2.851,-2.851,-2.851,-2.851,-2.8657,-2.9172,-2.9781,-3.0088,-3.0709,-3.1468,-3.2245,-3.2676,-3.3171,-3.3811,-3.4249,-3.4563,-3.4698,-3.4883,-3.5082,-3.5213,-3.5359,-3.5504,-3.5504,-3.5589,-3.5688,-3.5688,-3.5958,-3.6148,-3.6352,-3.6414,-3.6492,-3.6492,-3.6538,-3.66,-3.66,-3.6739,-3.6862,-3.6862,-3.7089,-3.7194,-3.7194,-3.7329,-3.7578,0.0,0.0,0.0,0.0,0.0,0.0,0.0,0.689,0.6176,0.5803,0.5724,0.5451,0.4675,0.4963,0.4358,0.1561,-0.0402,-0.1608,-0.1628,-0.4019,-0.6226,-0.721,-0.7473,-0.7718,-0.7715,-0.7934,-0.82,-0.836,-0.8236,-0.82,-0.8337,-0.8403,-0.8432,-0.8531,-0.8935,-0.9236,-0.9331,-0.9821,-1.0216,-1.0507,-1.263,-1.3878,-1.4459,-1.6567,-1.7714,-1.8187,-1.8473,-1.8751,-1.9188,-1.9928,-2.0645,-2.1177,-2.1553,-2.1741,-2.1741,-2.2451,-2.3309,-2.4327,-2.5231,-2.6434,-2.7626,-2.7962,-2.8283,-2.851,-2.851,-2.851,-2.851,-2.851,-2.851,-2.851,-2.859,-2.8578,-2.8578,-2.8803,-2.925,-2.9781,-3.0228,-3.0771,-3.1294,-3.1796,-3.2362,-3.2932,-3.3506,-3.4099,-3.4616,-3.4765,-3.503,-3.5213,-3.5228,-3.5424,-3.5554,-3.5554,-3.5703,-3.5816,-3.5816,-3.6085,-3.6352,-3.6492,-3.6492,-3.6492,-3.6492,-3.66,-3.6723,-3.6723,-3.6923,-3.706,-3.706,-3.721,-3.7254,-3.7254,-3.7405,-3.778,1.3518,1.2271,1.1603,1.1584,0.9879,0.8327,0.0,0.7286,0.5692,0.5087,0.5189,0.4609,0.2262,0.363,0.4145,0.1479,-0.0502,-0.2242,-0.406,-0.5128,-0.6093,-0.7496,-0.7801,-0.8045,-0.8374,-0.8374,-0.8484,-0.8424,-0.8492,-0.846,-0.8375,-0.8443,-0.8634,-0.9133,-0.9133,-0.943,-0.992,-1.0216,-1.0511,-1.0806,-1.2155,-1.3397,-1.4651,-1.6075,-1.7326,-1.8481,-1.8651,-1.9288,-2.011,-2.0292,-2.0835,-2.1642,-2.1651,-2.1741,-2.1741,-2.2097,-2.2618,-2.3474,-2.4988,-2.6008,-2.6857,-2.8018,-2.8431,-2.851,-2.851,-2.851,-2.851,-2.851,-2.851,-2.851,-2.8724,-2.8803,-2.8803,-2.9052,-2.9275,-2.9419,-2.9484,-2.9754,-3.0216,-3.1158,-3.1368,-3.1942,-3.3506,-3.4002,-3.437,-3.5016,-3.5162,-3.5294,-3.5439,-3.5589,-3.5688,-3.5688,-3.5943,-3.6211,-3.6429,-3.6414,-3.6492,-3.6492,-3.6492,-3.6492,-3.6492,-3.66,-3.6723,-3.6723,-3.7013,-3.7194,-3.7194,-3.7345,-3.748,-3.748,-3.748,-3.7512,1.4554,1.3284,1.2537,1.179,1.0462,0.9187,0.8842,0.7352,0.6022,0.5773,0.4842,0.3369,0.0994,0.0864,0.0805,-0.0,-0.0944,-0.1941,-0.288,-0.4362,-0.5508,-0.6078,-0.7481,-0.8239,-0.8239,-0.8347,-0.8508,-0.8489,-0.8612,-0.8611,-0.8581,-0.8785,-0.8935,-0.9236,-0.9529,-0.9727,-1.0019,-1.0408,-1.0708,-1.0801,-1.2446,-1.3692,-1.4651,-1.6271,-1.7606,-1.8743,-1.9104,-1.9646,-2.0292,-2.0555,-2.1096,-2.1741,-2.1741,-2.183,-2.1919,-2.2097,-2.2696,-2.3714,-2.5062,-2.6091,-2.7103,-2.8179,-2.851,-2.851,-2.851,-2.851,-2.851,-2.8657,-2.8657,-2.8736,-2.8882,-2.8961,-2.904,-2.9197,-2.9341,-2.9419,-2.9599,-2.9767,-3.0075,-3.0508,-3.1009,-3.1649,-3.2506,-3.3087,-3.3742,-3.4543,-3.5067,-3.5424,-3.5589,-3.5638,-3.5752,-3.5943,-3.6133,-3.6274,-3.6492,-3.6492,-3.6492,-3.6492,-3.6492,-3.6554,-3.66,-3.68,-3.6907,-3.7013,-3.727,-3.7389,-3.7389,-3.7464,-3.748,-3.748,-3.748,-3.748,1.432,1.3549,1.3227,1.203,1.1101,1.0246,0.9212,0.7864,0.6749,0.6509,0.5185,0.3249,0.0305,-0.1044,-0.1601,-0.1173,-0.1401,-0.1835,-0.212,-0.3799,-0.5131,-0.5449,-0.7256,-0.8357,-0.8153,-0.833,-0.8465,-0.8529,-0.8635,-0.8758,-0.8816,-0.9103,-0.9232,-0.943,-0.9821,-1.0117,-1.0216,-1.0609,-1.09,-1.1194,-1.2452,-1.3607,-1.4651,-1.656,-1.7893,-1.8827,-1.9371,-1.9828,-2.0382,-2.0817,-2.1275,-2.1741,-2.1741,-2.1919,-2.2097,-2.2274,-2.2784,-2.3724,-2.4819,-2.5913,-2.6928,-2.7846,-2.8259,-2.851,-2.851,-2.851,-2.8578,-2.8724,-2.8882,-2.8961,-2.9118,-2.9197,-2.9197,-2.9431,-2.9509,-2.9599,-2.9856,-3.0011,-3.0152,-3.0228,-3.081,-3.1381,-3.1796,-3.239,-3.3087,-3.4245,-3.4905,-3.5329,-3.5688,-3.5752,-3.5943,-3.6274,-3.6274,-3.6352,-3.6492,-3.6492,-3.6492,-3.6492,-3.6554,-3.66,-3.6723,-3.6923,-3.7105,-3.7194,-3.7405,-3.748,-3.748,-3.748,-3.748,-3.748,-3.748,-3.748,1.1405,1.1922,1.2717,1.2209,1.1636,1.1025,1.0332,0.8984,0.7743,0.6904,0.6434,0.4876,0.0104,-0.1263,-0.16,-0.1705,-0.1707,-0.2015,-0.3118,-0.4245,-0.5239,-0.6253,-0.7543,-0.8446,-0.8347,-0.8416,-0.8529,-0.8692,-0.8678,-0.8809,-0.9153,-0.924,-0.943,-0.992,-1.0019,-1.0216,-1.0806,-1.0801,-1.1194,-1.198,-1.1975,-1.2937,-1.4752,-1.6741,-1.8071,-1.8827,-1.9371,-1.9828,-2.0382,-2.0817,-2.1275,-2.1741,-2.2008,-2.2097,-2.2185,-2.2627,-2.2803,-2.2969,-2.4155,-2.5073,-2.5997,-2.6928,-2.7846,-2.851,-2.851,-2.8657,-2.8803,-2.8791,-2.8961,-2.9131,-2.9341,-2.9419,-2.9431,-2.9702,-2.9792,-2.9856,-3.0088,-3.0075,-3.0228,-3.0622,-3.0698,-3.1048,-3.1942,-3.2074,-3.2706,-3.4312,-3.4595,-3.4876,-3.5623,-3.6006,-3.6274,-3.6492,-3.6492,-3.6492,-3.6492,-3.6492,-3.6492,-3.6492,-3.66,-3.6723,-3.6723,-3.7013,-3.7194,-3.7194,-3.7405,-3.748,-3.748,-3.748,-3.748,-3.748,-3.748,-3.748,1.2023,1.2908,1.3865,1.2942,1.2106,1.1201,1.0061,0.8851,0.7739,0.6693,0.6227,0.5072,0.2259,0.0552,-0.0469,-0.0761,-0.1335,-0.1832,-0.2222,-0.3831,-0.5168,-0.556,-0.7412,-0.865,-0.8638,-0.8725,-0.8769,-0.8714,-0.8918,-0.9095,-0.924,-0.9529,-0.9826,-1.0019,-1.0314,-1.0609,-1.0801,-1.1002,-1.1394,-1.198,-1.3227,-1.4567,-1.6008,-1.7124,-1.8342,-1.9371,-1.9828,-2.0374,-2.0826,-2.1275,-2.1642,-2.2008,-2.2097,-2.2274,-2.2627,-2.2715,-2.2882,-2.3135,-2.4155,-2.5073,-2.5986,-2.6928,-2.7765,-2.851,-2.8657,-2.8724,-2.887,-2.9106,-2.9275,-2.9353,-2.9611,-2.9702,-2.9689,-2.9934,-3.0011,-3.0088,-3.0292,-3.0381,-3.0546,-3.0698,-3.0849,-3.0986,-3.1334,-3.1408,-3.1955,-3.3754,-3.4978,-3.5737,-3.6006,-3.6289,-3.6414,-3.6492,-3.6492,-3.6554,-3.66,-3.66,-3.6677,-3.6816,-3.6877,-3.6923,-3.7013,-3.7134,-3.7254,-3.7405,-3.748,-3.748,-3.748,-3.748,-3.748,-3.748,-3.748,-3.748,1.2544,1.3334,1.4055,1.3082,1.2475,1.1668,1.0489,0.9308,0.8305,0.7165,0.6201,0.5105,0.3481,0.1794,0.0406,-0.0,-0.0726,-0.1365,-0.1414,-0.3337,-0.4951,-0.5174,-0.7437,-0.8851,-0.8939,-0.9027,-0.9027,-0.8928,-0.9133,-0.9236,-0.943,-0.9826,-1.0117,-1.0314,-1.0605,-1.0904,-1.1194,-1.1389,-1.1883,-1.2565,-1.3902,-1.5242,-1.6581,-1.7225,-1.8334,-1.9637,-2.0283,-2.0736,-2.1087,-2.1553,-2.183,-2.2097,-2.2185,-2.2441,-2.2794,-2.2882,-2.2969,-2.3222,-2.382,-2.4573,-2.5495,-2.6423,-2.7325,-2.8235,-2.8633,-2.887,-2.9028,-2.9341,-2.9509,-2.9599,-2.9792,-2.9869,-2.9934,-3.0075,-3.0152,-3.0292,-3.0457,-3.0609,-3.0698,-3.0773,-3.0911,-3.0986,-3.0986,-3.1542,-3.2362,-3.3602,-3.524,-3.6274,-3.6274,-3.6414,-3.6492,-3.6492,-3.6492,-3.6554,-3.66,-3.6662,-3.6785,-3.6862,-3.6984,-3.7089,-3.7194,-3.7254,-3.7389,-3.748,-3.748,-3.748,-3.748,-3.748,-3.748,-3.748,-3.748,-3.748,1.2901,1.323,1.3358,1.2659,1.2581,1.2543,1.1439,1.0351,0.9209,0.8037,0.6505,0.5086,0.3824,0.2216,0.0982,0.0505,-0.0074,-0.0551,-0.0913,-0.2871,-0.4561,-0.5293,-0.7613,-0.9145,-0.9236,-0.943,-0.9529,-0.9232,-0.9236,-0.943,-1.0019,-1.0019,-1.0314,-1.0801,-1.0801,-1.1194,-1.198,-1.2078,-1.2565,-1.3539,-1.4016,-1.5057,-1.6588,-1.7023,-1.8141,-1.9637,-2.0628,-2.0988,-2.1087,-2.1553,-2.1919,-2.2097,-2.2353,-2.2618,-2.2794,-2.3057,-2.3135,-2.3135,-2.3135,-2.3734,-2.4659,-2.5495,-2.6565,-2.7637,-2.8542,-2.9106,-2.9419,-2.9419,-2.9599,-2.9792,-2.9792,-2.9934,-3.0088,-3.0164,-3.0305,-3.0444,-3.0698,-3.0698,-3.0773,-3.0986,-3.0986,-3.0986,-3.0986,-3.2506,-3.3808,-3.3959,-3.5464,-3.6492,-3.6492,-3.6492,-3.6492,-3.6492,-3.6492,-3.6492,-3.6492,-3.6662,-3.6723,-3.6723,-3.7013,-3.7194,-3.7194,-3.7405,-3.748,-3.748,-3.748,-3.748,-3.748,-3.748,-3.748,-3.748,-3.748,-3.748,1.3207,1.3804,1.441,1.3077,1.2558,1.2168,1.0947,0.9855,0.8713,0.7507,0.6099,0.4855,0.4235,0.2502,0.1065,0.077,-0.0418,-0.1433,-0.1703,-0.303,-0.445,-0.5665,-0.7238,-0.8564,-0.9442,-0.9723,-0.9821,-0.9826,-0.9821,-0.9826,-1.0019,-1.0413,-1.0708,-1.0801,-1.1389,-1.178,-1.198,-1.2759,-1.3249,-1.3539,-1.4016,-1.4873,-1.6015,-1.6929,-1.8133,-1.9629,-2.0538,-2.1177,-2.1553,-2.183,-2.2097,-2.2353,-2.2618,-2.2794,-2.3057,-2.3047,-2.3135,-2.3135,-2.3135,-2.3734,-2.4659,-2.5495,-2.6565,-2.7718,-2.8712,-2.9197,-2.9419,-2.9611,-2.9792,-2.9869,-3.0011,-3.0088,-3.0164,-3.047,-3.0622,-3.0685,-3.0911,-3.0911,-3.0911,-3.0986,-3.1123,-3.1198,-3.1198,-3.2706,-3.3945,-3.4027,-3.5464,-3.6492,-3.6492,-3.6492,-3.6492,-3.6492,-3.6616,-3.6739,-3.6877,-3.6968,-3.7134,-3.7285,-3.7405,-3.7405,-3.7405,-3.748,-3.748,-3.748,-3.748,-3.748,-3.748,-3.748,-3.748,-3.748,-3.748,-3.748,1.3975,1.4322,1.4494,1.2927,1.2433,1.209,1.0702,0.9564,0.8482,0.721,0.5795,0.4737,0.4431,0.2831,0.153,0.1362,-0.0152,-0.1333,-0.1737,-0.2904,-0.4296,-0.5869,-0.7128,-0.8424,-0.9632,-0.992,-1.0019,-1.0216,-1.0216,-1.0216,-1.0314,-1.0609,-1.0998,-1.1292,-1.178,-1.2175,-1.2662,-1.3437,-1.3919,-1.4016,-1.4304,-1.4968,-1.6008,-1.7203,-1.8403,-1.953,0.0,-2.1454,-2.1741,-2.2008,-2.2185,-2.2441,-2.2706,-2.2882,-2.3135,-2.3135,-2.3135,-2.3135,-2.3135,-2.3484,-2.4166,-2.5073,-2.6152,-2.7221,-2.8303,-2.9118,-2.9611,-2.9792,-2.9869,-2.9934,-2.9934,-3.0164,-3.0394,-3.0533,-3.0685,-3.0836,-3.0986,-3.0986,-3.1061,-3.1136,-3.1198,-3.1482,-3.1896,-3.2861,-3.3754,-3.4499,-3.54,-3.6148,-3.6429,-3.6492,-3.6492,-3.66,-3.6662,-3.6785,-3.6999,-3.715,-3.7254,-3.7329,-3.7464,-3.748,-3.748,-3.748,-3.748,-3.748,-3.748,-3.748,-3.748,-3.748,-3.748,-3.748,-3.748,-3.748,1.4817,1.4741,1.4235,1.2567,1.221,1.2021,1.0645,0.943,0.826,0.7027,0.5634,0.4557,0.4438,0.3095,0.1931,0.1843,0.0314,-0.104,-0.1425,-0.2643,-0.4053,-0.5881,-0.719,-0.8421,-0.9821,-1.0019,-1.0216,-1.0413,-1.0511,-1.0605,-1.0801,-1.09,-1.1292,-1.217,-1.2175,-1.2662,-1.3636,-1.4106,-1.449,-1.479,-1.479,-1.5255,-1.619,-1.7662,-1.8772,-1.953,-2.0997,0.0,-2.1731,-2.2008,-2.2264,-2.2441,-2.2715,-2.2969,-2.3135,-2.3135,-2.3135,-2.3144,-2.3144,-2.3319,-2.3667,-2.4498,-2.5568,-2.673,-2.781,-2.8882,-2.9792,-2.9792,-2.9934,-3.0011,-2.9934,-3.0241,-3.0609,-3.052,-3.0748,-3.0986,-3.0986,-3.0986,-3.1061,-3.1272,-3.1347,-3.1703,-3.2605,-3.2932,-3.3547,-3.5059,-3.54,-3.58,-3.6429,-3.6492,-3.6554,-3.6662,-3.6723,-3.68,-3.6999,-3.715,-3.7254,-3.7254,-3.7405,-3.748,-3.748,-3.748,-3.748,-3.748,-3.748,-3.748,-3.748,-3.748,-3.748,-3.748,-3.748,-3.748,1.5113,1.4859,1.4571,1.2612,1.2173,1.1854,1.0604,0.9019,0.7668,0.6856,0.5355,0.413,0.4091,0.2905,0.1696,0.1063,-0.029,-0.1503,-0.2427,-0.2754,-0.3747,-0.6037,-0.6731,-0.7816,-0.9817,-1.0413,-1.0703,-1.0708,-1.0904,-1.0998,-1.0806,-1.1389,-1.2268,-1.3249,-1.3249,-1.363,-1.4496,-1.4592,-1.479,-1.4987,-1.4987,-1.5267,-1.5724,-1.7569,-1.8588,-1.9072,-2.0907,0.0,-2.2008,-2.2264,-2.253,-2.2706,-2.2969,-2.3057,-2.3135,-2.3135,-2.3135,-2.3135,-2.3319,-2.3503,-2.3667,-2.4498,-2.5652,-2.6894,-2.781,-2.8882,-2.9792,-2.9792,-2.9869,-2.9934,-3.0228,-3.0368,-3.052,-3.0836,-3.0986,-3.0986,-3.0986,-3.1123,-3.1272,-3.1272,-3.1582,-3.1877,-3.2023,-3.3157,-3.4177,-3.4447,-3.5529,-3.6352,-3.6492,-3.6492,-3.6554,-3.6662,-3.6862,-3.6984,-3.7134,-3.7329,-3.7464,-3.7464,-3.748,-3.748,-3.748,-3.748,-3.748,-3.748,-3.748,-3.748,-3.748,-3.748,-3.748,-3.748,-3.748,-3.748,1.5238,1.4949,1.4634,1.2623,1.214,1.1673,0.987,0.8595,0.7395,0.617,0.4993,0.4144,0.4077,0.2721,0.1505,0.113,-0.0579,-0.2019,-0.2404,-0.3032,-0.4228,-0.6321,-0.6921,-0.8018,-1.0212,-1.0609,-1.0904,-1.0998,-1.1389,-1.1585,-1.1389,-1.2273,-1.305,-1.3721,-1.4016,-1.4406,-1.4885,-1.4885,-1.5077,-1.5267,-1.5267,-1.5452,-1.573,-1.7669,-1.8688,-1.8888,-2.0997,0.0,-2.2097,-2.2441,-2.2706,-2.2803,-2.3057,-2.3135,-2.3135,-2.3135,-2.3232,-2.3319,-2.3503,-2.3677,-2.3937,-2.4348,-2.5505,-2.6894,-2.7395,-2.8633,-2.9792,-2.9792,-2.9934,-3.0152,-3.0228,-3.0444,-3.0748,-3.0836,-3.0911,-3.0986,-3.0986,-3.1123,-3.1347,-3.1434,-3.1669,-3.2169,-3.296,-3.3506,-3.4109,-3.5255,-3.5737,-3.6085,-3.6538,-3.66,-3.6677,-3.6862,-3.6968,-3.715,-3.7329,-3.7464,-3.748,-3.748,-3.748,-3.748,-3.748,-3.748,-3.748,-3.748,-3.748,-3.748,-3.748,-3.748,-3.748,-3.748,-3.748,-3.748,1.5324,1.5051,1.4634,1.2623,1.214,1.1486,0.9218,0.8203,0.723,0.5532,0.4674,0.4195,0.4061,0.2673,0.1505,0.1199,-0.06,-0.2102,-0.2472,-0.3241,-0.4596,-0.6662,-0.7406,-0.852,-1.0605,-1.0806,-1.0998,-1.1389,-1.198,-1.237,-1.237,-1.305,-1.363,-1.41,-1.449,-1.4885,-1.5172,-1.5178,-1.5267,-1.554,-1.554,-1.5635,-1.5825,-1.7684,-1.8603,-1.8972,-2.0898,0.0,0.0,-2.2627,-2.2803,-2.2882,-2.3057,-2.3135,-2.3144,-2.3144,-2.3319,-2.3503,-2.359,-2.3851,-2.4206,-2.4292,-2.5432,-2.6894,-2.7058,-2.8383,-2.9792,-2.9869,-3.0075,-3.0292,-3.0228,-3.0609,-3.0911,-3.0773,-3.0911,-3.0986,-3.0986,-3.1211,-3.1434,-3.1609,-3.1877,-3.2561,-3.3837,-3.3837,-3.4245,-3.6006,-3.5879,-3.5864,-3.66,-3.6723,-3.68,-3.6999,-3.7089,-3.7254,-3.748,-3.748,-3.748,-3.748,-3.748,-3.748,-3.748,-3.748,-3.748,-3.748,-3.748,-3.748,-3.748,-3.748,-3.748,-3.748,-3.748,-3.748,1.5246,1.5051,1.4634,1.2623,1.214,1.1492,0.9169,0.802,0.7064,0.5367,0.4492,0.3976,0.3842,0.2888,0.1766,0.059,-0.0279,-0.1375,-0.3182,-0.3315,-0.4249,-0.6969,-0.7743,-0.8718,-1.0605,-1.0998,-1.1394,-1.1883,-1.2856,-1.3346,-1.3346,-1.3443,-1.3829,-1.4592,-1.4688,-1.4975,-1.5445,-1.5445,-1.554,-1.5737,-1.5737,-1.5737,-1.5825,-1.6951,-1.8056,-1.9131,-2.0232,-2.1516,0.0,-2.2803,-2.2882,-2.3057,-2.3047,-2.3135,-2.3144,-2.3406,-2.3503,-2.359,-2.4024,-2.4206,-2.4206,-2.4368,-2.5684,-2.7069,-2.7058,-2.8383,-2.9869,-3.0011,-3.0075,-3.0228,-3.0546,-3.0698,-3.0773,-3.0911,-3.0986,-3.0986,-3.0986,-3.1299,-3.1596,-3.1609,-3.2417,-3.3157,-3.3297,-3.438,-3.527,-3.5464,-3.6006,-3.6429,-3.6492,-3.68,-3.6999,-3.7015,-3.7089,-3.7254,-3.748,-3.748,-3.748,-3.748,-3.748,-3.748,-3.748,-3.748,-3.748,-3.748,-3.748,-3.748,-3.748,-3.748,-3.748,-3.748,-3.748,-3.748,1.4721,1.4545,1.3969,1.2161,1.1505,1.0819,0.8729,0.7592,0.6661,0.5394,0.4518,0.3958,0.3788,0.2756,0.1689,0.0811,-0.0154,-0.1195,-0.229,-0.2654,-0.3822,-0.6618,-0.7417,-0.8718,-1.1312,-1.159,-1.1975,-1.2856,-1.3249,-1.3732,-1.4214,-1.4208,-1.4406,-1.4885,-1.507,-1.535,-1.5635,-1.5635,-1.5737,-1.5832,-1.5927,-1.6028,-1.6123,-1.7239,-1.8342,-1.943,-2.0512,-2.1695,0.0,-2.2969,-2.3057,-2.3135,-2.3319,-2.3319,-2.3406,-2.358,-2.3764,-2.3937,-2.412,-2.4292,-2.4368,-2.4454,-2.5348,-2.64,-2.6905,-2.8051,-2.9287,-2.9921,-3.0305,-3.047,-3.0698,-3.0773,-3.0911,-3.0986,-3.0986,-3.1061,-3.1123,-3.136,-3.1609,-3.1743,-3.2547,-3.3353,-3.3768,-3.4714,-3.5544,-3.6006,-3.6289,-3.6554,-3.66,-3.6862,-3.706,-3.7089,-3.7285,-3.7405,-3.748,-3.748,-3.748,-3.748,-3.748,-3.748,-3.748,-3.748,-3.748,-3.748,-3.748,-3.748,-3.748,-3.748,-3.748,-3.748,-3.748,-3.7583,1.3861,1.3756,1.3193,1.1692,1.1006,1.0177,0.8217,0.7187,0.6318,0.5114,0.4348,0.3814,0.3645,0.2559,0.151,0.0925,-0.0048,-0.1033,-0.1863,-0.2239,-0.3357,-0.5802,-0.6642,-0.8122,-1.0977,-1.2035,-1.2759,-1.3443,-1.3732,-1.4118,-1.4688,-1.4879,-1.4975,-1.5172,-1.5356,-1.5635,-1.5832,-1.5832,-1.5832,-1.5927,-1.6123,-1.6224,-1.6312,-1.7246,-1.8342,-1.9712,-2.052,-2.1615,0.0,-2.3057,-2.3144,-2.3232,-2.3416,-2.3503,-2.358,-2.3851,-2.4024,-2.4206,-2.4282,-2.4368,-2.454,-2.454,-2.4946,-2.5673,-2.6812,-2.7971,-2.8961,-2.9908,-3.0457,-3.0773,-3.0773,-3.0911,-3.0986,-3.0986,-3.1061,-3.1123,-3.1272,-3.1508,-3.1757,-3.189,-3.2761,-3.3699,-3.4245,-3.5059,-3.5879,-3.6429,-3.6492,-3.6554,-3.6662,-3.6862,-3.706,-3.7194,-3.7405,-3.748,-3.748,-3.748,-3.748,-3.748,-3.748,-3.748,-3.748,-3.748,-3.748,-3.748,-3.748,-3.748,-3.748,-3.748,-3.748,-3.748,-3.748,-3.7626,1.2472,1.2674,1.2565,1.1276,1.0627,0.968,0.7668,0.686,0.6038,0.445,0.3842,0.3561,0.3444,0.2309,0.1229,0.08,0.0087,-0.0896,-0.2403,-0.2291,-0.2856,-0.476,-0.5339,-0.6628,-0.9375,-1.1925,-1.3443,-1.3539,-1.4208,0.0,-1.4688,-1.5159,-1.5445,-1.554,-1.554,-1.5635,-1.5832,-1.5832,-1.5927,-1.6224,-1.6224,-1.6312,-1.6588,-1.6588,-1.7785,-1.9894,-1.9894,-2.1159,0.0,-2.3135,-2.3232,-2.3503,-2.3503,-2.358,-2.3841,-2.411,-2.4206,-2.4206,-2.4454,-2.454,-2.454,-2.454,-2.454,-2.4871,-2.6905,-2.8131,-2.9028,-3.0126,-3.0672,-3.0986,-3.0986,-3.0986,-3.0986,-3.0986,-3.1123,-3.1272,-3.1272,-3.1582,-3.189,-3.189,-3.3171,-3.4312,-3.4312,-3.5529,-3.6492,-3.6492,-3.6492,-3.6554,-3.6662,-3.6862,-3.706,-3.7194,-3.7405,-3.748,-3.748,-3.748,-3.748,-3.748,-3.748,-3.748,-3.748,-3.748,-3.748,-3.748,-3.748,-3.748,-3.748,-3.748,-3.748,-3.748,-3.748,-3.7626,1.141,1.1306,1.0713,0.9455,0.8777,0.7866,0.6096,0.5333,0.4776,0.3988,0.3597,0.3381,0.335,0.2853,0.2097,0.103,0.0248,-0.041,-0.0996,-0.163,-0.303,-0.5621,-0.8908,-1.131,-1.2221,-1.3343,-1.4112,-1.4304,-1.4598,-1.4879,-1.5255,-1.5445,-1.554,-1.554,-1.5635,-1.5832,-1.6028,-1.6028,-1.6218,-1.6494,-1.6697,-1.6791,-1.6878,-1.7692,-1.8972,-2.0421,-2.0881,-2.205,0.0,-2.3406,-2.3493,-2.3754,-2.3937,-2.4024,-2.411,-2.4282,-2.4368,-2.4368,-2.4454,-2.454,-2.454,-2.47,-2.5189,-2.5841,-2.7313,-2.7867,-2.8493,-3.0266,-3.0911,-3.0986,-3.0986,-3.0986,-3.0986,-3.0986,-3.1123,-3.1347,-3.1522,-3.1743,-3.2096,-3.269,-3.363,-3.4447,-3.4978,-3.5879,-3.6492,-3.6492,-3.6492,-3.6554,-3.6662,-3.6862,-3.706,-3.7194,-3.7405,-3.748,-3.748,-3.748,-3.748,-3.748,-3.748,-3.748,-3.748,-3.748,-3.748,-3.748,-3.748,-3.748,-3.748,-3.748,-3.748,-3.748,-3.7685,-3.796,1.0163,1.003,0.9346,0.8431,0.7587,0.6621,0.5333,0.4624,0.413,0.3705,0.342,0.3061,0.2483,0.2193,0.1644,0.0389,-0.0126,-0.0635,-0.1309,-0.1976,-0.3426,-0.621,-1.0121,-1.2683,-1.2864,-1.3854,-1.4592,-1.479,-1.4975,-1.5166,-1.5445,-1.5642,-1.5737,-1.5737,-1.5927,-1.6123,-1.6312,-1.6312,-1.6501,-1.6777,-1.6885,-1.7073,-1.7261,-1.8427,-1.9604,-2.0773,-2.1596,0.0,0.0,-2.3667,-2.3764,-2.3937,-2.411,-2.4292,-2.4368,-2.4454,-2.454,-2.454,-2.4615,-2.4615,-2.47,-2.4946,-2.583,-2.7046,-2.8108,-2.8664,-2.9213,-3.0583,-3.0986,-3.0986,-3.0986,-3.0986,-3.0986,-3.1136,-3.1286,-3.1434,-3.1669,-3.189,-3.2169,-3.269,-3.363,-3.4447,-3.4927,-3.5816,-3.6492,-3.6492,-3.6554,-3.66,-3.68,-3.6984,-3.7165,-3.7329,-3.7405,-3.748,-3.748,-3.748,-3.748,-3.748,-3.748,-3.748,-3.748,-3.748,-3.748,-3.748,-3.748,-3.748,-3.748,-3.748,-3.748,-3.7539,-3.7918,-3.8205,0.0,0.879,0.8329,0.7936,0.6904,0.5826,0.5111,0.4521,0.0,0.3492,0.3154,0.2517,0.106,0.0676,0.0224,-0.0806,-0.094,-0.1372,-0.2732,-0.3241,-0.4354,-0.6731,-0.957,-1.1508,-1.1839,-1.3609,-1.4885,-1.5083,-1.5356,-1.554,-1.5547,-1.6028,-1.6224,-1.6224,-1.6224,-1.6407,-1.6588,-1.6588,-1.6784,-1.6979,-1.7073,-1.7261,-1.7721,-1.8788,-1.9861,0.0,0.0,0.0,0.0,-2.3841,-2.4024,-2.4206,-2.4206,-2.4378,-2.454,-2.454,-2.454,-2.454,-2.4775,-2.4946,-2.4946,-2.5189,-2.6565,-2.8243,-2.9135,-3.0024,-3.0773,-3.0911,-3.0986,-3.0986,-3.0986,-3.0986,-3.1061,-3.1272,-3.1434,-3.1683,-3.189,-3.2036,-3.2255,-3.2314,-3.3381,-3.4298,-3.4447,-3.5593,-3.6492,-3.6492,-3.66,-3.6785,-3.6999,-3.715,-3.7254,-3.748,-3.748,-3.748,-3.748,-3.748,-3.748,-3.748,-3.748,-3.748,-3.748,-3.748,-3.748,-3.748,-3.748,-3.748,-3.748,-3.748,-3.7539,-3.7524,-3.8107,-3.8391,0.7168,0.0,0.6568,0.572,0.5192,0.4654,0.0,0.3458,0.3123,0.2549,0.1956,0.1371,0.0689,-0.0132,-0.0709,-0.0817,-0.094,-0.131,-0.2209,-0.5529,-0.8418,-0.9976,-1.2495,-1.3835,-1.2887,-1.4175,-1.5077,-1.5356,-1.5642,-1.5832,-1.6028,-1.6305,-1.6588,-1.6791,-1.6791,-1.6885,-1.6878,-1.6878,-1.6965,-1.7239,-1.7441,-1.7636,-1.7721,-1.9695,-2.0764,-2.1302,0.0,0.0,-2.4282,-2.4196,-2.4196,-2.4454,-2.4454,-2.4454,-2.454,-2.454,-2.4615,-2.4775,-2.4861,-2.5031,-2.5274,-2.6163,-2.729,-2.8493,-2.9381,-3.0266,-3.0911,-3.0986,-3.0986,-3.0986,-3.0986,-3.1136,-3.1272,-3.1272,-3.1582,-3.1817,-3.189,-3.2036,-3.2516,-3.3575,-3.4041,-3.4647,-3.5816,-3.6289,-3.6554,-3.6662,-3.6662,-3.6846,-3.7074,-3.7194,-3.7254,-3.748,-3.748,-3.748,-3.748,-3.748,-3.748,-3.748,-3.748,-3.748,-3.748,-3.748,-3.748,-3.748,-3.748,-3.748,-3.748,-3.748,-3.7583,-3.7786,-3.7943,-3.823,0.6124,0.5831,0.5464,0.4853,0.4302,0.3785,0.3285,0.29,0.2545,0.2088,0.1233,0.0449,0.0084,-0.0827,-0.1468,-0.1219,-0.1689,-0.2401,-0.3396,-0.6487,-0.9135,-1.0696,-1.2572,-1.3857,-1.4214,-1.4873,-1.5452,-1.5832,-1.5927,-1.6123,-1.6407,-1.6595,-1.6878,-1.6979,-1.7066,-1.716,-1.716,-1.7254,-1.7347,-1.7527,-1.7714,-1.7908,-1.8102,-2.024,-2.1212,-2.1578,0.0,0.0,-2.4454,-2.4368,-2.4368,-2.4519,-2.4397,-2.4523,-2.468,-2.4566,-2.4693,-2.5031,-2.5211,-2.538,-2.5706,-2.7058,-2.7936,-2.8664,-2.9947,-3.0659,-3.0986,-3.0986,-3.0986,-3.0986,-3.1136,-3.1198,-3.1347,-3.1508,-3.173,-3.1963,-3.2036,-3.2372,-3.2903,-3.363,-3.438,-3.5059,-3.5879,-3.6352,-3.6616,-3.6662,-3.6831,-3.7013,-3.7194,-3.7254,-3.7405,-3.748,-3.748,-3.748,-3.748,-3.748,-3.748,-3.748,-3.748,-3.748,-3.748,-3.748,-3.748,-3.748,-3.748,-3.748,-3.748,-3.748,-3.7642,-3.7886,-3.8075,-3.8359,0.5365,0.5059,0.4751,0.4616,0.3826,0.3108,0.3028,0.258,0.2109,0.1753,0.0694,-0.0274,-0.0628,-0.1482,-0.2018,-0.1791,-0.285,-0.419,-0.5624,-0.7257,-0.893,-1.0537,-1.1934,-1.3414,-1.5113,-1.5445,-1.5832,-1.6218,-1.6319,-1.6407,-1.6683,-1.6878,-1.7066,-1.7073,-1.7196,-1.7252,-1.7345,-1.7598,-1.7721,-1.7721,-1.794,-1.8319,-1.8743,-2.039,-2.1423,-2.1868,0.0,0.0,-2.4447,-2.4509,-2.454,-2.4584,-2.4294,-2.4472,-2.4893,-2.4617,-2.4817,-2.5285,-2.5559,-2.5738,-2.6146,-2.7718,-2.8267,-2.8664,-3.0343,-3.0898,-3.1061,-3.1061,-3.1061,-3.1061,-3.1272,-3.1347,-3.1508,-3.1817,-3.189,-3.1963,-3.2182,-3.2704,-3.3213,-3.3353,-3.4447,-3.5464,-3.5544,-3.6196,-3.6723,-3.6723,-3.7013,-3.7194,-3.7254,-3.7405,-3.748,-3.748,-3.748,-3.748,-3.748,-3.748,-3.748,-3.748,-3.748,-3.748,-3.748,-3.748,-3.748,-3.748,-3.748,-3.748,-3.748,-3.7524,-3.7685,-3.8017,-3.8432,-3.8779,0.4349,0.4158,0.4188,0.3998,0.3352,0.2755,0.2608,0.2144,0.1526,0.085,-0.0,-0.0791,-0.1401,-0.1864,-0.2241,-0.2499,-0.425,-0.6161,-0.7813,-1.006,-1.16,-1.1716,-1.3818,-1.5052,-1.4536,-1.5445,-1.6218,-1.6494,-1.6784,-1.6885,-1.6979,-1.7153,-1.734,-1.7636,-1.736,-1.7295,-1.7561,-1.7672,-1.7815,-1.8087,-1.7979,-1.8533,-1.9695,-2.0366,-2.1268,-2.2378,0.0,-2.3981,-2.4012,-2.4385,-2.4615,-2.4819,-2.4378,-2.4556,-2.5062,-2.47,-2.4911,-2.5559,-2.5812,-2.5895,-2.6063,-2.7103,-2.7879,-2.8585,-2.9614,-3.057,-3.1272,-3.1272,-3.1272,-3.1272,-3.1272,-3.1582,-3.1817,-3.189,-3.2036,-3.2182,-3.2182,-3.2704,-3.3353,-3.4041,-3.4846,-3.5608,-3.6211,-3.6538,-3.6785,-3.6938,-3.7089,-3.7254,-3.7405,-3.748,-3.748,-3.748,-3.748,-3.748,-3.748,-3.748,-3.748,-3.748,-3.748,-3.748,-3.748,-3.748,-3.748,-3.748,-3.748,-3.748,-3.748,-3.7743,-3.8017,-3.8351,-3.9235,-3.9851,0.4063,0.3675,0.3486,0.3429,0.3136,0.275,0.2383,0.1856,0.1322,0.0627,-0.0363,-0.1326,-0.208,-0.2761,-0.3613,-0.4851,-0.5473,-0.6375,-0.7922,-0.9289,-1.0566,-1.1494,-1.3343,-1.4688,-1.5253,-1.6015,-1.6501,-1.6784,-1.6885,-1.7073,-1.7347,-1.7272,-1.7353,-1.7636,-1.7311,-1.7227,-1.7486,-1.7558,-1.7635,-1.7717,-1.8266,-1.8883,-1.9474,-2.064,-2.1489,-2.2109,0.0,-2.3815,-2.37,-2.4159,-2.4514,-2.4597,-2.4051,-2.4442,-2.5359,-2.5311,-2.546,-2.5812,-2.5895,-2.6218,-2.6704,-2.7568,-2.8438,-2.9303,-3.0254,-3.0885,-3.1347,-3.1434,-3.1434,-3.1522,-3.1582,-3.1743,-3.1963,-3.2036,-3.2109,-3.2314,-3.2632,-3.3297,-3.4027,-3.4714,-3.5464,-3.6148,-3.6538,-3.6739,-3.6923,-3.7089,-3.7524,-3.7815,-3.7528,-3.7812,-3.7891,-3.7512,-3.748,-3.748,-3.748,-3.748,-3.748,-3.748,-3.748,-3.748,-3.748,-3.748,-3.748,-3.748,-3.748,-3.7583,-3.7743,-3.7828,-3.8382,-3.9186,-3.9682,-4.0268,0.378,0.3389,0.3057,0.2753,0.255,0.229,0.1668,0.1035,0.0422,-0.0276,-0.1282,-0.224,-0.2794,-0.3623,-0.4791,-0.6555,-0.651,-0.676,-0.8264,-0.9013,-1.0045,-1.1815,-1.2964,-1.4342,-1.6088,-1.6305,-1.6494,-1.7066,-1.7167,-1.7318,-1.7617,-1.7363,-1.7364,-1.7558,-1.714,-1.7147,-1.74,-1.7321,-1.7361,-1.7517,-1.846,-1.9144,-1.9478,-2.0771,-2.1634,-2.1997,-2.3135,-2.3512,-2.3471,-2.4051,-2.4365,-2.4527,-2.396,-2.4427,-2.5576,-2.5768,-2.5895,-2.5895,-2.5895,-2.6456,-2.7336,-2.8119,-2.9057,-2.9935,-3.096,-3.1347,-3.1508,-3.1596,-3.1683,-3.1743,-3.189,-3.1963,-3.2036,-3.2182,-3.2182,-3.2372,-3.3087,-3.3768,-3.4514,-3.527,-3.6006,-3.6554,-3.6662,-3.6862,-3.706,-3.7194,-3.7786,-3.8081,-3.7543,-3.7938,-3.8065,-3.7528,-3.748,-3.748,-3.748,-3.748,-3.748,-3.748,-3.748,-3.748,-3.748,-3.748,-3.748,-3.748,-3.7741,-3.7923,-3.8126,-3.8476,-3.9136,-4.0148,-4.0369,-4.0918,0.3049,0.3212,0.3216,0.1787,0.1142,0.0691,0.013,-0.0922,-0.2023,-0.2953,-0.3634,-0.3949,-0.3626,-0.4276,-0.5093,-0.5844,-0.7099,-0.8562,-1.0323,-1.1627,-1.2847,-1.3915,-1.4413,-1.5126,-1.648,-1.5913,-1.6001,-1.7239,-1.7527,-1.7494,-1.7281,-1.741,-1.7527,-1.7389,-1.7048,-1.7047,-1.731,-1.6976,-1.7051,-1.7771,-1.8279,-1.9204,-2.0364,-2.0509,-2.1409,-2.2699,-2.2809,-2.2966,-2.3232,-2.4076,-2.4602,-2.4805,-2.474,-2.4957,-2.5284,-2.5732,-2.5895,-2.5895,-2.5895,-2.6456,-2.7336,-2.8119,-2.9135,-3.0139,-3.1035,-3.1582,-3.189,-3.189,-3.2036,-3.2109,-3.1963,-3.2036,-3.2182,-3.2182,-3.2182,-3.2372,-3.3087,-3.3768,-3.4514,-3.527,-3.6006,-3.6554,-3.6662,-3.6862,-3.706,-3.7194,-3.7436,-3.7528,-3.748,-3.7512,-3.7528,-3.748,-3.748,-3.748,-3.748,-3.748,-3.748,-3.748,-3.748,-3.748,-3.748,-3.748,-3.748,-3.748,-3.8439,-3.8878,-3.8937,-4.0203,-4.0794,-4.0918,-4.1882,-4.2328,0.2382,0.1709,0.1137,0.1032,0.0046,-0.1004,-0.1449,-0.2311,-0.3302,-0.3923,-0.4616,-0.5101,-0.5276,-0.6075,-0.6912,-0.7477,-0.8229,-0.9049,-0.996,-1.1565,-1.2926,-1.3511,-1.4956,-1.6116,-1.6784,-1.6676,-1.6857,-1.7527,-1.7435,-1.7454,-1.7598,-1.7363,-1.7251,-1.7298,-1.6952,-1.6846,-1.6937,-1.7056,-1.7434,-1.7938,-1.8679,-1.9245,-1.9786,-2.0995,-2.1803,-2.2384,-2.2833,-2.2945,-2.2874,-2.3538,-2.4136,-2.4632,-2.5218,-2.5354,-2.5229,-2.5721,-2.5895,-2.5895,-2.5895,-2.6775,-2.8039,-2.8414,-2.9589,-3.0947,-3.1495,-3.1817,-3.1963,-3.2036,-3.2109,-3.2182,-3.2109,-3.2109,-3.2182,-3.2182,-3.2182,-3.2516,-3.363,-3.4095,-3.4647,-3.5879,-3.6414,-3.6662,-3.6877,-3.7044,-3.721,-3.7345,-3.7844,-3.797,-3.7528,-3.7859,-3.7954,-3.7528,-3.748,-3.748,-3.748,-3.748,-3.767,-3.8096,-3.7717,-3.748,-3.748,-3.748,-3.748,-3.748,-3.8487,-3.9076,-3.9285,-4.0466,-4.1329,-4.1948,-4.2328,-4.2767,0.162,0.0704,-0.0078,-0.0,-0.1025,-0.2327,-0.3027,-0.3574,-0.4272,-0.5022,-0.5567,-0.5976,-0.646,-0.7104,-0.7758,-0.8295,-0.8818,-0.943,-1.0015,-1.1663,-1.2926,-1.3119,-1.4949,-1.6298,-1.6494,-1.6678,-1.6986,-1.7472,-1.7349,-1.7384,-1.7536,-1.7259,-1.7046,-1.7111,-1.6865,-1.673,-1.673,-1.7147,-1.7619,-1.8069,-1.9097,-1.965,-1.9816,-2.1471,-2.2252,-2.2348,-2.2743,-2.2929,-2.281,-2.3297,-2.3872,-2.4574,-2.536,-2.5459,-2.5229,-2.5721,-2.5979,-2.6135,-2.629,-2.7395,-2.873,-2.9123,-3.0228,-3.1508,-3.1817,-3.1963,-3.2036,-3.2182,-3.2182,-3.2182,-3.2182,-3.2182,-3.2182,-3.2182,-3.2182,-3.2588,-3.3973,-3.4312,-3.4714,-3.6274,-3.6662,-3.6785,-3.7044,-3.715,-3.7254,-3.748,-3.7875,-3.8096,-3.7844,-3.8033,-3.8002,-3.7528,-3.748,-3.7575,-3.7796,-3.7812,-3.8096,-3.8776,-3.8381,-3.8112,-3.8112,-3.8112,-3.8173,-3.8293,-3.9321,-3.9989,-4.0317,-4.1311,-4.2153,-4.2866,-4.2866,-4.3148,0.0788,0.0438,-0.0034,-0.1314,-0.2122,-0.3049,-0.4668,-0.4763,-0.4921,-0.6486,-0.6617,-0.6623,-0.6971,-0.7165,-0.7395,-0.7725,-0.8559,-0.962,-1.0974,-1.2242,-1.3113,-1.3113,-1.4465,-1.5425,-1.5425,-1.5631,-1.6106,-1.713,-1.7359,-1.7274,-1.6931,-1.7178,-1.7104,-1.6746,-1.673,-1.673,-1.6738,-1.7147,-1.7691,-1.8292,-1.9562,-2.044,-2.0837,-2.1928,-2.2478,-2.2703,-2.2703,-2.2852,-2.3045,-2.3525,-2.4028,-2.4541,-2.5,-2.5175,-2.524,-2.5721,-2.6135,-2.6599,-2.7232,-2.8347,-2.9524,-3.0088,-3.1035,-3.189,-3.189,-3.2036,-3.2182,-3.2182,-3.2182,-3.2182,-3.2182,-3.2182,-3.2182,-3.2182,-3.2182,-3.2588,-3.3973,-3.4312,-3.478,-3.6383,-3.6723,-3.6846,-3.7134,-3.7194,-3.7254,-3.748,-3.748,-3.7733,-3.8412,-3.7907,-3.7496,-3.748,-3.748,-3.7765,-3.8444,-3.8507,-3.8792,-3.9471,-3.9518,-3.9518,-3.9503,-3.9503,-3.969,-3.9998,-4.1071,-4.1748,-4.2091,-4.3086,-4.3628,-4.3628,-4.3628,-4.3628,0.0026,-0.1177,-0.2257,-0.2147,-0.3104,-0.4316,-0.4908,-0.5181,-0.5675,-0.6866,-0.718,-0.7346,-0.7733,-0.8133,-0.8444,-0.8653,-0.908,-0.9433,-0.9908,-1.0924,-1.1952,-1.269,-1.3989,-1.5184,-1.6014,-1.6296,-1.6595,-1.7136,-1.7085,-1.711,-1.7186,-1.7032,-1.6849,-1.6738,-1.673,-1.6902,-1.7229,-1.7635,-1.8416,-1.964,-2.0527,-2.0914,-2.1068,-2.2155,-2.2628,-2.2703,-2.2852,-2.2927,-2.3045,-2.3525,-2.4028,-2.4541,-2.5,-2.5535,-2.6173,-2.6235,-2.661,-2.7092,-2.7706,-2.8573,-2.9524,-3.0304,-3.1172,-3.1963,-3.2036,-3.2182,-3.2182,-3.2182,-3.2182,-3.2182,-3.2182,-3.2182,-3.2182,-3.2182,-3.2182,-3.2588,-3.3973,-3.438,-3.4927,-3.6383,-3.6892,-3.7074,-3.7178,-3.7329,-3.7405,-3.748,-3.748,-3.7559,-3.7765,-3.8033,-3.8017,-3.7528,-3.748,-3.7765,-3.8444,-3.8507,-3.9013,-4.0198,-4.0277,-4.004,-3.9518,-3.9752,-3.9875,-3.9998,-4.1314,-4.1972,-4.2091,-4.3086,-4.3628,-4.3628,-4.3628,-4.3628,-0.0972,-0.2179,-0.3289,-0.3372,-0.4209,-0.5173,-0.5619,-0.6161,-0.6662,-0.7353,-0.7739,-0.7997,-0.8272,-0.8684,-0.8937,-0.8989,-0.9258,-0.9427,-0.9354,-1.045,-1.1288,-1.1655,-1.3471,-1.4923,-1.5363,-1.6162,-1.6794,-1.696,-1.6908,-1.6881,-1.7064,-1.6849,-1.673,-1.673,-1.6894,-1.7147,-1.7392,-1.7959,-1.8975,-2.0353,-2.0914,-2.1461,-2.1918,-2.2542,-2.2852,-2.2852,-2.2927,-2.3001,-2.3023,-2.3318,-2.3733,-2.4235,-2.4933,-2.5569,-2.6248,-2.6614,-2.7115,-2.7603,-2.8426,-2.9213,-2.9922,-3.0921,-3.1556,-3.2036,-3.2182,-3.2182,-3.2182,-3.2182,-3.2182,-3.2182,-3.2182,-3.2182,-3.2182,-3.2182,-3.2372,-3.2903,-3.4192,-3.4714,-3.537,-3.6631,-3.7074,-3.7254,-3.7329,-3.7405,-3.748,-3.748,-3.7717,-3.7891,-3.7891,-3.8254,-3.8239,-3.7559,-3.7733,-3.816,-3.8839,-3.9171,-3.9819,-4.0925,-4.1004,-4.0863,-4.0547,-4.072,-4.0954,-4.12,-4.2048,-4.2577,-4.2713,-4.3277,-4.3628,-4.3628,-4.3628,-4.3628,-0.2023,-0.2754,-0.3477,-0.48,-0.5331,-0.5813,-0.6686,-0.7244,-0.7746,-0.7942,-0.8237,-0.8432,-0.8432,-0.8832,-0.9178,-0.9099,-0.9248,-0.9362,-0.9372,-1.0426,-1.0963,-1.0329,-1.2954,-1.4576,-1.3925,-1.5481,-1.663,-1.6869,-1.6747,-1.673,-1.673,-1.673,-1.673,-1.673,-1.7147,-1.7473,-1.7563,-1.8371,-1.9381,-2.0575,-2.1078,-2.1852,-2.3001,-2.3001,-2.3001,-2.3001,-2.3001,-2.3001,-2.3001,-2.3001,-2.3285,-2.3853,-2.4726,-2.5453,-2.6005,-2.6909,-2.7534,-2.8122,-2.9328,-3.0012,-3.0469,-3.179,-3.2182,-3.2182,-3.2182,-3.2182,-3.2182,-3.2182,-3.2182,-3.2182,-3.2182,-3.2241,-3.2241,-3.2314,-3.2761,-3.3492,-3.438,-3.5175,-3.5946,-3.6997,-3.7194,-3.727,-3.748,-3.748,-3.748,-3.748,-3.8065,-3.8491,-3.8428,-3.8476,-3.827,-3.7638,-3.8144,-3.8807,-3.9534,-4.0214,-4.0893,-4.1541,-4.1654,-4.1785,-4.2109,-4.2174,-4.2429,-4.3113,-4.3113,-4.3312,-4.3628,-4.3628,-4.3628,-4.3628,-4.3628,-4.3628,-0.2541,-0.3513,-0.4601,-0.5162,-0.6062,-0.6927,-0.7304,-0.7643,-0.7842,-0.7743,-0.8038,-0.8432,-0.8627,-0.8931,-0.9178,-0.9288,-0.9242,-0.9181,-0.9266,-0.9562,-0.9995,-1.0782,-1.2244,-1.3452,-1.4235,-1.5464,-1.6277,-1.6503,-1.6613,-1.673,-1.673,-1.673,-1.6902,-1.7229,-1.731,-1.7725,-1.8371,-1.9073,-1.9991,0.0,-2.1624,-2.2327,-2.3001,-2.3001,-2.3001,-2.3001,-2.3001,-2.3001,-2.3001,-2.3001,-2.3435,-2.4236,-2.4881,-2.5835,-2.6892,-2.7509,-2.803,-2.8498,-2.9716,-3.0241,-3.0469,-3.179,-3.2182,-3.2182,-3.2182,-3.2182,-3.2182,-3.2182,-3.2182,-3.2182,-3.2182,-3.2372,-3.2704,-3.3101,-3.3297,-3.3644,-3.4461,-3.534,-3.6244,-3.7042,-3.7329,-3.7464,-3.748,-3.748,-3.748,-3.748,-3.8065,-3.8318,-3.7765,-3.8175,-3.846,-3.8302,-3.8428,-3.9013,-4.0261,-4.0514,-4.0893,-4.1541,-4.1851,-4.2158,-4.2459,-4.2459,-4.2648,-4.3096,-4.3372,-4.3509,-4.3628,-4.3628,-4.3628,-4.3628,-4.3628,-4.3628,-0.2953,-0.3861,-0.4863,-0.5855,-0.6739,-0.7444,-0.7547,-0.7942,-0.8137,-0.8038,-0.8333,-0.863,-0.8931,-0.9229,-0.9347,-0.9275,-0.9247,-0.9276,-0.9268,-0.9319,-0.9694,-1.0467,-1.1912,-1.3099,-1.3789,-1.5311,-1.6319,-1.6566,-1.6648,-1.673,-1.673,-1.6902,-1.7147,-1.7392,-1.7797,-1.821,-1.87,-1.946,-2.0304,-2.1242,-2.1787,-2.2402,-2.3001,-2.3001,-2.3001,-2.3001,-2.3224,-2.315,-2.3001,-2.3446,-2.3895,-2.4388,-2.5344,-2.6236,-2.7219,-2.7921,-2.8351,-2.8657,-2.9871,-3.0317,-3.0469,-3.179,-3.2182,-3.2182,-3.2182,-3.2182,-3.2182,-3.2182,-3.2182,-3.2255,-3.2372,-3.2574,-3.2903,-3.3561,-3.4041,-3.4432,-3.516,-3.5993,-3.6768,-3.7254,-3.7405,-3.748,-3.748,-3.748,-3.7591,-3.7923,-3.8002,-3.8002,-3.7986,-3.8286,-3.8507,-3.8507,-3.9108,-3.9803,-4.0546,-4.0893,-4.129,-4.1835,-4.198,-4.2285,-4.2851,-4.2834,-4.2974,-4.3355,-4.3492,-4.3628,-4.3628,-4.3628,-4.3628,-4.3628,-4.3628,-4.3628,-0.3152,-0.4048,-0.5015,-0.6587,-0.7244,-0.7646,-0.7743,-0.8038,-0.8432,-0.8535,-0.873,-0.8928,-0.9133,-0.943,-0.9522,-0.9194,-0.9299,-0.9342,-0.9363,-0.9454,-0.9777,-1.0207,-1.1912,-1.3099,-1.3522,-1.5296,-1.6476,-1.6656,-1.673,-1.673,-1.682,-1.7229,-1.7473,-1.7635,-1.829,-1.87,-1.8772,-1.9696,-2.0547,-2.1242,-2.1939,-2.2553,-2.3001,-2.3001,-2.3001,-2.3001,-2.3372,-2.3372,-2.315,-2.3824,-2.4221,-2.4503,-2.5768,-2.6641,-2.7179,-2.8124,-2.859,-2.8816,-2.9947,-3.0393,-3.0633,-3.179,-3.2182,-3.2182,-3.2182,-3.2182,-3.2182,-3.2241,-3.2314,-3.2372,-3.2704,-3.2903,-3.3241,-3.4027,-3.4832,-3.5499,-3.5978,-3.6707,-3.7329,-3.748,-3.748,-3.748,-3.748,-3.748,-3.767,-3.8254,-3.7844,-3.7733,-3.8428,-3.8507,-3.8602,-3.8855,-3.9898,-4.064,-4.0751,-4.1272,-4.172,-4.198,-4.2109,-4.2412,-4.2974,-4.3113,-4.3312,-4.3568,-4.3628,-4.3628,-4.3628,-4.3628,-4.3628,-4.3628,-4.3628,-4.3628,-0.2809,-0.4293,-0.6005,-0.7208,-0.7547,-0.7743,-0.8237,-0.8333,-0.8531,-0.9034,-0.9133,-0.9133,-0.9236,-0.943,-0.9559,-0.9352,-0.9378,-0.9393,-0.9457,-0.954,-0.9946,-1.0982,-1.2254,-1.3438,-1.4448,-1.5628,-1.6476,-1.6656,-1.673,-1.6894,-1.731,-1.7392,-1.7725,-1.8531,-1.862,-1.8851,-1.9231,-1.9854,-2.0547,-2.1242,-2.2317,-2.2927,-2.3001,-2.3001,-2.3001,-2.3001,-2.3075,-2.3224,-2.353,-2.3677,-2.4089,-2.4844,-2.5855,-2.6581,-2.7076,-2.815,-2.8816,-2.9419,-3.0088,-3.062,-3.1233,-3.195,-3.2182,-3.2182,-3.2182,-3.2182,-3.2241,-3.2574,-3.2632,-3.2704,-3.3129,-3.3796,-3.4514,-3.5059,-3.5864,-3.643,-3.6166,-3.6845,-3.748,-3.748,-3.748,-3.748,-3.748,-3.748,-3.7512,-3.7607,-3.7543,-3.7733,-3.8428,-3.8507,-3.8981,-4.0198,-4.0498,-4.083,-4.1415,-4.1541,-4.1588,-4.1654,-4.2206,-4.2585,-4.2648,-4.3235,-4.3552,-4.3628,-4.3628,-4.3628,-4.3628,-4.3628,-4.3628,-4.3628,-4.3628,-4.3628,-0.3539,-0.4933,-0.6386,-0.7235,-0.7779,-0.8137,-0.8333,-0.8634,-0.8935,-0.9137,-0.9331,-0.943,-0.943,-0.9529,-0.9567,-0.9577,-0.9672,-0.9805,-0.9686,-1.0267,-1.0772,-1.0906,-1.2674,-1.4028,-1.4287,-1.5718,-1.6566,-1.6648,-1.673,-1.6894,-1.7392,-1.7635,-1.804,-1.87,-1.8922,-1.9152,-1.9301,-1.9932,-2.0702,-2.1711,-2.2542,-2.3001,-2.3001,-2.3224,-2.3372,-2.3372,-2.3593,-2.374,-2.397,-2.4383,-2.4611,-2.4895,-2.6143,-2.6772,-2.7055,-2.8126,-2.8882,-2.9496,-3.0101,-3.0696,-3.1307,-3.2009,-3.2182,-3.2255,-3.2444,-3.2503,-3.2574,-3.2917,-3.3058,-3.3129,-3.3479,-3.3879,-3.4423,-3.5464,-3.5991,-3.6368,-3.6799,-3.7194,-3.748,-3.748,-3.748,-3.748,-3.748,-3.748,-3.748,-3.748,-3.748,-3.7733,-3.8428,-3.8839,-3.9471,-4.0498,-4.0941,-4.1272,-4.1557,-4.1785,-4.198,-4.2174,-4.2601,-4.2974,-4.3174,-4.3432,-4.3628,-4.3628,-4.3628,-4.3628,-4.3628,-4.3628,-4.3628,-4.3628,-4.3628,-4.3396,-0.3989,-0.5059,-0.6032,-0.7098,-0.7708,-0.8236,-0.8576,-0.8935,-0.9236,-0.9335,-0.943,-0.9628,-0.9628,-0.9628,-0.9682,-0.9833,-0.9966,-1.0125,-1.0016,-1.0865,-1.143,-1.1342,-1.3228,-1.4538,-1.4629,-1.5891,-1.673,-1.673,-1.6812,-1.7066,-1.7554,-1.7959,-1.8362,-1.8851,-1.9152,-1.9301,-1.9301,-2.0079,-2.0934,-2.2014,-2.2767,-2.3224,-2.3298,-2.3604,-2.3824,-2.3897,-2.4116,-2.4273,-2.4418,-2.4969,-2.5123,-2.5289,-2.6426,-2.7007,-2.7248,-2.8174,-2.8961,-2.9716,-3.0165,-3.0784,-3.1542,-3.2023,-3.2241,-3.2372,-3.2632,-3.2775,-3.2917,-3.3339,-3.3409,-3.3479,-3.3839,-3.4045,-3.4423,-3.5593,-3.5976,-3.6368,-3.7285,-3.748,-3.748,-3.748,-3.748,-3.748,-3.748,-3.748,-3.748,-3.748,-3.748,-3.7733,-3.8428,-3.9092,-3.9787,-4.0514,-4.1259,-4.172,-4.172,-4.2045,-4.2302,-4.2555,-4.2912,-4.3235,-4.3432,-4.3552,-4.3628,-4.3628,-4.3628,-4.3628,-4.3628,-4.3628,-4.3628,-4.3628,-4.3628,-4.333,-0.3557,-0.4101,-0.4854,-0.6713,-0.7351,-0.7775,-0.8914,-0.9137,-0.9232,-0.9529,-0.9628,-0.9628,-0.9628,-0.9628,-0.9723,-0.9908,-1.0056,-1.0223,-1.0391,-1.0794,-1.1593,-1.2979,-1.3696,-1.4629,-1.6139,-1.6566,-1.673,-1.673,-1.7147,-1.7554,-1.7959,-1.8451,-1.8843,-1.9222,-1.9301,-1.9301,-1.9301,-2.0547,-2.1375,-2.1735,-2.2979,-2.3751,-2.4116,-2.4127,-2.4345,-2.4718,-2.4345,-2.4418,-2.479,-2.479,-2.5277,-2.6117,-2.6707,-2.7236,-2.7753,-2.8306,-2.9263,-3.0254,-3.0317,-3.1097,-3.2169,-3.2182,-3.2444,-3.2704,-3.2704,-3.2988,-3.3339,-3.3701,-3.377,-3.3839,-3.4264,-3.4721,-3.5234,-3.58,-3.6321,-3.6846,-3.7345,-3.748,-3.748,-3.748,-3.748,-3.748,-3.748,-3.748,-3.748,-3.748,-3.748,-3.7733,-3.8428,-3.9092,-3.9787,-4.0514,-4.1453,-4.2045,-4.2045,-4.2365,-4.2555,-4.2585,-4.2912,-4.3113,-4.3113,-4.3432,-4.3628,-4.3628,-4.3628,-4.3628,-4.3628,-4.3628,-4.3628,-4.3628,-4.3628,-4.3611,-0.3897,-0.4413,-0.5023,-0.6273,-0.7339,-0.8113,-0.8591,-0.9129,-0.9529,-0.9628,-0.9628,-0.9628,-0.9821,-1.0404,-1.0792,-1.031,-1.1507,-1.2363,-1.1752,-1.3072,-1.4076,-1.4167,-1.5385,-1.6361,-1.6619,-1.6946,-1.7163,-1.7414,-1.7442,-1.7725,-1.8371,-1.862,-1.8851,-1.9301,-1.9301,-1.946,-1.9844,-2.0779,-2.1548,-2.2371,-2.3213,-2.3824,-2.42,-2.449,-2.4646,-2.479,-2.4909,-2.4969,-2.5111,-2.5111,-2.529,-2.5673,-2.6586,-2.7055,-2.732,-2.8643,-2.9574,-3.0317,-3.0771,-3.1468,-3.2255,-3.2444,-3.2561,-3.2775,-3.3269,-3.3479,-3.3701,-3.4059,-3.4196,-3.4196,-3.4346,-3.4787,-3.5429,-3.6196,-3.6831,-3.7285,-3.748,-3.748,-3.748,-3.748,-3.748,-3.748,-3.748,-3.748,-3.748,-3.748,-3.7859,-3.8381,-3.906,-3.9771,-4.0467,-4.1162,-4.1577,-4.1785,-4.1785,-4.2109,-4.2349,-4.2585,-4.2912,-4.3174,-4.3432,-4.3568,-4.3628,-4.3628,-4.3628,-4.3628,-4.3628,-4.3628,-4.3628,-4.3628,-4.3628,-4.338,-0.4289,-0.4621,-0.4989,-0.6123,-0.7072,-0.7911,-0.8404,-0.9003,-0.9464,-0.9551,-0.9628,-0.9821,-0.992,-1.1277,-1.195,-1.0703,-1.1863,-1.2673,-1.2342,-1.3567,-1.4562,-1.4553,-1.5707,-1.6544,-1.6712,-1.6967,-1.736,-1.8033,-1.7946,0.0,-1.8887,-1.8923,-1.8993,-1.9301,-1.9301,-1.9618,-2.0157,-2.1001,-2.1918,-2.2916,-2.3666,-2.4189,-2.4611,-2.4838,-2.4992,-2.4992,-2.5182,-2.5312,-2.5312,-2.5312,-2.5528,-2.5925,-2.6647,-2.7215,-2.7843,-2.9003,-2.9947,-3.0696,-3.122,-3.1836,-3.2444,-3.2775,-3.2988,-3.3129,-3.3632,-3.3908,-3.4059,-3.4346,-3.4414,-3.4414,-3.4414,-3.4905,-3.5672,-3.6523,-3.7105,-3.748,-3.748,-3.748,-3.748,-3.748,-3.767,-3.7749,-3.7512,-3.7859,-3.8081,-3.7859,-3.8412,-3.9013,-3.9439,-4.0151,-4.0767,-4.1209,-4.1593,-4.1785,-4.1785,-4.2174,-4.2539,-4.2772,-4.3096,-4.3372,-4.3568,-4.3628,-4.3628,-4.3628,-4.3628,-4.3628,-4.3628,-4.3628,-4.3628,-4.3628,-4.3628,-4.3363,0.0,0.0,0.0,-0.6271,-0.6698,-0.7074,-0.8424,-0.8905,-0.9105,-0.9544,-0.987,-1.0075,-1.0109,-1.2145,-1.3204,-1.1287,-1.0998,-1.1194,-1.1975,-1.2278,-1.2974,-1.4068,-1.4396,-1.5143,-1.6581,-1.675,-1.7262,-1.849,-1.8566,-1.8854,-1.9286,-1.9308,-1.9311,-1.9301,-1.9301,-1.9618,-2.0157,-2.1211,-2.2264,-2.3327,-2.4334,-2.4992,-2.5312,-2.5312,-2.5312,-2.5312,-2.5312,-2.5312,-2.5312,-2.5324,-2.5949,-2.6911,-2.6923,-2.7944,-2.9394,-2.9394,-3.0165,-3.122,-3.1649,-3.2173,-3.2775,-3.3199,-3.3548,-3.377,-3.3839,-3.4059,-3.4414,-3.4414,-3.4414,-3.4414,-3.4414,-3.5169,-3.6054,-3.6585,-3.7089,-3.748,-3.748,-3.748,-3.748,-3.748,-3.8033,-3.8302,-3.7622,-3.8618,-3.9281,-3.8634,-3.9108,-3.9534,-3.9534,-4.0166,-4.0625,-4.0625,-4.1533,-4.2109,-4.2109,-4.2726,-4.3096,-4.3113,-4.3432,-4.3568,-4.3628,-4.3628,-4.3628,-4.3628,-4.3628,-4.3628,-4.3628,-4.3628,-4.3628,-4.3628,-4.3628,-4.3628,-0.6028,0.0,0.0,0.0,0.0,0.0,-0.7973,-0.8359,-0.9083,-1.0377,-1.074,-1.1221,-1.2527,-1.3392,-1.3782,-1.3596,-1.4364,-1.4561,-1.3227,-1.4315,-1.5497,-1.6341,-1.6636,-1.7139,-1.817,-1.8311,-1.8604,0.0,-1.947,-1.976,-2.0189,-1.9889,-1.9613,-1.9311,-1.9301,-1.9618,-2.0157,-2.1211,-2.2264,-2.3327,-2.4334,-2.4992,-2.5312,-2.5312,-2.5312,-2.5312,-2.5312,-2.5312,-2.5336,-2.5721,-2.6057,-2.637,-2.6779,-2.7484,-2.8451,-2.9189,-3.0046,-3.0908,-3.2028,-3.2547,-3.2846,-3.3479,-3.3701,-3.3839,-3.4128,-3.4346,-3.4414,-3.4414,-3.4414,-3.4534,-3.5285,-3.5657,-3.6117,-3.7029,-3.7405,-3.748,-3.748,-3.748,-3.748,-3.748,-3.8033,-3.8444,-3.8254,-3.8934,-3.9439,-3.925,-3.9835,-4.0293,-4.0293,-4.0893,-4.145,-4.1645,-4.1933,-4.2238,-4.2459,-4.2648,-4.2834,-4.3096,-4.3174,-4.3372,-4.3568,-4.3628,-4.3628,-4.3628,-4.3628,-4.3628,-4.3628,-4.3628,-4.3628,-4.3628,-4.3628,-4.3628,-0.7058,-0.7129,-0.7033,-0.7182,0.0,0.0,-0.8224,-0.8607,-0.9414,-1.1069,-1.1554,-1.2076,-1.3613,-1.4453,-1.4841,-1.4651,-1.5615,-1.6001,-1.4657,-1.5324,-1.6285,-1.6951,-1.7138,-1.7606,-1.8535,-1.872,-1.9142,-2.0145,-2.0131,-2.0112,-2.0208,-2.0053,-1.9742,-1.932,-1.9301,-1.9618,-2.0157,-2.1354,-2.2414,-2.3327,-2.4455,-2.5111,-2.5312,-2.5312,-2.5312,-2.5312,-2.5312,-2.5312,-2.5348,-2.5877,-2.6238,-2.6454,-2.655,-2.7466,-2.882,-2.9474,-3.0351,-3.1429,-3.269,-3.3129,-3.3269,-3.3839,-3.4059,-3.4059,-3.4346,-3.4414,-3.4414,-3.4414,-3.4414,-3.4601,-3.5657,-3.5913,-3.618,-3.721,-3.748,-3.748,-3.748,-3.748,-3.748,-3.748,-3.827,-3.8839,-3.8555,-3.955,-4.0277,-3.9993,-4.0561,-4.102,-4.102,-4.1351,-4.1654,-4.1851,-4.1916,-4.2045,-4.2349,-4.2522,-4.271,-4.3096,-4.3235,-4.3372,-4.3568,-4.3628,-4.3628,-4.3628,-4.3628,-4.3628,-4.3628,-4.3628,-4.3628,-4.3628,-4.3628,-4.3628,-0.7929,-0.7819,-0.7594,-0.7825,-0.7951,0.0,-0.8812,-0.9109,-0.9719,-1.1444,-1.1935,-1.242,-1.3505,-1.4865,-1.5545,-1.4609,-1.5424,-1.6085,-1.5873,-1.5798,-1.5994,-1.6676,-1.6676,-1.7232,-1.8434,-1.8611,-1.9255,-2.0907,-2.0678,-2.0431,-2.0017,-2.0063,-1.987,-1.9448,-1.9439,-1.965,-2.0156,-2.1655,-2.2681,-2.3243,-2.4647,-2.5312,-2.5312,-2.5312,-2.5312,-2.5312,-2.5312,-2.5312,-2.5348,-2.5817,-2.6346,-2.6803,-2.6358,-2.7606,-2.963,-2.9873,-3.0864,-3.22,-3.3269,-3.3701,-3.3839,-3.4264,-3.4414,-3.4414,-3.4414,-3.4414,-3.4414,-3.4414,-3.4414,-3.4721,-3.5657,-3.5913,-3.6243,-3.7285,-3.748,-3.748,-3.748,-3.748,-3.748,-3.748,-3.8507,-3.9234,-3.8713,-4.0214,-4.1304,-4.0783,-4.1209,-4.1588,-4.1588,-4.1588,-4.1588,-4.1654,-4.1654,-4.1785,-4.2109,-4.2476,-4.2772,-4.3096,-4.3432,-4.3628,-4.3628,-4.3628,-4.3628,-4.3628,-4.3628,-4.3628,-4.3628,-4.3628,-4.3628,-4.3628,-4.3628,-4.3628,-0.9021,-0.9148,-0.8939,-0.9055,-0.895,0.0,-0.8716,-0.8294,-0.8505,-1.0457,-1.0654,-1.0894,-1.2476,-1.3355,-1.3762,-1.3739,-1.5196,-1.6159,-1.5819,-1.5615,-1.5994,-1.7318,-1.7505,-1.7971,-1.9271,-1.9729,-2.0184,-2.0907,-2.1293,-2.1313,-2.0906,-2.0879,-2.0695,-2.0292,-2.0283,-2.02,-2.0202,-2.1883,-2.2766,-2.2787,-2.4492,-2.5312,-2.5312,-2.5312,-2.5312,-2.5312,-2.5312,-2.5382,-2.5548,-2.5645,-2.6008,-2.653,-2.6845,-2.7716,-2.89,-2.9338,-3.0377,-3.1736,-3.2618,-3.3269,-3.3839,-3.4264,-3.4414,-3.4414,-3.4414,-3.4414,-3.4414,-3.4414,-3.4721,-3.5169,-3.5721,-3.6243,-3.6708,-3.7345,-3.748,-3.748,-3.748,-3.748,-3.748,-3.748,-3.8144,-3.8839,-3.9234,-4.0135,-4.0925,-4.1336,-4.1509,-4.1588,-4.1588,-4.1588,-4.172,-4.198,-4.198,-4.2109,-4.2492,-4.2789,-4.3035,-4.3113,-4.3432,-4.3628,-4.3628,-4.3628,-4.3628,-4.3628,-4.3628,-4.3628,-4.3628,-4.3628,-4.3628,-4.3628,-4.3628,-4.3628,-0.9297,-0.9348,-0.9298,-0.9538,-0.9389,0.0,0.0,-0.9229,-0.9296,-1.0763,-1.1207,-1.1646,-1.2611,-1.3405,-1.3962,-1.4079,-1.5133,-1.5795,-1.5564,-1.6455,-1.7412,-1.8164,-1.8257,-1.8627,-1.9546,-2.0011,-2.0564,-2.1275,-2.1553,-2.1548,-2.1126,-2.1108,-2.0924,-2.053,-2.0521,-2.0403,-2.0161,-2.2015,-2.2775,-2.2627,-2.4409,-2.5312,-2.5312,-2.5312,-2.5312,-2.5312,-2.5382,-2.5535,-2.5606,-2.5688,-2.5987,-2.634,-2.6467,-2.7361,-2.8637,-2.903,-3.0249,-3.1942,-3.2676,-3.3465,-3.4128,-3.4346,-3.4414,-3.4414,-3.4414,-3.4414,-3.4414,-3.4414,-3.4601,-3.4971,-3.5721,-3.6117,-3.6507,-3.7285,-3.748,-3.748,-3.748,-3.748,-3.748,-3.748,-3.7765,-3.8318,-3.9329,-4.0103,-4.083,-4.1494,-4.1588,-4.1588,-4.1588,-4.1588,-4.1654,-4.1851,-4.1851,-4.2029,-4.2539,-4.2726,-4.299,-4.3312,-4.3492,-4.3628,-4.3628,-4.3628,-4.3628,-4.3628,-4.3628,-4.3628,-4.3628,-4.3628,-4.3628,-4.3628,-4.3628,-4.3628,-0.9444,-0.9425,-0.9527,-0.9872,-0.9738,-0.9692,0.0,0.0,0.0,-1.1047,-1.1713,-1.2166,-1.253,-1.3394,-1.4007,-1.409,-1.472,-1.516,-1.5151,-1.6894,-1.8143,-1.8072,-1.8595,-1.9058,-1.9326,-1.9972,-2.0757,-2.1624,-2.1614,-2.142,-2.1227,-2.1227,-2.108,-2.0759,-2.075,-2.0642,-2.0484,-2.2269,-2.3129,-2.2983,-2.4679,-2.5456,-2.5456,-2.536,-2.5312,-2.5382,-2.5535,-2.5606,-2.5758,-2.591,-2.605,-2.6283,-2.6161,-2.7063,-2.8562,-2.886,-3.0296,-3.2218,-3.2791,-3.3604,-3.4414,-3.4414,-3.4414,-3.4414,-3.4414,-3.4414,-3.4414,-3.4414,-3.4534,-3.4854,-3.5672,-3.6039,-3.643,-3.727,-3.748,-3.748,-3.748,-3.748,-3.748,-3.748,-3.7575,-3.8065,-3.9281,-3.9993,-4.0656,-4.1462,-4.1588,-4.1588,-4.1588,-4.1588,-4.1588,-4.1588,-4.1588,-4.1835,-4.2459,-4.2555,-4.2883,-4.3492,-4.3552,-4.3628,-4.3628,-4.3628,-4.3628,-4.3628,-4.3628,-4.3628,-4.3628,-4.3628,-4.3628,-4.3628,-4.3628,-4.3628,-1.0154,-1.0287,-1.0297,-1.049,-1.0428,-1.0294,-1.0118,0.0,-0.9295,-1.0157,0.0,-1.0033,-1.0669,0.0,0.0,-1.1905,-1.3084,-1.4131,-1.4444,-1.5515,-1.6017,-1.5411,-1.7828,-1.9272,-1.8514,-1.9715,-2.0866,-2.1621,-2.1094,-2.0957,-2.1585,-2.1667,-2.1649,-2.1603,-2.1594,-2.1577,-2.1608,-2.3298,-2.4121,-2.4235,-2.5401,-2.6009,-2.5997,-2.5528,-2.5382,-2.5535,-2.5606,-2.5828,-2.6131,-2.6131,-2.627,-2.6515,-2.6768,-2.7379,-2.8247,-2.8736,-3.0299,-3.2074,-3.2218,-3.3171,-3.4414,-3.4414,-3.4414,-3.4414,-3.4414,-3.4414,-3.4414,-3.4414,-3.5037,-3.5785,-3.5849,-3.6631,-3.7345,-3.748,-3.748,-3.748,-3.748,-3.748,-3.748,-3.748,-3.797,-3.8634,-3.9376,-3.9566,-4.0072,-4.1399,-4.1588,-4.1588,-4.1588,-4.1588,-4.1588,-4.1588,-4.1588,-4.172,-4.2109,-4.2429,-4.2743,-4.3113,-4.3432,-4.3628,-4.3628,-4.3628,-4.3628,-4.3628,-4.3628,-4.3628,-4.3628,-4.3628,-4.3628,-4.3628,-4.3628,-4.3628,-0.9955,-1.0417,-1.0761,-1.0663,-1.1059,-1.1384,-1.1094,0.0,-1.1144,-1.1378,0.0,0.0,0.0,0.0,0.0,0.0,-1.3193,-1.3684,-1.3411,-1.5164,-1.6224,-1.5625,0.0,0.0,-1.9049,-1.9762,-2.0576,-2.1603,-2.0995,-2.0938,-2.1649,-2.1741,-2.1741,-2.1741,-2.1741,-2.1725,-2.1835,-2.3451,-2.4143,-2.3962,-2.544,-2.5937,-2.5636,-2.5408,-2.5382,-2.5618,-2.5688,-2.591,-2.6213,-2.6339,-2.6396,-2.6515,-2.6984,-2.7535,-2.8134,-2.836,-2.9709,-3.1489,-3.1928,-3.2791,-3.3742,-3.4264,-3.4414,-3.4414,-3.4414,-3.4414,-3.4467,-3.4787,-3.5169,-3.5608,-3.6196,-3.6708,-3.7089,-3.7421,-3.748,-3.748,-3.748,-3.748,-3.748,-3.748,-3.7717,-3.8254,-3.9329,-3.985,-4.0467,-4.1446,-4.1588,-4.1588,-4.1588,-4.1588,-4.1588,-4.1588,-4.1588,-4.172,-4.2045,-4.2238,-4.2555,-4.3052,-4.3432,-4.3628,-4.3628,-4.3628,-4.3628,-4.3628,-4.3628,-4.3628,-4.3628,-4.3628,-4.3628,-4.3628,-4.3628,-4.3628,-1.0356,0.0,-1.1272,0.0,0.0,0.0,0.0,0.0,0.0,0.0,-1.2828,0.0,0.0,0.0,-1.3027,-1.3198,0.0,-1.3516,-1.3202,-1.4877,-1.5918,-1.5256,0.0,0.0,0.0,-1.9472,-1.998,-2.1239,-2.0683,-2.0673,-2.1621,-2.1741,-2.1741,-2.1741,-2.1731,-2.1859,-2.1996,-2.3729,-2.4448,-2.4246,-2.5611,-2.6129,-2.5745,-2.5444,-2.5465,-2.5688,-2.5828,-2.605,-2.627,-2.6465,-2.6533,-2.6584,-2.7067,-2.762,-2.8122,-2.8285,-2.9423,-3.1044,-3.1783,-3.272,-3.3604,-3.4196,-3.4414,-3.4414,-3.4414,-3.4414,-3.4534,-3.5037,-3.5299,-3.5608,-3.6461,-3.6785,-3.7029,-3.7421,-3.748,-3.748,-3.748,-3.748,-3.748,-3.748,-3.778,-3.8349,-3.9329,-3.9945,-4.0593,-4.1462,-4.1588,-4.1588,-4.1588,-4.1588,-4.1588,-4.1588,-4.1588,-4.1785,-4.2174,-4.2238,-4.2539,-4.3174,-4.3492,-4.3628,-4.3628,-4.3628,-4.3628,-4.3628,-4.3628,-4.3628,-4.3628,-4.3628,-4.3628,-4.3628,-4.3628,-4.3628,0.0,0.0,0.0,-1.1808,0.0,0.0,0.0,0.0,-1.2267,0.0,0.0,0.0,0.0,-1.3072,-1.3233,-1.3692,-1.3444,0.0,0.0,-1.4374,-1.3912,-1.3069,-1.5141,0.0,0.0,-1.8592,-1.8833,-2.0342,-1.9737,-2.0048,-2.1646,-2.1741,-2.1741,-2.1741,-2.1919,-2.2176,-2.2422,-2.4447,-2.5535,-2.5742,-2.6508,-2.6899,-2.6851,-2.5793,-2.5535,-2.591,-2.591,-2.6107,-2.6465,-2.6533,-2.6533,-2.6584,-2.7067,-2.762,-2.8172,-2.8699,-2.9755,-3.1044,-3.1783,-3.3101,-3.4346,-3.4414,-3.4414,-3.4414,-3.4414,-3.4414,-3.4534,-3.5037,-3.5544,-3.5991,-3.6585,-3.7105,-3.748,-3.748,-3.748,-3.748,-3.748,-3.748,-3.748,-3.748,-3.8539,-3.9455,-3.9487,-3.9518,-4.0008,-4.1383,-4.1588,-4.1588,-4.1588,-4.1588,-4.1588,-4.1588,-4.1588,-4.1851,-4.2508,-4.2601,-4.2851,-4.3552,-4.3568,-4.3628,-4.3628,-4.3628,-4.3628,-4.3628,-4.3628,-4.3628,-4.3628,-4.3628,-4.3628,-4.3628,-4.3628,-4.3628,0.0,0.0,-1.2785,-1.2135,0.0,0.0,0.0,0.0,0.0,0.0,0.0,0.0,0.0,-1.4604,-1.4771,-1.5024,-1.4337,-1.3898,0.0,-1.4088,-1.4312,-1.5311,-1.6276,-1.7276,0.0,0.0,-1.9375,-2.0466,-2.0307,-2.0625,-2.1612,-2.1741,-2.1741,-2.1919,-2.2008,-2.252,-2.3541,-2.4808,-2.5749,-2.6186,-2.7054,-2.7079,-2.637,-2.5997,-2.5863,-2.591,-2.591,-2.6119,-2.6533,-2.6533,-2.6747,-2.7055,-2.7607,-2.816,-2.8674,-2.8863,-2.9429,-3.0355,-3.1649,-3.3101,-3.4414,-3.4414,-3.4414,-3.4414,-3.4414,-3.4414,-3.4601,-3.5415,-3.58,-3.6117,-3.7029,-3.7345,-3.748,-3.748,-3.748,-3.748,-3.748,-3.748,-3.748,-3.748,-3.7844,-3.8318,-3.8776,-3.9218,-3.9977,-4.1383,-4.1588,-4.1588,-4.1588,-4.1588,-4.1588,-4.1588,-4.1785,-4.2045,-4.2238,-4.2664,-4.3035,-4.3235,-4.3492,-4.3628,-4.3628,-4.3628,-4.3628,-4.3628,-4.3628,-4.3628,-4.3628,-4.3628,-4.3628,-4.3628,-4.3628,-4.3628,-1.2739,-1.308,0.0,-1.277,-1.3933,0.0,-1.4205,0.0,-1.5347,0.0,0.0,0.0,0.0,0.0,-1.4923,-1.475,-1.4273,-1.3953,0.0,-1.4212,-1.4827,-1.6233,-1.6381,-1.6804,-1.7909,-1.79,-1.8369,-1.9655,-1.9773,-2.0183,-2.1062,0.0,-2.1919,-2.2185,-2.2274,-2.2872,-2.4049,-2.5062,-2.6008,-2.6691,-2.7399,-2.7356,-2.6659,-2.6347,-2.6214,-2.6181,-2.6066,-2.6188,-2.6533,-2.6533,-2.6791,-2.7344,-2.7896,-2.8448,-2.895,-2.9164,-2.9606,-3.0343,-3.1649,-3.2946,-3.4045,-3.4346,-3.4414,-3.4414,-3.4414,-3.4414,-3.4601,-3.5608,-3.5913,-3.618,-3.721,-3.748,-3.748,-3.748,-3.748,-3.748,-3.748,-3.748,-3.748,-3.748,-3.767,-3.8065,-3.8744,-3.9439,-4.0198,-4.1099,-4.143,-4.1588,-4.1588,-4.1588,-4.1588,-4.1588,-4.1916,-4.2174,-4.2285,-4.2789,-4.3113,-4.3113,-4.3432,-4.3628,-4.3628,-4.3628,-4.3876,-4.439,-4.3893,-4.3876,-4.439,-4.3876,-4.3628,-4.3628,-4.3628,-4.3628]},{"header":{"parameterUnit":"m.s-1","parameterCategory":1,"la1":30.6,"la2":29.2853,"lo1":-89.7004,"lo2":-87.6739,"dy":0.0162,"dx":0.0183,"nx":112,"ny":82,"refTime":"2023-04-06T06:00:00:Z","depth":0,"parameterNumber":3,"parameterNumberName":"V-component_of_WINDS"},"data":[0.0,0.0,0.0,0.0,0.0,0.0,0.0,0.0,0.0,0.0,0.0,0.0,0.0,0.0,0.0,0.0,0.0,0.0,0.0,0.0,0.0,0.0,0.0,0.0,0.0,0.0,0.0,0.0,0.0,0.0,0.0,0.0,0.0,0.0,0.0,0.0,0.0,0.0,0.0,0.0,0.0,0.0,0.0,0.0,0.0,0.0,0.0,0.0,0.0,0.0,0.0,0.0,0.0,0.0,0.0,0.0,0.0,0.0,0.0,0.0,0.0,0.0,0.0,0.0,0.0,0.0,0.0,0.0,0.0,0.0,0.0,0.0,0.0,0.0,0.0,0.0,0.0,0.0,0.0,0.0,0.0,0.0,0.0,0.0,0.0,0.0,0.0,0.0,0.0,0.0,-3.4083,-3.5434,-3.643,-3.678,-3.6214,-3.5662,-3.4545,-3.2643,0.0,0.0,0.0,0.0,0.0,0.0,0.0,0.0,0.0,0.0,0.0,0.0,0.0,0.0,0.0,0.0,0.0,0.0,0.0,0.0,0.0,0.0,0.0,0.0,0.0,0.0,0.0,0.0,0.0,0.0,0.0,0.0,0.0,0.0,0.0,0.0,0.0,0.0,0.0,0.0,0.0,0.0,0.0,0.0,0.0,0.0,0.0,0.0,0.0,0.0,0.0,0.0,0.0,0.0,0.0,0.0,0.0,0.0,0.0,0.0,0.0,0.0,0.0,0.0,0.0,0.0,0.0,0.0,0.0,0.0,0.0,0.0,0.0,0.0,0.0,0.0,0.0,0.0,0.0,0.0,0.0,0.0,0.0,0.0,0.0,0.0,0.0,0.0,0.0,0.0,0.0,0.0,0.0,0.0,0.0,0.0,0.0,0.0,0.0,0.0,0.0,0.0,0.0,0.0,-3.373,-3.5238,-3.5616,-3.5619,-3.5517,-3.5276,-3.4408,-3.2643,0.0,0.0,0.0,0.0,0.0,0.0,0.0,0.0,0.0,0.0,0.0,0.0,0.0,0.0,0.0,0.0,0.0,0.0,0.0,0.0,0.0,0.0,0.0,0.0,0.0,0.0,0.0,0.0,0.0,0.0,0.0,0.0,0.0,0.0,0.0,0.0,0.0,0.0,0.0,0.0,0.0,0.0,0.0,0.0,0.0,0.0,0.0,0.0,0.0,0.0,0.0,0.0,0.0,0.0,0.0,0.0,0.0,0.0,0.0,0.0,0.0,0.0,0.0,0.0,0.0,0.0,0.0,0.0,0.0,0.0,0.0,0.0,0.0,0.0,0.0,0.0,0.0,0.0,0.0,0.0,0.0,0.0,0.0,0.0,0.0,0.0,0.0,0.0,0.0,0.0,0.0,0.0,0.0,0.0,0.0,0.0,0.0,0.0,0.0,0.0,0.0,0.0,0.0,-3.3914,-3.4587,-3.5339,-3.5427,-3.5357,-3.5218,-3.4831,-3.4109,-3.2977,-3.2443,0.0,0.0,0.0,0.0,0.0,0.0,0.0,0.0,0.0,0.0,0.0,0.0,0.0,0.0,0.0,0.0,0.0,0.0,0.0,0.0,0.0,0.0,0.0,0.0,0.0,0.0,0.0,0.0,0.0,0.0,0.0,0.0,0.0,0.0,0.0,0.0,0.0,0.0,0.0,0.0,0.0,0.0,0.0,0.0,0.0,0.0,0.0,0.0,0.0,0.0,0.0,0.0,0.0,0.0,0.0,0.0,0.0,0.0,0.0,0.0,0.0,0.0,0.0,0.0,0.0,0.0,0.0,0.0,0.0,0.0,0.0,0.0,0.0,0.0,0.0,0.0,0.0,0.0,0.0,0.0,0.0,0.0,0.0,0.0,0.0,0.0,0.0,0.0,0.0,0.0,0.0,0.0,0.0,0.0,0.0,0.0,0.0,0.0,0.0,0.0,0.0,0.0,-3.4051,-3.514,-3.514,-3.514,-3.5056,-3.4848,-3.4347,-3.3801,-3.3154,-3.2468,0.0,0.0,0.0,0.0,0.0,0.0,0.0,0.0,0.0,0.0,0.0,0.0,0.0,0.0,0.0,0.0,0.0,0.0,0.0,0.0,0.0,0.0,0.0,0.0,0.0,0.0,0.0,0.0,0.0,0.0,0.0,0.0,0.0,0.0,0.0,0.0,0.0,0.0,0.0,0.0,0.0,0.0,0.0,0.0,0.0,0.0,0.0,0.0,0.0,0.0,0.0,0.0,0.0,0.0,0.0,0.0,0.0,0.0,0.0,0.0,0.0,0.0,0.0,0.0,0.0,0.0,0.0,0.0,0.0,0.0,0.0,0.0,0.0,0.0,0.0,0.0,0.0,0.0,0.0,0.0,0.0,0.0,0.0,0.0,0.0,0.0,0.0,0.0,0.0,0.0,0.0,0.0,0.0,0.0,0.0,0.0,0.0,0.0,0.0,0.0,0.0,0.0,-3.3578,-3.4268,-3.4486,-3.4336,-3.42,-3.42,-3.4034,-3.3611,-3.2954,-3.256,0.0,0.0,0.0,0.0,0.0,0.0,0.0,0.0,0.0,0.0,0.0,0.0,0.0,0.0,0.0,0.0,0.0,0.0,0.0,0.0,0.0,0.0,0.0,0.0,0.0,0.0,0.0,0.0,0.0,0.0,0.0,0.0,0.0,0.0,0.0,0.0,0.0,0.0,0.0,0.0,0.0,0.0,0.0,0.0,0.0,0.0,0.0,0.0,0.0,0.0,0.0,0.0,0.0,0.0,0.0,0.0,0.0,0.0,0.0,0.0,0.0,0.0,0.0,0.0,0.0,0.0,0.0,0.0,0.0,0.0,0.0,0.0,0.0,0.0,0.0,0.0,0.0,0.0,0.0,0.0,0.0,0.0,0.0,0.0,0.0,0.0,0.0,0.0,0.0,0.0,0.0,0.0,0.0,0.0,0.0,0.0,0.0,0.0,0.0,0.0,0.0,0.0,-3.3298,-3.402,-3.4088,-3.402,-3.3937,-3.3799,-3.3744,-3.3575,-3.332,0.0,0.0,0.0,0.0,0.0,0.0,0.0,0.0,0.0,0.0,0.0,0.0,0.0,0.0,0.0,0.0,0.0,0.0,0.0,0.0,0.0,0.0,0.0,0.0,0.0,0.0,0.0,0.0,0.0,0.0,0.0,0.0,0.0,0.0,0.0,0.0,0.0,0.0,0.0,0.0,0.0,0.0,0.0,0.0,0.0,0.0,0.0,0.0,0.0,0.0,0.0,0.0,0.0,0.0,0.0,0.0,0.0,0.0,0.0,0.0,0.0,0.0,0.0,0.0,0.0,0.0,0.0,0.0,0.0,0.0,0.0,0.0,0.0,0.0,0.0,0.0,0.0,0.0,0.0,0.0,0.0,0.0,0.0,0.0,0.0,0.0,0.0,0.0,0.0,0.0,0.0,0.0,0.0,0.0,0.0,0.0,0.0,0.0,0.0,0.0,0.0,0.0,-3.2299,-3.3164,-3.3827,-3.3896,-3.3827,-3.3744,-3.3605,-3.3605,-3.3536,-3.3536,0.0,0.0,0.0,0.0,0.0,0.0,0.0,0.0,0.0,0.0,0.0,0.0,0.0,0.0,0.0,0.0,0.0,0.0,0.0,0.0,0.0,0.0,0.0,0.0,0.0,0.0,0.0,0.0,0.0,0.0,0.0,0.0,0.0,0.0,0.0,0.0,0.0,0.0,0.0,0.0,0.0,0.0,0.0,0.0,0.0,0.0,0.0,0.0,0.0,0.0,0.0,0.0,0.0,0.0,0.0,0.0,0.0,0.0,0.0,0.0,0.0,0.0,0.0,0.0,0.0,0.0,0.0,0.0,0.0,0.0,0.0,0.0,0.0,0.0,0.0,0.0,0.0,0.0,0.0,0.0,0.0,0.0,0.0,0.0,0.0,0.0,0.0,0.0,0.0,0.0,0.0,0.0,0.0,0.0,0.0,0.0,0.0,0.0,0.0,0.0,0.0,0.0,-3.2241,-3.3029,-3.3675,-3.3896,-3.3744,-3.3605,-3.3605,-3.3605,-3.3536,0.0,0.0,0.0,0.0,0.0,0.0,0.0,0.0,0.0,0.0,0.0,0.0,0.0,0.0,0.0,0.0,0.0,0.0,0.0,0.0,0.0,0.0,0.0,0.0,0.0,0.0,0.0,0.0,0.0,0.0,0.0,0.0,0.0,0.0,0.0,0.0,0.0,0.0,0.0,0.0,0.0,0.0,0.0,0.0,0.0,0.0,0.0,0.0,0.0,0.0,0.0,0.0,0.0,0.0,0.0,0.0,0.0,0.0,0.0,0.0,0.0,0.0,0.0,0.0,0.0,0.0,0.0,0.0,0.0,0.0,0.0,0.0,0.0,0.0,0.0,0.0,0.0,0.0,0.0,0.0,0.0,0.0,0.0,0.0,0.0,0.0,0.0,0.0,0.0,0.0,0.0,0.0,0.0,0.0,0.0,0.0,0.0,0.0,0.0,0.0,0.0,0.0,0.0,-3.1982,-3.2826,-3.3396,-3.3466,-3.3396,-3.3396,-3.3396,-3.3157,-3.2931,-3.286,0.0,0.0,0.0,0.0,0.0,0.0,0.0,0.0,0.0,0.0,0.0,0.0,0.0,0.0,0.0,0.0,0.0,0.0,0.0,0.0,0.0,0.0,0.0,0.0,0.0,0.0,0.0,0.0,0.0,0.0,0.0,0.0,0.0,0.0,0.0,0.0,0.0,0.0,0.0,0.0,0.0,0.0,0.0,0.0,0.0,0.0,0.0,0.0,0.0,0.0,0.0,0.0,0.0,0.0,0.0,0.0,0.0,0.0,0.0,0.0,0.0,0.0,0.0,0.0,0.0,0.0,0.0,0.0,0.0,0.0,0.0,0.0,0.0,0.0,0.0,0.0,0.0,0.0,0.0,0.0,0.0,0.0,0.0,0.0,0.0,0.0,0.0,0.0,0.0,0.0,0.0,0.0,0.0,0.0,0.0,0.0,0.0,0.0,0.0,0.0,0.0,0.0,-3.2245,-3.2899,-3.3326,-3.3326,-3.3326,-3.3326,-3.3326,-3.2931,-3.2704,-3.2704,0.0,0.0,0.0,0.0,0.0,0.0,0.0,0.0,0.0,0.0,0.0,0.0,0.0,0.0,0.0,0.0,0.0,0.0,0.0,0.0,0.0,0.0,0.0,0.0,0.0,0.0,0.0,0.0,0.0,0.0,0.0,0.0,0.0,0.0,0.0,0.0,0.0,0.0,0.0,0.0,0.0,0.0,0.0,0.0,0.0,0.0,0.0,0.0,0.0,0.0,0.0,0.0,0.0,0.0,0.0,0.0,0.0,0.0,0.0,0.0,0.0,0.0,0.0,0.0,0.0,0.0,0.0,0.0,0.0,0.0,0.0,0.0,0.0,0.0,0.0,0.0,0.0,0.0,0.0,0.0,0.0,0.0,0.0,0.0,0.0,0.0,0.0,0.0,0.0,0.0,0.0,0.0,0.0,0.0,0.0,0.0,0.0,0.0,0.0,0.0,0.0,0.0,-3.2839,-3.3125,-3.3326,-3.3326,-3.3326,-3.3241,-3.3241,-3.286,-3.2632,-3.2632,0.0,0.0,0.0,0.0,0.0,0.0,0.0,0.0,0.0,0.0,0.0,0.0,0.0,0.0,0.0,0.0,0.0,0.0,0.0,0.0,0.0,0.0,0.0,0.0,0.0,0.0,0.0,0.0,0.0,0.0,0.0,0.0,0.0,0.0,0.0,0.0,0.0,0.0,0.0,0.0,0.0,0.0,0.0,0.0,0.0,0.0,0.0,0.0,0.0,0.0,0.0,0.0,0.0,0.0,0.0,0.0,0.0,0.0,0.0,0.0,-2.3986,0.0,0.0,0.0,0.0,0.0,0.0,0.0,0.0,0.0,0.0,0.0,0.0,0.0,0.0,0.0,0.0,0.0,0.0,0.0,0.0,0.0,0.0,0.0,0.0,0.0,0.0,0.0,0.0,0.0,0.0,0.0,0.0,0.0,0.0,0.0,0.0,0.0,0.0,0.0,0.0,0.0,-3.2897,-3.3125,-3.3326,-3.3326,-3.3326,-3.3171,-3.2846,-3.2489,-3.2128,-3.185,-3.1482,0.0,0.0,0.0,0.0,0.0,0.0,0.0,0.0,0.0,0.0,0.0,0.0,0.0,0.0,0.0,0.0,0.0,0.0,0.0,0.0,0.0,0.0,0.0,0.0,0.0,0.0,0.0,0.0,0.0,0.0,0.0,0.0,0.0,0.0,0.0,0.0,0.0,0.0,0.0,0.0,0.0,0.0,0.0,0.0,0.0,0.0,0.0,0.0,0.0,0.0,0.0,0.0,0.0,0.0,0.0,0.0,0.0,0.0,0.0,0.0,-2.6901,0.0,0.0,0.0,0.0,0.0,0.0,0.0,0.0,0.0,0.0,0.0,0.0,0.0,0.0,0.0,0.0,0.0,0.0,0.0,0.0,0.0,0.0,0.0,0.0,0.0,0.0,0.0,0.0,0.0,0.0,0.0,0.0,0.0,0.0,0.0,0.0,0.0,0.0,0.0,0.0,-3.3203,-3.3101,-3.3016,-3.3016,-3.2874,-3.2646,-3.2417,-3.2055,-3.1776,-3.1629,-3.1123,0.0,0.0,0.0,0.0,0.0,0.0,0.0,0.0,0.0,0.0,0.0,0.0,0.0,0.0,0.0,0.0,0.0,0.0,0.0,0.0,0.0,0.0,0.0,0.0,0.0,0.0,0.0,0.0,0.0,0.0,0.0,0.0,0.0,0.0,0.0,0.0,0.0,0.0,0.0,0.0,0.0,0.0,0.0,0.0,0.0,0.0,0.0,0.0,0.0,0.0,0.0,0.0,0.0,-3.3845,-3.4144,-3.407,-3.5669,-3.6195,-3.5892,-3.6825,-3.4986,-3.1245,-3.0,0.0,0.0,0.0,0.0,0.0,0.0,0.0,0.0,0.0,0.0,0.0,0.0,0.0,0.0,0.0,0.0,0.0,0.0,0.0,0.0,0.0,0.0,0.0,0.0,-3.8544,-3.8432,0.0,0.0,0.0,0.0,0.0,0.0,0.0,0.0,0.0,0.0,0.0,0.0,-3.3534,-3.3157,-3.2775,-3.2704,-3.2417,-3.2128,-3.1982,-3.1776,-3.1556,-3.1408,-3.0986,-3.0698,0.0,0.0,0.0,0.0,0.0,0.0,0.0,0.0,0.0,0.0,0.0,0.0,0.0,0.0,0.0,0.0,0.0,0.0,0.0,0.0,0.0,0.0,0.0,0.0,0.0,0.0,0.0,0.0,0.0,0.0,0.0,0.0,-2.8169,-2.6048,0.0,0.0,0.0,0.0,0.0,0.0,0.0,0.0,0.0,0.0,0.0,0.0,0.0,-3.0707,-3.1051,-3.1566,-3.2249,-3.3137,-3.6826,-3.8411,-3.8257,-4.2699,-4.4557,-4.4361,-4.5517,0.0,-3.4353,-3.0261,0.0,0.0,0.0,0.0,0.0,0.0,0.0,0.0,0.0,0.0,0.0,0.0,0.0,0.0,0.0,0.0,0.0,0.0,0.0,0.0,0.0,0.0,-3.0644,-3.694,-3.8017,-3.7594,0.0,-3.7131,-3.6244,-3.4971,-3.4394,0.0,0.0,0.0,0.0,0.0,0.0,0.0,-3.3591,-3.3382,-3.3086,-3.2704,-3.2632,-3.2345,-3.1703,-3.1629,-3.1421,-3.0849,-3.0773,-3.0609,-3.0444,-3.0444,0.0,0.0,0.0,0.0,0.0,0.0,0.0,0.0,0.0,0.0,0.0,0.0,0.0,0.0,0.0,0.0,0.0,0.0,0.0,0.0,0.0,0.0,0.0,0.0,0.0,0.0,0.0,0.0,0.0,-2.4719,-2.6701,-2.2449,-2.3135,-2.2612,0.0,0.0,0.0,0.0,0.0,0.0,0.0,0.0,0.0,-2.6513,-3.2213,-3.5337,-3.5433,-3.8216,-3.9792,-4.0204,-4.2068,-4.2761,-4.2468,-4.5101,-4.6006,-4.5592,-4.7029,-4.5401,-4.1475,-3.7739,-3.4705,-3.2167,0.0,0.0,0.0,0.0,-2.7159,-2.6664,-2.7041,-2.6687,0.0,-2.5706,0.0,0.0,0.0,0.0,0.0,0.0,0.0,0.0,0.0,0.0,-3.2951,-3.7339,-3.7902,-3.7282,-3.6753,-3.6182,-3.5548,0.0,-3.4438,-3.4074,-3.4005,0.0,0.0,0.0,0.0,-3.3466,-3.3157,-3.2789,-3.2503,-3.2128,-3.1909,-3.1629,-3.1272,-3.1123,-3.0986,-3.0698,-3.047,-3.0305,-3.0228,-3.0152,-3.0011,0.0,0.0,0.0,0.0,0.0,0.0,0.0,0.0,0.0,0.0,0.0,0.0,0.0,0.0,0.0,0.0,0.0,0.0,0.0,0.0,0.0,0.0,0.0,0.0,0.0,0.0,0.0,0.0,-2.4771,-2.6833,-2.1001,-2.3573,-2.4284,0.0,0.0,0.0,0.0,0.0,0.0,-2.5777,-3.0073,-3.2232,-3.1596,-3.7075,-4.006,-4.0113,-4.3839,-4.5687,-4.5693,-4.5676,-4.5476,-4.5115,-4.5826,-4.5795,-4.5239,-4.6561,-4.6893,-4.6221,-4.3193,-3.9428,-3.5459,-3.4156,-3.2775,-3.1532,-3.1538,-3.1063,-3.0446,-3.0372,-2.9765,-2.8999,-2.8808,-2.8456,-2.8181,-2.8682,0.0,0.0,0.0,0.0,-2.5999,-2.9087,-3.1819,-3.45,-3.7367,-3.7519,-3.6707,-3.5978,-3.5305,-3.481,0.0,-3.4303,-3.3937,-3.3813,0.0,0.0,0.0,0.0,-3.3157,-3.2632,-3.2273,-3.1982,-3.1629,-3.1347,-3.1061,-3.0911,-3.0773,-3.0622,-3.0546,-3.0241,-3.0075,-3.0011,-2.9869,-2.9792,-2.9702,0.0,0.0,0.0,0.0,0.0,0.0,0.0,0.0,0.0,0.0,0.0,0.0,0.0,0.0,0.0,0.0,0.0,0.0,0.0,0.0,0.0,0.0,0.0,0.0,0.0,0.0,0.0,0.0,0.0,-2.8125,-2.9207,0.0,0.0,0.0,0.0,-2.9581,-2.9366,-2.9338,-3.0141,-3.4991,-3.7724,-3.776,-4.2671,-4.533,-4.533,-4.5571,-4.5709,-4.5693,-4.5568,-4.5381,-4.5094,-4.5526,-4.5517,-4.5124,-4.5679,-4.577,-4.5342,-4.2159,-4.0595,-3.9728,-3.5242,-3.2954,-3.2216,-3.2793,-3.2076,-3.0956,-3.1568,-3.082,-2.9555,-2.9555,-2.8887,-2.8066,-2.8059,-2.7898,0.0,0.0,-2.7557,-2.8534,-3.1994,-3.2837,-3.3515,-3.6432,-3.6446,-3.5563,-3.5073,-3.4452,-3.3882,0.0,-3.3675,-3.3605,-3.3605,0.0,-3.3241,-3.3058,-3.2846,-3.2632,-3.22,-3.2128,-3.1982,-3.1629,-3.1556,-3.1347,-3.0773,-3.0698,-3.0546,-3.0152,-3.0075,-3.0011,-2.9792,-2.9792,-2.9702,-2.9419,-2.9419,0.0,0.0,0.0,0.0,0.0,0.0,0.0,0.0,0.0,0.0,0.0,0.0,0.0,0.0,0.0,0.0,0.0,0.0,0.0,0.0,0.0,0.0,0.0,0.0,0.0,0.0,0.0,0.0,-3.2343,-3.4757,0.0,-3.123,-2.983,-2.9792,-3.1326,-3.419,-3.5989,-3.6281,-4.0584,-4.3059,-4.3038,-4.4774,-4.5706,-4.5706,-4.5603,-4.5568,-4.5568,-4.5476,-4.5182,-4.4726,-4.4783,-4.4505,-4.4042,-4.4602,-4.478,-4.4631,-4.3373,-4.2826,-4.2551,-4.0706,-3.9499,-3.8797,-3.877,-3.8081,-3.7146,-3.7113,-3.6374,-3.5399,-3.5298,-3.5034,-3.4315,-3.199,-3.1092,-3.0424,-2.811,-2.899,-3.0911,-3.2185,-3.4123,-3.5998,-3.7042,-3.6446,-3.5499,-3.527,-3.4438,-3.3675,-3.3466,-3.3536,-3.3536,-3.3466,-3.3157,-3.286,-3.2846,-3.2561,-3.22,-3.185,-3.1776,-3.1629,-3.1272,-3.1136,-3.0911,-3.0698,-3.047,-3.0228,-3.0075,-3.0011,-2.9869,-2.9792,-2.9611,-2.9509,-2.9419,-2.9184,-2.904,0.0,0.0,0.0,0.0,0.0,0.0,0.0,0.0,0.0,0.0,0.0,0.0,0.0,0.0,0.0,0.0,0.0,0.0,0.0,0.0,0.0,0.0,0.0,0.0,0.0,-3.1643,-3.5844,-3.4609,-3.7868,-3.9147,-3.6438,-3.5967,-3.6176,-3.7007,-4.0169,-4.195,-4.1643,-4.4253,-4.5754,-4.5703,-4.5673,-4.564,-4.564,-4.5513,-4.5476,-4.5477,-4.54,-4.5094,-4.4572,-4.4346,-4.3955,-4.3428,-4.3688,-4.383,-4.3772,-4.3595,-4.3476,-4.3476,-4.3319,-4.2834,-4.2264,-4.1977,-4.1356,-4.0528,-3.9902,-3.9169,-3.8504,-3.8464,-3.8391,-3.7954,-3.5469,-3.4571,-3.385,-3.1405,-3.2238,-3.388,-3.3934,-3.5467,-3.6921,-3.6784,-3.5882,-3.4993,-3.4743,-3.4045,-3.3466,-3.3326,-3.3396,-3.3382,-3.3157,-3.286,-3.2632,-3.2345,-3.2128,-3.1776,-3.1408,-3.1347,-3.1198,-3.0911,-3.0685,-3.0533,-3.047,-3.0228,-3.0075,-3.0011,-2.9869,-2.9792,-2.9702,-2.9599,-2.9431,-2.9184,-2.8882,-2.8736,-2.8895,0.0,0.0,0.0,0.0,0.0,0.0,0.0,0.0,0.0,0.0,0.0,0.0,0.0,0.0,0.0,0.0,0.0,0.0,0.0,0.0,0.0,0.0,0.0,-2.6073,-3.3991,-3.8688,-3.5463,-3.8762,-4.1583,-4.2359,-4.1641,-4.2819,-4.6902,-4.7163,-4.6746,-4.5838,-4.5742,-4.5693,-4.5693,-4.5568,-4.5495,-4.5495,-4.5438,-4.54,-4.5398,-4.5317,-4.5065,-4.4676,-4.4318,-4.3912,-4.3471,-4.3069,-4.288,-4.2783,-4.2584,-4.2503,-4.2503,-4.2503,-4.2264,-4.1874,-4.1874,-4.1311,-4.0431,-3.9365,-3.8711,-3.8391,-3.8391,-3.8391,-3.8335,-3.8001,-3.7886,-3.7828,-3.7476,-3.7358,-3.7358,-3.7358,-3.6799,-3.607,-3.5529,-3.4743,-3.3948,-3.3437,-3.3312,-3.3326,-3.3241,-3.3255,-3.3171,-3.2775,-3.2704,-3.2417,-3.1703,-3.1556,0.0,-3.1061,-3.0849,-3.0698,-3.0698,-3.0533,-3.0292,-3.0152,-3.0075,-2.9998,-2.9792,-2.9792,-2.9702,-2.9419,-2.9611,-2.9456,-2.8791,-2.8578,-2.851,-2.851,0.0,0.0,0.0,0.0,0.0,0.0,0.0,0.0,0.0,0.0,0.0,0.0,0.0,0.0,0.0,0.0,0.0,0.0,0.0,0.0,0.0,-3.1309,-3.6164,-3.5905,-3.9232,-4.2685,-4.5379,-4.6771,-4.7564,-4.7636,-4.8017,-4.7942,-4.7192,-4.7646,-4.731,-4.5808,-4.5706,-4.5693,-4.564,-4.5531,-4.5495,-4.5495,-4.5438,-4.5379,-4.5317,-4.5,-4.4669,-4.4318,-4.3893,-4.3456,-4.305,-4.29,-4.2765,-4.2667,-4.2526,-4.2503,-4.2463,-4.2163,-4.1977,-4.1874,-4.1525,-4.0737,-3.9749,-3.886,-3.8504,-3.8391,-3.8391,-3.8205,-3.8017,-3.7943,-3.761,-3.7225,-3.7165,-3.6907,-3.6723,-3.6723,-3.66,-3.6352,-3.6211,-3.5415,-3.461,-3.4491,-3.3839,-3.3241,-3.2931,-3.2846,-3.2846,-3.2704,-3.2273,-3.185,-3.1629,-3.1198,0.0,-3.0773,-3.0609,-3.0444,-3.0444,-3.0305,-3.0152,-3.0075,-2.9934,-2.9779,-2.9521,-2.9509,-2.9431,-2.9197,-2.9131,-2.8895,-2.8578,-2.851,-2.851,0.0,0.0,0.0,0.0,0.0,0.0,0.0,0.0,0.0,0.0,0.0,0.0,0.0,0.0,0.0,0.0,0.0,0.0,0.0,0.0,0.0,0.0,-3.5226,-4.123,-4.3802,-4.4979,-4.6651,-4.9554,-5.0222,-5.0407,-5.0306,-5.0732,-5.0059,-4.7777,-4.8041,-4.7545,-4.58,-4.5673,-4.564,-4.5586,-4.5513,-4.5476,-4.5476,-4.538,-4.5317,-4.5213,-4.4838,-4.4465,-4.4053,-4.3656,-4.3231,-4.2824,-4.2765,-4.2667,-4.2548,-4.2445,-4.2364,0.0,0.0,0.0,0.0,0.0,-4.0319,-3.9506,-3.886,-3.8432,-3.8205,-3.8205,-3.796,-3.7653,-3.7551,-3.7285,-3.6954,-3.6816,-3.6616,-3.6492,-3.6492,-3.6352,-3.6148,-3.6148,-3.535,-3.4543,-3.4327,-3.3673,-3.2945,-3.2561,-3.2345,0.0,-3.2273,-3.1909,-3.1556,-3.1347,-3.0986,-3.0698,-3.0698,-3.0457,-3.0292,-3.0292,-3.0075,-2.9934,-2.9934,-2.9767,0.0,0.0,0.0,-2.9197,-2.9131,-2.8816,0.0,0.0,0.0,-2.851,-2.851,0.0,0.0,0.0,-2.8243,-2.8268,0.0,0.0,0.0,0.0,0.0,0.0,0.0,0.0,0.0,0.0,0.0,0.0,0.0,0.0,0.0,0.0,-3.817,-4.3906,-4.9401,-5.0137,-5.0112,-5.0053,-5.0675,-5.1099,-5.1064,-5.0967,-5.0178,-4.8427,-4.8282,-4.7535,-4.5806,0.0,0.0,0.0,0.0,-4.54,-4.54,-4.5339,-4.5233,-4.5103,-4.472,-4.4308,-4.3881,-4.3508,-4.3124,-4.2783,-4.2649,-4.2548,-4.2463,-4.2305,-4.2103,-4.1831,-4.1831,-4.1719,-4.1426,-4.0583,-4.0003,-3.9558,-3.9115,0.0,0.0,-3.7886,-3.7594,-3.7314,-3.7044,-3.6938,-3.6877,-3.6554,-3.6492,-3.6492,-3.6492,-3.6163,-3.5816,-3.5816,-3.5023,-3.4138,-3.3782,-3.3311,-3.2775,-3.2273,-3.1909,-3.1703,-3.1556,-3.1556,-3.1421,-3.0986,-3.0761,-3.0698,-3.0622,-3.0318,-3.0075,-3.0075,0.0,0.0,-2.9779,-2.9521,-2.9341,-2.9341,-2.9118,-2.9052,-2.9052,-2.8669,-2.8578,-2.8724,-2.8578,-2.851,-2.851,-2.8259,-2.803,-2.7893,-2.8245,-2.8385,0.0,0.0,0.0,0.0,0.0,0.0,0.0,0.0,0.0,0.0,0.0,0.0,0.0,0.0,0.0,-3.3035,-4.1194,-4.8006,-4.9783,-5.0569,-5.0966,-5.0951,-5.1033,-5.1064,-5.0955,-5.0916,-5.0185,-4.8417,-4.8249,-4.7482,-4.5789,-4.564,-4.5568,-4.5513,-4.5438,-4.54,-4.5399,-4.5277,-4.517,-4.5103,0.0,0.0,-4.3881,-4.3232,-4.2786,-4.2649,-4.2566,-4.2445,-4.2346,-4.2061,-4.1744,-4.1346,-4.1346,-4.1226,-4.0965,-4.0485,-4.0003,-3.9489,-3.8849,-3.8311,-3.7886,-3.7578,-3.7314,-3.706,-3.7015,-3.6816,0.0,-3.6492,-3.6492,-3.6492,-3.6492,-3.6429,-3.6352,-3.6352,-3.5737,-3.5139,-3.5059,-3.4558,-3.377,-3.2775,-3.2561,-3.22,-3.1272,-3.1123,-3.1061,-3.0773,-3.0609,-3.0368,-3.0228,-3.0011,-2.9869,-2.9869,-2.9599,-2.9509,-2.9509,-2.9275,-2.9118,-2.8961,-2.8736,-2.859,-2.859,-2.851,-2.851,-2.8578,-2.8339,-2.8259,-2.8259,-2.7846,-2.7603,-2.7603,-2.7696,-2.7591,0.0,0.0,0.0,0.0,0.0,0.0,0.0,0.0,0.0,0.0,0.0,-2.5734,-2.5955,0.0,-3.6619,-3.7605,-4.4022,-4.9178,-4.9939,-5.0303,-5.0658,-5.1111,-5.1064,-5.0955,-5.0899,-5.0863,-5.0308,-4.9003,-4.8465,-4.7638,-4.6371,-4.5817,-4.5531,-4.5495,-4.5419,-4.54,-4.5398,-4.5275,-4.517,-4.5103,-4.4337,-4.3955,-4.3881,-4.3142,-4.2745,-4.2609,-4.2526,-4.2445,-4.2287,-4.1892,-4.1525,-4.1209,-4.1088,-4.1012,-4.0823,-4.0453,-3.9901,-3.9295,-3.8739,-3.8026,-3.7449,-3.727,-3.6984,-3.6754,-3.6754,-3.6616,-3.6492,-3.6492,-3.6492,-3.6492,-3.6492,-3.6492,-3.6492,-3.6352,-3.5864,-3.5335,-3.5073,-3.4558,-3.3894,-3.3101,-3.2676,-3.2173,-3.1529,-3.111,-3.0849,-3.0698,-3.0457,-3.0228,-3.0075,-2.9934,-2.9792,-2.9792,-2.9599,-2.9419,-2.9419,-2.9118,-2.8882,-2.8657,-2.8578,-2.851,-2.851,-2.8419,-2.8339,-2.8339,-2.8191,-2.803,-2.803,-2.7696,-2.7522,-2.7522,-2.7371,-2.7428,0.0,0.0,0.0,0.0,0.0,0.0,0.0,-2.6643,-2.7859,-3.2494,-3.2884,-3.2574,-3.3267,-3.7072,-4.0607,-4.208,-4.6014,-4.9114,-4.9739,-4.9681,-4.9808,-5.0503,-5.0761,-5.0883,-5.0863,-5.081,-5.0352,-4.9296,-4.8564,-4.7719,-4.6683,-4.5897,-4.5495,-4.5476,-4.5438,-4.5398,-4.5359,-4.5235,-4.5148,-4.5061,-4.4411,-4.4016,-4.3849,-4.316,-4.2765,-4.2588,-4.2486,-4.2364,-4.2103,-4.178,-4.1408,-4.1117,-4.0965,-4.0888,-4.0888,-4.0502,-3.9969,-3.9312,-3.8668,-3.7927,-3.7165,-3.6938,-3.6693,-3.6492,-3.6492,-3.6492,-3.6492,-3.6492,-3.6492,-3.6492,-3.6429,-3.6414,-3.6414,-3.6211,-3.58,-3.5335,-3.4927,-3.4476,-3.4002,-3.3506,-3.2932,-3.2362,-3.1796,-3.1246,-3.0761,-3.0622,-3.0318,-3.0075,-3.0088,-2.9856,-2.9702,-2.9702,-2.9431,-2.9263,-2.9263,-2.8961,-2.8657,-2.851,-2.851,-2.851,-2.851,-2.8339,-2.8179,-2.8179,-2.795,-2.78,-2.78,-2.7534,-2.7441,-2.7441,-2.7301,-2.7449,-1.8521,-1.983,-2.2408,-2.349,-2.6249,-2.9775,0.0,-3.3914,-3.3564,-3.5082,-3.5245,-3.501,-3.4516,-3.858,-4.2081,-4.2357,-4.6052,-4.8894,-4.8855,-4.8794,-4.8742,-4.8704,-4.9961,-5.0793,-5.072,-5.072,-5.0028,-4.8393,-4.8163,-4.7375,-4.5743,-4.5552,-4.5477,-4.5399,-4.5399,-4.5338,-4.5213,-4.5148,-4.508,-4.501,-4.4584,-4.4165,-4.3786,-4.3283,-4.2882,-4.2503,-4.2387,-4.2079,-4.1692,-4.1604,-4.1335,-4.0918,-4.0935,-4.0888,-4.0888,-4.0697,-4.0387,-3.985,-3.8849,-3.8197,-3.7653,-3.6846,-3.6554,-3.6492,-3.6492,-3.6492,-3.6492,-3.6492,-3.6492,-3.6492,-3.6274,-3.6211,-3.6211,-3.6037,-3.5831,-3.5688,-3.5608,-3.5459,-3.5067,-3.4153,-3.3934,-3.3367,-3.1796,-3.1294,-3.0947,-3.0305,-3.0164,-3.0011,-2.9869,-2.9599,-2.9419,-2.9419,-2.9106,-2.8803,-2.859,-2.8578,-2.851,-2.851,-2.851,-2.851,-2.851,-2.8339,-2.8179,-2.8179,-2.7765,-2.7522,-2.7522,-2.7383,-2.7231,-2.7231,-2.7231,-2.7254,-2.6946,-2.679,-2.704,-2.993,-3.2683,-3.5208,-3.7186,-3.7389,-3.8022,-4.1081,-4.1692,-4.1641,-4.1394,-4.3976,-4.6145,-4.6172,-4.8096,-4.9395,-4.8841,-4.8633,-4.8339,-4.7779,-4.8607,-4.9237,-4.9237,-4.9219,-4.8874,-4.8144,-4.7626,-4.7031,-4.6301,-4.5726,-4.5438,-4.5398,-4.5317,-4.5275,-4.5192,-4.5084,-4.5033,-4.4991,-4.4503,-4.4095,-4.3786,-4.3231,-4.2768,-4.2346,-4.2163,-4.1892,-4.1604,-4.1453,-4.118,-4.0888,-4.0888,-4.084,-4.0793,-4.0697,-4.032,-3.9662,-3.8778,-3.8141,-3.7476,-3.6723,-3.6492,-3.6492,-3.6492,-3.6492,-3.6492,-3.6352,-3.6352,-3.6289,-3.6148,-3.6085,-3.6022,-3.5894,-3.5752,-3.5688,-3.5589,-3.5474,-3.5213,-3.4787,-3.4288,-3.3644,-3.2791,-3.2232,-3.1603,-3.0696,-3.0216,-2.9856,-2.9599,-2.9509,-2.9341,-2.9106,-2.887,-2.8724,-2.851,-2.851,-2.851,-2.851,-2.851,-2.8431,-2.8339,-2.8111,-2.7938,-2.7765,-2.7452,-2.729,-2.729,-2.7219,-2.7231,-2.7231,-2.7231,-2.7231,-2.9523,-3.0077,-3.0603,-3.4692,-3.7778,-3.9977,-4.0709,-4.0931,-4.202,-4.5592,-4.641,-4.6468,-4.6542,-4.784,-4.8899,-4.8873,-4.9375,-4.9458,-4.8547,-4.8269,-4.7811,-4.6911,-4.714,-4.7394,-4.7449,-4.7854,-4.8009,-4.776,-4.7165,-4.6686,-4.6436,-4.5763,-4.5379,-4.5338,-4.5235,-4.517,-4.5148,-4.5057,-4.4967,-4.4895,-4.4522,-4.4162,-4.3786,-4.3142,-4.267,-4.2287,-4.2019,-4.1805,-4.156,-4.13,-4.1088,-4.0888,-4.0888,-4.0793,-4.0697,-4.06,-4.0271,-3.9679,-3.8957,-3.8238,-3.7578,-3.6952,-3.6662,-3.6492,-3.6492,-3.6492,-3.6414,-3.6274,-3.6148,-3.6085,-3.5958,-3.5894,-3.5894,-3.5703,-3.5638,-3.5589,-3.5424,-3.5294,-3.5148,-3.5082,-3.452,-3.3948,-3.3506,-3.296,-3.2232,-3.097,-3.0343,-2.9908,-2.9419,-2.9341,-2.9106,-2.8724,-2.8724,-2.8657,-2.851,-2.851,-2.851,-2.851,-2.8431,-2.8339,-2.8179,-2.795,-2.7708,-2.7522,-2.7301,-2.7231,-2.7231,-2.7231,-2.7231,-2.7231,-2.7231,-2.7231,-2.0788,-2.5279,-3.0142,-3.5209,-3.9921,-4.381,-4.5662,-4.5687,-4.5657,-4.6897,-4.7279,-4.7386,-4.7441,-4.8245,-4.888,-4.8818,-4.8876,-4.8591,-4.7574,-4.7329,-4.6896,-4.5944,-4.569,-4.5571,-4.559,-4.7125,-4.776,-4.6897,-4.682,-4.6398,-4.5495,-4.5417,-4.5338,-4.5213,-4.5192,-4.5148,-4.501,-4.4991,-4.4895,-4.4712,-4.4693,-4.4383,-4.3772,-4.3051,-4.2573,-4.2287,-4.2019,-4.1805,-4.156,-4.13,-4.1088,-4.0888,-4.0745,-4.0697,-4.0648,-4.0404,-4.0305,-4.0188,-3.9418,-3.8794,-3.8181,-3.7578,-3.6952,-3.6492,-3.6492,-3.6352,-3.6211,-3.6196,-3.6085,-3.5973,-3.5752,-3.5688,-3.5703,-3.5554,-3.5504,-3.5424,-3.5228,-3.5213,-3.5082,-3.4765,-3.4698,-3.4332,-3.3367,-3.3213,-3.2563,-3.0895,-3.0607,-3.0317,-2.9496,-2.9028,-2.8724,-2.851,-2.851,-2.851,-2.851,-2.851,-2.851,-2.851,-2.8339,-2.8179,-2.8179,-2.7765,-2.7522,-2.7522,-2.7301,-2.7231,-2.7231,-2.7231,-2.7231,-2.7231,-2.7231,-2.7231,-2.4515,-2.9336,-3.4317,-3.9537,-4.257,-4.4511,-4.5382,-4.5534,-4.5637,-4.6158,-4.362,-4.1311,-4.1384,-4.2164,-4.2986,-4.3587,-4.7071,-4.938,-4.8465,-4.8677,-4.8161,-4.6111,-4.6147,-4.611,-4.5496,-4.5956,-4.6187,-4.5899,-4.5879,-4.5725,-4.5417,-4.5317,-4.5254,-4.5192,-4.5125,-4.5057,-4.4991,-4.4962,-4.4865,-4.4712,-4.4298,-4.3855,-4.3391,-4.2921,-4.2436,-4.2019,-4.1805,-4.1542,-4.1318,-4.1088,-4.0918,-4.0745,-4.0697,-4.06,-4.0404,-4.0355,-4.0238,-4.007,-3.9418,-3.8794,-3.8165,-3.7578,-3.7013,-3.6492,-3.6352,-3.6274,-3.6133,-3.5943,-3.5831,-3.5767,-3.5604,-3.5554,-3.5539,-3.5359,-3.5294,-3.5228,-3.5001,-3.4949,-3.4831,-3.4698,-3.4563,-3.4414,-3.4045,-3.3977,-3.3381,-3.1476,-3.0139,-2.9328,-2.9028,-2.8736,-2.8578,-2.851,-2.851,-2.8431,-2.8339,-2.8339,-2.8271,-2.8122,-2.8042,-2.795,-2.7765,-2.7603,-2.7441,-2.7301,-2.7231,-2.7231,-2.7231,-2.7231,-2.7231,-2.7231,-2.7231,-2.7231,-2.8174,-3.2593,-3.6614,-4.181,-4.3866,-4.4714,-4.4985,-4.5244,-4.5359,-4.5237,-4.1492,-3.8136,-3.7887,-3.734,-3.7244,-3.8164,-4.1595,-4.4686,-4.6287,-4.6266,-4.6141,-4.6313,-4.6301,-4.6071,-4.5457,-4.538,-4.538,-4.54,-4.5399,-4.5398,-4.5338,-4.5254,-4.517,-4.5125,-4.5038,-4.4986,-4.4895,-4.4846,-4.4738,-4.4551,-4.4091,-4.3646,-4.3196,-4.2902,-4.2418,-4.1874,-4.1587,-4.1363,-4.1163,-4.0965,-4.084,-4.0697,-4.0648,-4.0485,-4.0288,-4.0238,-4.0188,-4.002,-3.9644,-3.9135,-3.8518,-3.7911,-3.7266,-3.6631,-3.6321,-3.6133,-3.6006,-3.5752,-3.5638,-3.5589,-3.5504,-3.5439,-3.5359,-3.5213,-3.5148,-3.5001,-3.4883,-3.475,-3.4698,-3.4631,-3.4481,-3.4414,-3.4414,-3.3825,-3.2932,-3.1609,-2.9833,-2.8724,-2.8724,-2.8578,-2.851,-2.851,-2.851,-2.8431,-2.8339,-2.8259,-2.8099,-2.803,-2.7869,-2.7696,-2.7522,-2.7441,-2.729,-2.7231,-2.7231,-2.7231,-2.7231,-2.7231,-2.7231,-2.7231,-2.7231,-2.7231,-3.1145,-3.4692,-3.7206,-4.2062,-4.3876,-4.4476,-4.4632,-4.4836,-4.4766,-4.3899,-4.0496,-3.737,-3.6382,-3.3814,-3.2153,-3.3082,-3.3691,-3.607,-4.1845,-4.1052,-4.1645,-4.6457,-4.6114,-4.5456,-4.5398,-4.5338,-4.5317,-4.5379,-4.5398,-4.5338,-4.5192,-4.5192,-4.5125,-4.4991,-4.4991,-4.4895,-4.4712,-4.4685,-4.4551,-4.4285,-4.4116,-4.373,-4.3214,-4.294,-4.248,-4.1874,-4.1373,-4.1192,-4.1163,-4.0965,-4.0793,-4.0697,-4.0534,-4.0387,-4.0288,-4.0138,-4.007,-4.007,-4.007,-3.9696,-3.9082,-3.8518,-3.7764,-3.7011,-3.6368,-3.5943,-3.5688,-3.5688,-3.5589,-3.5504,-3.5504,-3.5359,-3.5228,-3.5162,-3.5016,-3.4868,-3.4698,-3.4698,-3.4631,-3.4414,-3.4414,-3.4414,-3.4414,-3.2791,-3.1389,-3.1254,-2.9626,-2.851,-2.851,-2.851,-2.851,-2.851,-2.851,-2.851,-2.851,-2.8259,-2.8179,-2.8179,-2.7765,-2.7522,-2.7522,-2.7301,-2.7231,-2.7231,-2.7231,-2.7231,-2.7231,-2.7231,-2.7231,-2.7231,-2.7231,-2.7231,-3.3528,-3.7418,-4.0977,-4.2772,-4.3436,-4.3506,-4.3104,-4.2686,-4.1437,-3.8175,-3.373,-2.9407,-2.6005,-2.7896,-3.0509,-3.2081,-3.8337,-4.3766,-4.5906,-4.6229,-4.6212,-4.6138,-4.6352,-4.6205,-4.5395,-4.5256,-4.5235,-4.5254,-4.5235,-4.5254,-4.5192,-4.5103,-4.5033,-4.4991,-4.4846,-4.4745,-4.4712,-4.4496,-4.4373,-4.4285,-4.4116,-4.3814,-4.341,-4.2977,-4.2462,-4.1856,-4.1418,-4.1117,-4.0965,-4.084,-4.0697,-4.0534,-4.0387,-4.0288,-4.0138,-4.0121,-4.007,-4.007,-4.007,-3.9696,-3.9082,-3.8518,-3.7764,-3.6951,-3.6258,-3.5894,-3.5688,-3.5604,-3.5504,-3.5439,-3.5294,-3.5228,-3.5162,-3.4898,-3.4765,-3.4683,-3.4481,-3.4481,-3.4481,-3.4414,-3.4264,-3.4196,-3.4196,-3.2563,-3.1241,-3.118,-2.9626,-2.851,-2.851,-2.851,-2.851,-2.851,-2.8351,-2.8191,-2.8042,-2.7857,-2.7603,-2.7464,-2.7301,-2.7301,-2.7301,-2.7231,-2.7231,-2.7231,-2.7231,-2.7231,-2.7231,-2.7231,-2.7231,-2.7231,-2.7231,-2.7231,-3.6644,-3.989,-4.2395,-4.2614,-4.3004,-4.2513,-3.9595,-3.8719,-3.7109,-3.2191,-2.7861,-2.4089,-2.1302,-2.3915,-2.6949,-2.8346,-3.4726,-4.072,-4.4204,-4.4299,-4.4618,-4.6132,-4.631,-4.6012,-4.5316,-4.5213,-4.5192,-4.5148,-4.5148,-4.5148,-4.5125,-4.5057,-4.4943,-4.487,-4.4745,-4.4659,-4.4524,-4.4296,-4.4147,-4.4116,-4.4023,-4.3781,-4.3391,-4.2847,-4.2324,-4.1881,0.0,-4.0995,-4.0888,-4.0745,-4.0648,-4.0485,-4.0337,-4.0238,-4.007,-4.007,-4.007,-4.007,-4.007,-3.9867,-3.9435,-3.8794,-3.8051,-3.7294,-3.6554,-3.5958,-3.5604,-3.5504,-3.5439,-3.5359,-3.5359,-3.5162,-3.4964,-3.4817,-3.4683,-3.4549,-3.4414,-3.4414,-3.4346,-3.4278,-3.4196,-3.3908,-3.3465,-3.2434,-3.1476,-3.0657,-2.9704,-2.8882,-2.859,-2.851,-2.851,-2.8339,-2.8259,-2.8099,-2.7881,-2.7615,-2.7441,-2.7371,-2.7219,-2.7231,-2.7231,-2.7231,-2.7231,-2.7231,-2.7231,-2.7231,-2.7231,-2.7231,-2.7231,-2.7231,-2.7231,-2.7231,-3.9896,-4.1917,-4.2545,-4.2089,-4.2581,-4.1578,-3.5652,-3.4293,-3.2522,-2.6223,-2.281,-2.0556,-1.9221,-2.1023,-2.324,-2.4795,-2.8768,-3.4027,-4.0815,-4.0324,-4.1148,-4.6229,-4.6044,-4.5437,-4.5235,-4.5192,-4.5148,-4.5103,-4.508,-4.5038,-4.4991,-4.4967,-4.487,-4.464,-4.4659,-4.4524,-4.4255,-4.4067,-4.3942,-4.3883,-4.3883,-4.3682,-4.3303,-4.2639,-4.2162,-4.1881,-4.1209,0.0,-4.0871,-4.0745,-4.0583,-4.0485,-4.0355,-4.0188,-4.007,-4.007,-4.007,-4.0087,-4.0087,-3.9986,-3.9781,-3.9206,-3.8446,-3.7648,-3.6906,-3.6148,-3.5504,-3.5504,-3.5359,-3.5294,-3.5359,-3.5096,-3.475,-3.4802,-3.4601,-3.4414,-3.4414,-3.4414,-3.4346,-3.4128,-3.4059,-3.3701,-3.2747,-3.2362,-3.1696,-3.0075,-2.9704,-2.925,-2.859,-2.851,-2.8431,-2.8259,-2.8179,-2.8111,-2.7881,-2.7615,-2.7441,-2.7441,-2.7301,-2.7231,-2.7231,-2.7231,-2.7231,-2.7231,-2.7231,-2.7231,-2.7231,-2.7231,-2.7231,-2.7231,-2.7231,-2.7231,-4.1805,-4.2848,-4.3235,-4.2239,-4.2104,-4.0671,-3.4685,-3.2522,-2.9387,-2.1102,-1.931,-1.8069,-1.4269,-1.8088,-2.3513,-2.8652,-3.3202,-3.8252,-4.4445,-4.5033,-4.5098,-4.5854,-4.5718,-4.5486,-4.5216,-4.5103,-4.5014,-4.5033,-4.4986,-4.4943,-4.501,-4.4846,-4.4613,-4.4373,-4.4373,-4.4237,-4.3961,-4.3929,-4.3883,-4.3837,-4.3837,-4.3719,-4.3495,-4.2678,-4.2244,-4.2092,-4.1255,0.0,-4.0745,-4.0583,-4.0436,-4.0337,-4.0188,-4.0138,-4.007,-4.007,-4.007,-4.007,-3.9986,-3.9901,-3.9781,-3.9206,-3.839,-3.7531,-3.6906,-3.6148,-3.5504,-3.5504,-3.5439,-3.5359,-3.5082,-3.4935,-3.4802,-3.4549,-3.4414,-3.4414,-3.4414,-3.4264,-3.4128,-3.4128,-3.3868,-3.3591,-3.3452,-3.216,-3.1044,-3.0745,-2.9549,-2.8657,-2.851,-2.851,-2.8431,-2.8259,-2.803,-2.7869,-2.7603,-2.7371,-2.7219,-2.7219,-2.7231,-2.7231,-2.7231,-2.7231,-2.7231,-2.7231,-2.7231,-2.7231,-2.7231,-2.7231,-2.7231,-2.7231,-2.7231,-2.7231,-4.2735,-4.3416,-4.3421,-4.2277,-4.1991,-3.9727,-3.1067,-2.8334,-2.5166,-1.6501,-1.5032,-1.4944,-1.3764,-1.7939,-2.2958,-2.7242,-3.3159,-3.8521,-4.2334,-4.4761,-4.6017,-4.5698,-4.563,-4.547,-4.5129,-4.5057,-4.4986,-4.4943,-4.4846,-4.4796,-4.4846,-4.4632,-4.4411,-4.4188,-4.4116,-4.4011,-4.3851,-4.3851,-4.3786,-4.3719,-4.3719,-4.3634,-4.3513,-4.2657,-4.2221,-4.2175,-4.1209,0.0,-4.0697,-4.0485,-4.0337,-4.0305,-4.0138,-4.007,-4.007,-4.007,-4.0037,-3.9986,-3.9901,-3.9798,-3.9642,-3.9345,-3.8535,-3.7531,-3.7191,-3.6321,-3.5504,-3.5504,-3.5359,-3.5148,-3.5082,-3.4868,-3.4601,-3.4549,-3.4481,-3.4414,-3.4414,-3.4264,-3.4059,-3.4005,-3.3813,-3.3312,-3.239,-3.1796,-3.1119,-2.9845,-2.9328,-2.8961,-2.8419,-2.8339,-2.8271,-2.803,-2.7857,-2.7615,-2.7371,-2.7219,-2.7231,-2.7231,-2.7231,-2.7231,-2.7231,-2.7231,-2.7231,-2.7231,-2.7231,-2.7231,-2.7231,-2.7231,-2.7231,-2.7231,-2.7231,-2.7231,-4.2975,-4.3712,-4.3421,-4.2277,-4.1991,-3.9089,-2.7953,-2.5059,-2.2253,-1.3522,-1.2097,-1.291,-1.4521,-1.7887,-2.1529,-2.4952,-3.0541,-3.5641,-3.9023,-4.2357,-4.4666,-4.5254,-4.5475,-4.5419,-4.5038,-4.501,-4.4943,-4.4846,-4.4712,-4.4605,-4.4605,-4.4411,-4.4237,-4.4048,-4.3942,-4.3851,-4.3753,-4.3771,-4.3719,-4.3582,-4.3582,-4.3548,-4.3479,-4.2693,-4.2279,-4.2115,-4.1237,0.0,0.0,-4.0404,-4.0305,-4.0238,-4.0138,-4.007,-4.0087,-4.0087,-3.9986,-3.9901,-3.9849,-3.9694,-3.9501,-3.9448,-3.8606,-3.7531,-3.7413,-3.6492,-3.5504,-3.5439,-3.5213,-3.5001,-3.5082,-3.475,-3.4481,-3.4631,-3.4481,-3.4414,-3.4414,-3.421,-3.4005,-3.3896,-3.3591,-3.2846,-3.1415,-3.1415,-3.097,-2.9028,-2.9184,-2.9172,-2.8339,-2.8179,-2.8111,-2.7881,-2.7696,-2.7441,-2.7231,-2.7231,-2.7231,-2.7231,-2.7231,-2.7231,-2.7231,-2.7231,-2.7231,-2.7231,-2.7231,-2.7231,-2.7231,-2.7231,-2.7231,-2.7231,-2.7231,-2.7231,-4.2463,-4.3712,-4.3421,-4.2277,-4.1991,-3.9108,-2.801,-2.563,-2.3104,-1.3714,-1.2685,-1.3753,-1.4722,-1.5971,-1.8765,-2.4563,-2.5545,-2.8619,-3.7306,-3.8863,-4.0422,-4.4002,-4.5062,-4.5381,-4.5038,-4.4943,-4.4865,-4.4738,-4.4468,-4.4344,-4.4344,-4.4314,-4.4195,-4.3929,-4.3897,-4.38,-4.3615,-4.3615,-4.3582,-4.3532,-4.3532,-4.3532,-4.3479,-4.3032,-4.2537,-4.1979,-4.1481,-4.0896,0.0,-4.0305,-4.0238,-4.0138,-4.0121,-4.007,-4.0087,-3.9935,-3.9901,-3.9849,-3.959,-3.9501,-3.9501,-3.9379,-3.8439,-3.7429,-3.7413,-3.6492,-3.5439,-3.5294,-3.5213,-3.5082,-3.4831,-3.4698,-3.4631,-3.4481,-3.4414,-3.4414,-3.4414,-3.4157,-3.3882,-3.3896,-3.2988,-3.216,-3.2015,-3.082,-2.9858,-2.9626,-2.9028,-2.859,-2.851,-2.8111,-2.7881,-2.7893,-2.7696,-2.7441,-2.7231,-2.7231,-2.7231,-2.7231,-2.7231,-2.7231,-2.7231,-2.7231,-2.7231,-2.7231,-2.7231,-2.7231,-2.7231,-2.7231,-2.7231,-2.7231,-2.7231,-2.7231,-4.1572,-4.3471,-4.3639,-4.2412,-4.0121,-3.5946,-2.7475,-2.3717,-2.02,-1.3871,-1.3502,-1.4772,-1.6244,-1.6925,-1.838,-2.186,-2.3535,-2.6066,-3.0813,-3.2803,-3.5616,-4.0636,-4.1014,-4.1915,-4.4543,-4.4815,-4.4693,-4.4468,-4.4373,-4.4226,-4.4073,-4.4055,-4.4011,-4.3851,-4.3767,-4.3649,-4.3548,-4.3548,-4.3532,-4.3497,-4.3463,-4.3446,-4.3411,-4.2938,-4.2436,-4.1906,-4.1366,-4.0802,0.0,-4.0188,-4.0138,-4.007,-3.9986,-3.9986,-3.9935,-3.9833,-3.9746,-3.9642,-3.9554,-3.9448,-3.9379,-3.9325,-3.8662,-3.7879,-3.7546,-3.6723,-3.5846,-3.5344,-3.5016,-3.4898,-3.4698,-3.4631,-3.4481,-3.4414,-3.4414,-3.4346,-3.4264,-3.4074,-3.3896,-3.3744,-3.2832,-3.1928,-3.1489,-3.0443,-2.9561,-2.9028,-2.8736,-2.8431,-2.8339,-2.803,-2.78,-2.7696,-2.7464,-2.7301,-2.7231,-2.7231,-2.7231,-2.7231,-2.7231,-2.7231,-2.7231,-2.7231,-2.7231,-2.7231,-2.7231,-2.7231,-2.7231,-2.7231,-2.7231,-2.7231,-2.7231,-2.7056,-3.8872,-4.2025,-4.3492,-4.2159,-3.87,-3.3814,-2.6877,-2.2452,-1.8481,-1.3769,-1.4111,-1.5736,-1.7336,-1.7924,-1.8669,-2.0174,-2.1816,-2.3649,-2.5831,-2.7683,-3.0656,-3.5624,-3.5835,-3.741,-4.2068,-4.3766,-4.4496,-4.4314,-4.4226,-4.4104,-4.3897,-4.3832,-4.38,-4.3753,-4.3667,-4.3548,-4.3497,-4.3497,-4.3497,-4.3463,-4.3411,-4.3394,-4.334,-4.2956,-4.2436,-4.1796,-4.1383,-4.0866,0.0,-4.0138,-4.0087,-4.0037,-3.9952,-3.9901,-3.9833,-3.9694,-3.959,-3.9501,-3.9432,-3.9379,-3.9272,-3.9272,-3.8969,-3.8423,-3.7589,-3.6784,-3.6085,-3.5329,-3.4883,-3.4631,-3.4631,-3.4481,-3.4414,-3.4414,-3.4346,-3.4264,-3.4128,-3.3937,-3.3758,-3.3605,-3.2618,-3.1563,-3.097,-3.0075,-2.9184,-2.859,-2.851,-2.8431,-2.8259,-2.803,-2.78,-2.7522,-2.7301,-2.7231,-2.7231,-2.7231,-2.7231,-2.7231,-2.7231,-2.7231,-2.7231,-2.7231,-2.7231,-2.7231,-2.7231,-2.7231,-2.7231,-2.7231,-2.7231,-2.7231,-2.7231,-2.6962,-3.3808,-3.9008,-4.2762,-4.1361,-3.8319,-3.3757,-2.6308,-2.2615,-1.9149,-1.3299,-1.4338,-1.6575,-1.7516,-1.847,-1.9395,-2.0355,-1.9844,-2.0527,-2.3864,-2.4346,-2.5564,-2.8828,-2.9898,-3.2216,-3.6914,-4.1586,-4.4314,-4.4285,-4.4055,0.0,-4.3897,-4.3716,-4.3615,-4.3582,-4.3582,-4.3548,-4.3497,-4.3497,-4.3463,-4.3394,-4.3394,-4.334,-4.3214,-4.3214,-4.2673,-4.1709,-4.1709,-4.1082,0.0,-4.007,-4.0037,-3.9901,-3.9901,-3.9833,-3.9677,-3.9537,-3.9501,-3.9501,-3.9325,-3.9272,-3.9272,-3.9272,-3.9272,-3.904,-3.7546,-3.6662,-3.6006,-3.5118,-3.4668,-3.4414,-3.4414,-3.4414,-3.4414,-3.4414,-3.4264,-3.4128,-3.4128,-3.3868,-3.3605,-3.3605,-3.2173,-3.0895,-3.0895,-2.9549,-2.851,-2.851,-2.851,-2.8431,-2.8259,-2.803,-2.78,-2.7522,-2.7301,-2.7231,-2.7231,-2.7231,-2.7231,-2.7231,-2.7231,-2.7231,-2.7231,-2.7231,-2.7231,-2.7231,-2.7231,-2.7231,-2.7231,-2.7231,-2.7231,-2.7231,-2.7231,-2.6962,-2.842,-3.1489,-3.3217,-3.2439,-2.8708,-2.4572,-2.1983,-1.8911,-1.6124,-1.4379,-1.6227,-1.8244,-1.8528,-1.9381,-1.9949,-1.966,-1.8944,-1.8785,-1.9838,-2.1932,-2.513,-2.9965,-3.6064,-4.044,-4.1927,-4.3303,-4.4085,-4.4023,-4.3947,-4.3832,-4.3682,-4.3615,-4.3582,-4.3582,-4.3548,-4.3497,-4.3446,-4.3446,-4.3376,-4.3251,-4.3215,-4.3178,-4.3123,-4.2711,-4.2115,-4.141,-4.1202,-4.0611,0.0,-3.9935,-3.9884,-3.9729,-3.9642,-3.959,-3.9537,-3.9432,-3.9379,-3.9379,-3.9325,-3.9272,-3.9272,-3.9148,-3.8788,-3.8311,-3.7251,-3.6814,-3.6306,-3.4971,-3.4481,-3.4414,-3.4414,-3.4414,-3.4414,-3.4414,-3.4264,-3.4059,-3.3951,-3.3744,-3.3382,-3.269,-3.1636,-3.0745,-3.0139,-2.9184,-2.851,-2.851,-2.851,-2.8431,-2.8259,-2.803,-2.78,-2.7522,-2.7301,-2.7231,-2.7231,-2.7231,-2.7231,-2.7231,-2.7231,-2.7231,-2.7231,-2.7231,-2.7231,-2.7231,-2.7231,-2.7231,-2.7231,-2.7231,-2.7231,-2.7231,-2.688,-2.6456,-2.3097,-2.6129,-2.7931,-2.7363,-2.3882,-2.0377,-1.956,-1.6959,-1.4644,-1.4455,-1.6624,-1.8538,-1.8545,-1.9624,-2.0324,-1.9801,-1.9316,-1.9404,-2.0662,-2.2589,-2.5592,-3.0188,-3.7122,-4.1483,-4.1428,-4.2958,-4.3929,-4.3883,-4.38,-4.3734,-4.3615,-4.3566,-4.3532,-4.3532,-4.3463,-4.3411,-4.334,-4.334,-4.3269,-4.3142,-4.3141,-4.3067,-4.2992,-4.2378,-4.1803,-4.1213,-4.0832,0.0,0.0,-3.9781,-3.9746,-3.9642,-3.9537,-3.9448,-3.9379,-3.9325,-3.9272,-3.9272,-3.9202,-3.9202,-3.9148,-3.8969,-3.8294,-3.7397,-3.6631,-3.6197,-3.5755,-3.4721,-3.4414,-3.4414,-3.4414,-3.4414,-3.4414,-3.4278,-3.4142,-3.4005,-3.3813,-3.3605,-3.3312,-3.269,-3.1636,-3.0745,-3.0228,-2.9263,-2.851,-2.851,-2.8431,-2.8339,-2.8111,-2.7869,-2.7626,-2.7371,-2.7301,-2.7231,-2.7231,-2.7231,-2.7231,-2.7231,-2.7231,-2.7231,-2.7231,-2.7231,-2.7231,-2.7231,-2.7231,-2.7231,-2.7231,-2.7231,-2.7231,-2.7149,-2.655,-2.6135,0.0,-2.2315,-2.5634,-2.4981,-2.2581,-1.9988,-1.8587,-1.6441,0.0,-1.4005,-1.604,-1.791,-1.7977,-1.9363,-2.0507,-2.0511,-2.0506,-2.1656,-2.4948,-2.5931,-2.7489,-3.0676,-3.4802,-3.7349,-3.7266,-4.1271,-4.3851,-4.3804,-4.3667,-4.3582,-4.36,-4.3446,-4.3394,-4.3394,-4.3394,-4.3305,-4.3214,-4.3214,-4.316,-4.3104,-4.3067,-4.2992,-4.2783,-4.2198,-4.1639,0.0,0.0,0.0,0.0,-3.9677,-3.959,-3.9501,-3.9501,-3.9395,-3.9272,-3.9272,-3.9272,-3.9272,-3.9077,-3.8969,-3.8969,-3.8788,-3.7764,-3.6477,-3.5819,-3.5154,-3.4631,-3.4481,-3.4414,-3.4414,-3.4414,-3.4414,-3.4346,-3.4128,-3.4005,-3.3827,-3.3605,-3.3466,-3.3255,-3.3171,-3.1955,-3.0882,-3.0745,-2.9471,-2.851,-2.851,-2.8339,-2.8099,-2.7881,-2.7615,-2.7441,-2.7231,-2.7231,-2.7231,-2.7231,-2.7231,-2.7231,-2.7231,-2.7231,-2.7231,-2.7231,-2.7231,-2.7231,-2.7231,-2.7231,-2.7231,-2.7231,-2.7231,-2.7149,-2.7138,-2.6313,-2.5895,-1.3993,0.0,-1.6998,-1.7096,-1.6098,-1.5222,0.0,-1.5438,-1.535,-1.6563,-1.7862,-1.9013,-1.9734,-2.0214,-2.03,-1.971,-1.9567,-2.0681,-2.4039,-3.0201,-3.6102,-4.077,-4.1846,-4.2266,-4.2483,-4.3305,-4.3786,-4.3667,-4.3566,-4.3497,-4.3446,-4.3322,-4.3214,-4.3178,-4.3178,-4.3141,-4.3123,-4.3123,-4.3068,-4.2938,-4.2899,-4.284,-4.2783,-4.176,-4.1196,-4.092,0.0,0.0,-3.9432,-3.9484,-3.9484,-3.9325,-3.9325,-3.9325,-3.9272,-3.9272,-3.9202,-3.9077,-3.9023,-3.8914,-3.8733,-3.8067,-3.7219,-3.6306,-3.5642,-3.4971,-3.4481,-3.4414,-3.4414,-3.4414,-3.4414,-3.4278,-3.4128,-3.4128,-3.3868,-3.3675,-3.3605,-3.3466,-3.2945,-3.1723,-3.1193,-3.0519,-2.9263,-2.8736,-2.8431,-2.8259,-2.8259,-2.8018,-2.7684,-2.7522,-2.7441,-2.7231,-2.7231,-2.7231,-2.7231,-2.7231,-2.7231,-2.7231,-2.7231,-2.7231,-2.7231,-2.7231,-2.7231,-2.7231,-2.7231,-2.7231,-2.7231,-2.7231,-2.7056,-2.6704,-2.6445,-2.603,-1.2767,-1.3096,-1.3696,-1.4296,-1.3962,-1.3766,-1.4816,-1.5095,-1.5416,-1.6411,-1.7633,-1.8706,-1.9179,-1.9944,-2.0357,-1.9924,-2.1457,-2.3844,-2.7171,-3.1188,-3.5645,-4.0627,-4.0802,-4.1415,-4.3745,-4.3814,-4.3634,-4.3497,-4.3463,-4.3411,-4.3305,-4.3233,-4.3123,-4.3104,-4.3049,-4.3012,-4.3012,-4.2974,-4.2936,-4.2842,-4.2765,-4.2706,-4.2645,-4.1499,-4.0967,-4.0797,0.0,0.0,-3.9325,-3.9379,-3.9379,-3.9239,-3.8854,-3.8867,-3.9115,-3.8747,-3.876,-3.8914,-3.8821,-3.8711,-3.8472,-3.7413,-3.6737,-3.6197,-3.5219,-3.4654,-3.4414,-3.4414,-3.4414,-3.4414,-3.4278,-3.4196,-3.4059,-3.3937,-3.373,-3.3536,-3.3466,-3.3086,-3.2475,-3.1636,-3.082,-3.0075,-2.9184,-2.8657,-2.8351,-2.8259,-2.8007,-2.7765,-2.7522,-2.7441,-2.7301,-2.7231,-2.7231,-2.7231,-2.7231,-2.7231,-2.7231,-2.7231,-2.7231,-2.7231,-2.7231,-2.7231,-2.7231,-2.7231,-2.7231,-2.7231,-2.7231,-2.7231,-2.6974,-2.6528,-2.629,-2.5874,-1.2872,-1.3622,-1.4516,-1.4641,-1.4403,-1.4315,-1.505,-1.5212,-1.5245,-1.5389,-1.6743,-1.7928,-1.7997,-1.9377,-2.0487,-2.0469,-2.4542,-2.8897,-3.2307,-3.24,-3.3619,-3.7675,-3.7851,-3.9235,-4.3277,-4.3615,-4.3497,-4.3376,-4.3359,-4.3305,-4.3178,-4.3123,-4.3049,-4.3067,-4.2829,-4.2701,-4.2663,-4.275,-4.2783,-4.2783,-4.2523,-4.2382,-4.2346,-4.1121,-4.0504,-4.0487,0.0,0.0,-3.9123,-3.9222,-3.9272,-3.9152,-3.8319,-3.8414,-3.8887,-3.8089,-3.8215,-3.875,-3.8616,-3.852,-3.8221,-3.6951,-3.6508,-3.6197,-3.4905,-3.4467,-3.4346,-3.4346,-3.4346,-3.4346,-3.4128,-3.4059,-3.3937,-3.3675,-3.3605,-3.3536,-3.3326,-3.2704,-3.2074,-3.1928,-3.0745,-2.9626,-2.9561,-2.8791,-2.8179,-2.8179,-2.7765,-2.7522,-2.7441,-2.7301,-2.7231,-2.7231,-2.7231,-2.7231,-2.7231,-2.7231,-2.7231,-2.7231,-2.7231,-2.7231,-2.7231,-2.7231,-2.7231,-2.7231,-2.7231,-2.7231,-2.7231,-2.7138,-2.688,-2.6373,-2.6045,-2.5667,-1.2632,-1.6677,-2.0355,-1.6816,-1.594,-1.6034,-1.6237,-1.5753,-1.5491,-1.6228,-1.7187,-1.8127,-1.8854,-1.9815,-2.0464,-2.0355,-2.6833,-3.3242,-3.7156,-4.0347,-4.2549,-4.3347,-4.2846,-4.2802,-4.3762,-4.3615,-4.3376,-4.3251,-4.316,-4.3141,-4.3104,-4.2994,-4.2918,-4.284,-4.2172,-4.1755,-4.1623,-4.2402,-4.2745,-4.2609,-4.1848,-4.1627,-4.176,-3.9755,-3.8968,-3.9154,0.0,-3.8377,-3.8427,-3.9023,-3.9202,-3.8957,-3.8266,-3.836,-3.8778,-3.8035,-3.8177,-3.8616,-3.8448,-3.8391,-3.8278,-3.7476,-3.6829,-3.6259,-3.5449,-3.4706,-3.4128,-3.4128,-3.4128,-3.4128,-3.4128,-3.3868,-3.3675,-3.3605,-3.3466,-3.3326,-3.3326,-3.2704,-3.1928,-3.1193,-3.0291,-2.9484,-2.8803,-2.8419,-2.8099,-2.7962,-2.7696,-2.7441,-2.7301,-2.7231,-2.7231,-2.7231,-2.7231,-2.7231,-2.7231,-2.7231,-2.7231,-2.7231,-2.7231,-2.7231,-2.7231,-2.7231,-2.7231,-2.7231,-2.7231,-2.7231,-2.7231,-2.6798,-2.6373,-2.599,-2.5969,-2.5633,-1.1635,-1.4603,-1.8145,-1.9446,-2.1965,-2.4141,-2.4199,-2.3579,-2.2422,-2.0518,-2.0817,-2.0935,-1.9381,-2.17,-2.531,-2.9783,-3.1441,-3.358,-3.7672,-3.7258,-3.7464,-4.0084,-3.9878,-4.063,-4.3373,-4.341,-4.3269,-4.316,-4.3141,-4.3067,-4.2936,-4.2482,-4.2154,-4.2057,-4.1283,-4.0831,-4.0699,-4.1115,-4.1294,-4.1238,-4.0548,-4.0265,-4.0373,-3.8819,-3.8176,-3.8294,0.0,-3.7928,-3.7562,-3.8289,-3.848,-3.8241,-3.7036,-3.7458,-3.8678,-3.8241,-3.8284,-3.8448,-3.8391,-3.8148,-3.7786,-3.7087,-3.6399,-3.5706,-3.4957,-3.4452,-3.4059,-3.4005,-3.4005,-3.3951,-3.3868,-3.3744,-3.3536,-3.3466,-3.3396,-3.3171,-3.2775,-3.2015,-3.118,-3.0443,-2.9626,-2.8882,-2.8419,-2.8191,-2.795,-2.7696,-2.7766,-2.76,-2.7265,-2.7472,-2.7529,-2.7254,-2.7231,-2.7231,-2.7231,-2.7231,-2.7231,-2.7231,-2.7231,-2.7231,-2.7231,-2.7231,-2.7231,-2.7231,-2.7231,-2.7056,-2.6798,-2.661,-2.6256,-2.5937,-2.5893,-2.5777,-1.1216,-1.3346,-1.6695,-2.1642,-2.5321,-2.8306,-3.056,-2.963,-2.7633,-2.533,-2.5534,-2.4978,-2.1223,-2.3887,-2.9021,-3.6248,-3.5124,-3.4779,-3.8877,-3.5817,-3.4464,-3.8051,-3.8192,-3.9405,-4.3028,-4.3322,-4.3251,-4.3049,-4.303,-4.2864,-4.2531,-4.1917,-4.1409,-4.1115,-4.038,-3.991,-3.9779,-3.96,-3.9689,-4.0047,-3.9363,-3.9035,-3.9066,-3.786,-3.7283,-3.7343,-3.7569,-3.7265,-3.6666,-3.7571,-3.788,-3.7588,-3.6372,-3.6906,-3.8277,-3.8383,-3.8391,-3.8391,-3.8391,-3.796,-3.7282,-3.6646,-3.5882,-3.5204,-3.4385,-3.4059,-3.3937,-3.3882,-3.3827,-3.3744,-3.3605,-3.3536,-3.3466,-3.3326,-3.3326,-3.3086,-3.2232,-3.1489,-3.067,-2.9858,-2.9028,-2.8431,-2.8259,-2.803,-2.78,-2.7522,-2.7706,-2.7667,-2.7277,-2.7564,-2.7656,-2.7265,-2.7231,-2.7231,-2.7231,-2.7231,-2.7231,-2.7231,-2.7231,-2.7231,-2.7231,-2.7231,-2.7231,-2.7231,-2.717,-2.705,-2.6696,-2.6568,-2.6398,-2.6072,-2.6091,-2.6067,-1.2344,-1.6527,-2.1203,-2.2703,-2.0926,-2.1121,-2.9902,-2.8168,-2.5702,-2.9324,-3.0704,-2.9995,-2.5801,-2.5899,-2.7819,-3.1533,-3.5687,-3.9852,-4.384,-4.3775,-4.3372,-4.3472,-4.3391,-4.3314,-4.3214,-4.3426,-4.3373,-4.2938,-4.2842,-4.2497,-4.1719,-4.1517,-4.1043,-4.0231,-3.9442,-3.8974,-3.8879,-3.813,-3.8524,-3.9914,-3.8757,-3.8307,-3.8501,-3.6621,-3.5807,-3.5976,-3.5976,-3.5876,-3.5774,-3.7252,-3.7703,-3.7476,-3.7378,-3.7351,-3.7485,-3.8149,-3.8391,-3.8391,-3.8391,-3.796,-3.7282,-3.6646,-3.5819,-3.4978,-3.4317,-3.3868,-3.3605,-3.3605,-3.3466,-3.3396,-3.3536,-3.3466,-3.3326,-3.3326,-3.3326,-3.3086,-3.2232,-3.1489,-3.067,-2.9858,-2.9028,-2.8431,-2.8259,-2.803,-2.78,-2.7522,-2.7324,-2.7265,-2.7231,-2.7254,-2.7265,-2.7231,-2.7231,-2.7231,-2.7231,-2.7231,-2.7231,-2.7231,-2.7231,-2.7231,-2.7231,-2.7231,-2.7231,-2.7231,-2.7166,-2.7222,-2.7138,-2.6736,-2.6619,-2.6572,-2.6553,-2.6578,-1.0855,-1.5295,-2.0026,-2.054,-2.1289,-2.4217,-3.3191,-3.4121,-3.3529,-3.5113,-3.5659,-3.4646,-3.0702,-3.2384,-3.4749,-3.5949,-4.0002,-4.3502,-4.4925,-4.472,-4.4346,-4.4192,-4.3744,-4.3393,-4.316,-4.316,-4.3069,-4.2842,-4.2352,-4.1879,-4.1459,-4.0412,-3.9674,-3.9312,-3.8525,-3.806,-3.8041,-3.7644,-3.76,-3.8033,-3.726,-3.697,-3.7016,-3.5643,-3.5063,-3.5136,-3.5498,-3.5332,-3.4889,-3.5901,-3.6466,-3.6864,-3.7741,-3.7767,-3.7404,-3.8132,-3.8391,-3.8391,-3.8391,-3.7711,-3.6707,-3.6368,-3.5419,-3.437,-3.3922,-3.3675,-3.3536,-3.3466,-3.3396,-3.3326,-3.3396,-3.3396,-3.3326,-3.3326,-3.3326,-3.2945,-3.1636,-3.1106,-3.0519,-2.9184,-2.8578,-2.8259,-2.8042,-2.7788,-2.7534,-2.7383,-2.7495,-2.7587,-2.7265,-2.7506,-2.7575,-2.7265,-2.7231,-2.7231,-2.7231,-2.7231,-2.7369,-2.7679,-2.7403,-2.7231,-2.7231,-2.7231,-2.7231,-2.7231,-2.72,-2.7108,-2.6874,-2.6657,-2.6584,-2.6595,-2.6578,-2.6724,-1.0679,-1.4025,-1.789,-1.9902,-2.2359,-2.6598,-3.5496,-3.7113,-3.7492,-4.0176,-3.9611,-3.7733,-3.4856,-3.698,-3.9001,-3.8611,-4.2393,-4.5338,-4.5173,-4.4695,-4.4346,-4.4289,-4.3726,-4.3304,-4.3251,-4.2887,-4.2576,-4.2443,-4.1627,-4.0955,-4.0572,-3.9457,-3.874,-3.8433,-3.788,-3.7577,-3.7577,-3.741,-3.7147,-3.6843,-3.6298,-3.6002,-3.5933,-3.5038,-3.4594,-3.4578,-3.5021,-3.4806,-3.4299,-3.5031,-3.5727,-3.6432,-3.7598,-3.7744,-3.7404,-3.8132,-3.8335,-3.8205,-3.8075,-3.7191,-3.6119,-3.5804,-3.4927,-3.3937,-3.3675,-3.3536,-3.3466,-3.3326,-3.3326,-3.3326,-3.3326,-3.3326,-3.3326,-3.3326,-3.3326,-3.2874,-3.1267,-3.0895,-3.0443,-2.8724,-2.8259,-2.8099,-2.7788,-2.7615,-2.7441,-2.7231,-2.7518,-2.7679,-2.7495,-2.7633,-2.761,-2.7265,-2.7231,-2.73,-2.7461,-2.7472,-2.7679,-2.8172,-2.7885,-2.769,-2.769,-2.769,-2.7607,-2.744,-2.7406,-2.7228,-2.6812,-2.6828,-2.6854,-2.6786,-2.6786,-2.6962,-1.2436,-1.3372,-1.5547,-2.1483,-2.3655,-2.676,-3.6066,-3.5581,-3.5579,-4.4056,-4.2377,-3.9052,-3.8078,-3.8658,-3.8953,-3.7972,-4.2068,-4.5258,-4.4849,-4.4519,-4.427,-4.427,-4.3868,-4.356,-4.356,-4.2656,-4.1956,-4.1612,-4.0648,-3.9727,-3.8939,-3.881,-3.8415,-3.7612,-3.7577,-3.7577,-3.7594,-3.741,-3.7091,-3.6689,-3.6028,-3.5582,-3.5374,-3.4754,-3.4448,-3.43,-3.43,-3.4201,-3.4165,-3.4878,-3.5623,-3.6384,-3.7064,-3.7323,-3.742,-3.8132,-3.8205,-3.7812,-3.731,-3.6446,-3.5499,-3.5073,-3.4317,-3.3605,-3.3605,-3.3466,-3.3326,-3.3326,-3.3326,-3.3326,-3.3326,-3.3326,-3.3326,-3.3326,-3.3326,-3.2874,-3.1267,-3.0895,-3.0367,-2.8554,-2.8179,-2.8018,-2.7603,-2.7522,-2.7441,-2.7231,-2.7231,-2.7415,-2.7908,-2.7541,-2.7242,-2.7231,-2.7231,-2.7438,-2.7931,-2.7977,-2.8184,-2.8677,-2.8712,-2.8712,-2.87,-2.87,-2.8441,-2.8007,-2.7964,-2.7763,-2.7204,-2.7317,-2.7262,-2.7262,-2.7262,-2.7262,-1.1719,-1.6834,-2.1935,-2.1318,-2.7246,-3.3926,-3.6665,-3.7456,-3.9141,-4.4611,-4.47,-4.2752,-3.9325,-4.1356,-4.245,-3.9033,-4.1819,-4.438,-4.4236,-4.3412,-4.2735,-4.2501,-4.2112,-4.1717,-4.1447,-4.1106,-4.0818,-4.0615,-3.9766,-3.9117,-3.8827,-3.8255,-3.7844,-3.7594,-3.7577,-3.7521,-3.7372,-3.7182,-3.6736,-3.5985,-3.5554,-3.5328,-3.5237,-3.461,-3.4349,-3.43,-3.4201,-3.4151,-3.4165,-3.4878,-3.5623,-3.6384,-3.7064,-3.7503,-3.7728,-3.7994,-3.7828,-3.746,-3.6935,-3.6244,-3.5499,-3.4861,-3.4167,-3.3536,-3.3466,-3.3326,-3.3326,-3.3326,-3.3326,-3.3326,-3.3326,-3.3326,-3.3326,-3.3326,-3.3326,-3.2874,-3.1267,-3.082,-3.0228,-2.8554,-2.7926,-2.7684,-2.751,-2.7371,-2.7301,-2.7231,-2.7231,-2.7288,-2.7438,-2.7633,-2.7621,-2.7265,-2.7231,-2.7438,-2.7931,-2.7977,-2.8344,-2.9206,-2.9263,-2.9091,-2.8712,-2.8355,-2.8181,-2.8007,-2.7605,-2.7387,-2.7204,-2.7317,-2.7262,-2.7262,-2.7262,-2.7262,-1.4831,-1.99,-2.498,-2.6977,-3.2522,-3.8009,-3.9978,-4.1222,-4.2666,-4.5147,-4.5637,-4.478,-4.2065,-4.3656,-4.4422,-4.1399,-4.2639,-4.3881,-4.3538,-4.2705,-4.2127,-4.2027,-4.146,-4.1001,-4.0818,-4.0255,-3.9805,-3.9714,-3.8885,-3.8364,-3.8326,-3.7844,-3.7577,-3.7577,-3.7503,-3.741,-3.7297,-3.7027,-3.6451,-3.561,-3.5328,-3.5021,-3.4738,-3.4382,-3.4201,-3.4201,-3.4151,-3.4101,-3.4133,-3.457,-3.5185,-3.593,-3.6448,-3.703,-3.7486,-3.7658,-3.7492,-3.7134,-3.6384,-3.5755,-3.519,-3.4341,-3.3839,-3.3466,-3.3326,-3.3326,-3.3326,-3.3326,-3.3326,-3.3326,-3.3326,-3.3326,-3.3326,-3.3326,-3.3086,-3.2475,-3.1057,-3.0443,-2.9679,-2.8235,-2.7684,-2.7441,-2.7371,-2.7301,-2.7231,-2.7231,-2.7403,-2.7529,-2.7529,-2.7793,-2.7782,-2.7288,-2.7415,-2.7725,-2.8218,-2.8459,-2.893,-2.9734,-2.9791,-2.9553,-2.9056,-2.8778,-2.8411,-2.8052,-2.7699,-2.7387,-2.7211,-2.7306,-2.7262,-2.7262,-2.7262,-2.7262,-2.0094,-2.2842,-2.6413,-3.5852,-3.8539,-4.0089,-4.4737,-4.5738,-4.5676,-4.5622,-4.555,-4.5495,-4.5495,-4.5438,-4.5111,-4.423,-4.398,-4.3576,-4.2714,-4.2208,-4.2011,-4.2212,-4.1399,-4.0877,-4.1021,-3.981,-3.8941,-3.8796,-3.806,-3.7577,-3.7577,-3.7577,-3.7577,-3.7577,-3.741,-3.7259,-3.7238,-3.6846,-3.6259,-3.5459,-3.5253,-3.4802,-3.4101,-3.4101,-3.4101,-3.4101,-3.4101,-3.4101,-3.4101,-3.4101,-3.4522,-3.5198,-3.5642,-3.6182,-3.6797,-3.7207,-3.721,-3.6816,-3.5737,-3.5139,-3.4743,-3.3646,-3.3326,-3.3326,-3.3326,-3.3326,-3.3326,-3.3326,-3.3326,-3.3326,-3.3326,-3.3241,-3.3241,-3.3171,-3.2618,-3.1783,-3.082,-2.9909,-2.8978,-2.7753,-2.7522,-2.7452,-2.7231,-2.7231,-2.7231,-2.7231,-2.7656,-2.7966,-2.792,-2.7954,-2.7805,-2.7346,-2.7713,-2.8195,-2.8723,-2.9217,-2.9711,-3.0181,-3.0125,-2.9943,-2.9485,-2.9393,-2.9024,-2.7998,-2.7998,-2.7726,-2.7262,-2.7262,-2.7262,-2.7262,-2.7262,-2.7262,-2.033,-2.6684,-3.3809,-3.732,-4.1177,-4.4365,-4.5472,-4.5673,-4.564,-4.5657,-4.5586,-4.5495,-4.5438,-4.5419,-4.5111,-4.4171,-4.3482,-4.2736,-4.1798,-4.1009,-4.0463,-4.0241,-3.9738,-3.9346,-3.9111,-3.8515,-3.8115,-3.7954,-3.7757,-3.7577,-3.7577,-3.7577,-3.7521,-3.7372,-3.7334,-3.7161,-3.6846,-3.6444,-3.5881,0.0,-3.4944,-3.4546,-3.4101,-3.4101,-3.4101,-3.4101,-3.4101,-3.4101,-3.4101,-3.4101,-3.442,-3.4936,-3.5534,-3.5887,-3.6178,-3.6839,-3.6862,-3.6476,-3.5415,-3.4942,-3.4743,-3.3646,-3.3326,-3.3326,-3.3326,-3.3326,-3.3326,-3.3326,-3.3326,-3.3326,-3.3326,-3.3086,-3.2704,-3.2245,-3.2015,-3.1649,-3.0758,-2.9654,-2.8573,-2.7661,-2.7371,-2.7219,-2.7231,-2.7231,-2.7231,-2.7231,-2.7656,-2.7839,-2.7438,-2.7736,-2.7943,-2.7828,-2.792,-2.8344,-2.9251,-2.9435,-2.9711,-3.0181,-2.9852,-2.9382,-2.891,-2.891,-2.8631,-2.7987,-2.7631,-2.7452,-2.7262,-2.7262,-2.7262,-2.7262,-2.7262,-2.7262,-2.3211,-2.8844,-3.4601,-4.0378,-4.3781,-4.5706,-4.5709,-4.5622,-4.5568,-4.5586,-4.5513,-4.5457,-4.5419,-4.536,-4.4937,-4.3634,-4.3041,-4.2276,-4.0957,-4.0364,-3.9994,-3.9758,-3.9268,-3.8868,-3.867,-3.8135,-3.7757,-3.7649,-3.7613,-3.7577,-3.7577,-3.7521,-3.741,-3.7297,-3.7105,-3.6926,-3.6702,-3.6216,-3.5705,-3.5178,-3.4866,-3.4497,-3.4101,-3.4101,-3.4101,-3.4101,-3.3949,-3.4,-3.4101,-3.3797,-3.4126,-3.483,-3.5205,-3.5618,-3.5957,-3.6552,-3.6616,-3.6352,-3.5285,-3.4876,-3.4743,-3.3646,-3.3326,-3.3326,-3.3326,-3.3326,-3.3326,-3.3326,-3.3326,-3.3255,-3.3086,-3.286,-3.2475,-3.1709,-3.1193,-3.0732,-2.9897,-2.8888,-2.7959,-2.7441,-2.7301,-2.7231,-2.7231,-2.7231,-2.7311,-2.7552,-2.761,-2.761,-2.7598,-2.7816,-2.7977,-2.7977,-2.8413,-2.8919,-2.9458,-2.9711,-2.9862,-2.984,-2.9669,-2.9198,-2.8362,-2.8351,-2.8175,-2.762,-2.7441,-2.7262,-2.7262,-2.7262,-2.7262,-2.7262,-2.7262,-2.7262,-2.5214,-2.9745,-3.4066,-4.3429,-4.5738,-4.5693,-4.5657,-4.5586,-4.5495,-4.5495,-4.5438,-4.54,-4.5399,-4.5338,-4.48,-4.3252,-4.283,-4.2141,-4.0554,-4.0152,-3.9954,-3.9826,-3.9268,-3.8868,-3.8722,-3.8099,-3.7667,-3.7631,-3.7577,-3.7577,-3.7558,-3.7372,-3.7259,-3.7182,-3.6886,-3.6702,-3.6643,-3.6088,-3.5588,-3.5178,-3.4771,-3.4399,-3.4101,-3.4101,-3.4101,-3.4101,-3.3848,-3.3848,-3.4,-3.3555,-3.38,-3.451,-3.4823,-3.5194,-3.5742,-3.6322,-3.6429,-3.6226,-3.5219,-3.481,-3.4624,-3.3646,-3.3326,-3.3326,-3.3326,-3.3326,-3.3326,-3.3241,-3.3171,-3.3086,-3.2704,-3.2475,-3.2101,-3.118,-3.0279,-2.9524,-2.8876,-2.8039,-2.7371,-2.7231,-2.7231,-2.7231,-2.7231,-2.7231,-2.7369,-2.7793,-2.7495,-2.7415,-2.792,-2.7977,-2.8046,-2.823,-2.8987,-2.9527,-2.9607,-2.9986,-3.0034,-2.9669,-2.9485,-2.9013,-2.8175,-2.7998,-2.7726,-2.7357,-2.7262,-2.7262,-2.7262,-2.7262,-2.7262,-2.7262,-2.7262,-2.7262,-2.0985,-2.9158,-3.846,-4.4261,-4.5709,-4.5657,-4.555,-4.5513,-4.5476,-4.5419,-4.5399,-4.5399,-4.5398,-4.5338,-4.4972,-4.3997,-4.3193,-4.237,-4.1374,-4.0513,-3.9892,-3.9599,-3.9163,-3.8752,-3.8387,-3.7964,-3.7667,-3.7631,-3.7577,-3.7503,-3.7334,-3.7297,-3.7161,-3.6766,-3.6742,-3.6602,-3.636,-3.6002,-3.5588,-3.5178,-3.4529,-3.4151,-3.4101,-3.4101,-3.4101,-3.4101,-3.405,-3.3949,-3.3761,-3.3658,-3.3461,-3.3271,-3.4466,-3.4798,-3.4812,-3.603,-3.6226,-3.5688,-3.5073,-3.461,-3.4085,-3.3521,-3.3326,-3.3326,-3.3326,-3.3326,-3.3241,-3.286,-3.2775,-3.2704,-3.2273,-3.1516,-3.067,-3.0075,-2.9172,-2.8462,-2.8639,-2.7891,-2.7231,-2.7231,-2.7231,-2.7231,-2.7231,-2.7231,-2.7254,-2.7323,-2.7277,-2.7415,-2.792,-2.7977,-2.8322,-2.9206,-2.9424,-2.9665,-3.0089,-3.0181,-3.0216,-3.0125,-2.9279,-2.8724,-2.8631,-2.7809,-2.7347,-2.7262,-2.7262,-2.7262,-2.7262,-2.7262,-2.7262,-2.7262,-2.7262,-2.7262,-2.3682,-3.159,-3.921,-4.3821,-4.5274,-4.5568,-4.5513,-4.5477,-4.5438,-4.5418,-4.5359,-4.5338,-4.5338,-4.5317,-4.501,-4.4109,-4.3628,-4.2897,-4.1542,-4.0798,-4.0203,-3.9661,-3.9008,-3.8542,-3.8468,-3.7948,-3.7649,-3.7613,-3.7577,-3.7503,-3.7297,-3.7182,-3.6987,-3.6702,-3.6544,-3.6402,-3.6301,-3.5958,-3.5498,-3.4913,-3.4382,-3.4101,-3.4101,-3.3949,-3.3848,-3.3848,-3.3694,-3.3591,-3.345,-3.3102,-3.2958,-3.3037,-3.4224,-3.4577,-3.4629,-3.5999,-3.6148,-3.5623,-3.5088,-3.4543,-3.4016,-3.3437,-3.3326,-3.3255,-3.3016,-3.2931,-3.286,-3.2489,-3.2345,-3.2273,-3.1909,-3.1455,-3.0859,-2.9626,-2.9015,-2.8542,-2.7983,-2.7522,-2.7231,-2.7231,-2.7231,-2.7231,-2.7231,-2.7231,-2.7231,-2.7231,-2.7231,-2.7415,-2.792,-2.8218,-2.8677,-2.9424,-2.9745,-2.9986,-3.0193,-2.9943,-2.9669,-2.9393,-2.8735,-2.8175,-2.7904,-2.7536,-2.7262,-2.7262,-2.7262,-2.7262,-2.7262,-2.7262,-2.7262,-2.7262,-2.7262,-2.7117,-2.4838,-3.064,-3.5566,-4.1309,-4.3165,-4.3902,-4.517,-4.5438,-4.5398,-4.5378,-4.5338,-4.5297,-4.5297,-4.5297,-4.5065,-4.4353,-4.4043,-4.3425,-4.2126,-4.1269,-4.0528,-3.9883,-3.8968,-3.8373,-3.836,-3.7897,-3.7577,-3.7577,-3.754,-3.7447,-3.722,-3.7027,-3.6829,-3.6602,-3.6402,-3.6301,-3.6301,-3.5854,-3.5362,-3.4723,-3.4234,-3.3949,-3.3899,-3.371,-3.3555,-3.3503,-3.3346,-3.3256,-3.315,-3.2687,-3.2741,-3.3106,-3.4129,-3.4568,-3.4876,-3.6061,-3.6085,-3.5415,-3.5008,-3.4491,-3.3825,-3.3452,-3.3241,-3.3086,-3.2775,-3.2632,-3.2489,-3.2055,-3.1982,-3.1909,-3.1556,-3.1334,-3.0859,-2.9471,-2.9003,-2.8542,-2.7464,-2.7231,-2.7231,-2.7231,-2.7231,-2.7231,-2.7231,-2.7231,-2.7231,-2.7231,-2.7231,-2.7415,-2.792,-2.8402,-2.8907,-2.9435,-2.9839,-3.0034,-3.0034,-2.9577,-2.9209,-2.8839,-2.8269,-2.7809,-2.7536,-2.7347,-2.7262,-2.7262,-2.7262,-2.7262,-2.7262,-2.7262,-2.7262,-2.7262,-2.7262,-2.7076,-2.0435,-2.2679,-2.5877,-3.5782,-3.8265,-3.9536,-4.4307,-4.5418,-4.5379,-4.5317,-4.5297,-4.5297,-4.5297,-4.5297,-4.5256,-4.5156,-4.4443,-4.3843,-4.3703,-4.2115,-4.0766,-4.0244,-3.922,-3.836,-3.7792,-3.7649,-3.7577,-3.7577,-3.741,-3.722,-3.7027,-3.6806,-3.6585,-3.6343,-3.6301,-3.6301,-3.6301,-3.5588,-3.5052,-3.4783,-3.4068,-3.3607,-3.3346,-3.3361,-3.3203,-3.2951,-3.3203,-3.315,-3.2897,-3.2897,-3.3091,-3.3429,-3.4183,-3.486,-3.5522,-3.623,-3.5816,-3.4957,-3.4876,-3.4235,-3.3312,-3.3326,-3.3016,-3.2704,-3.2704,-3.2417,-3.2055,-3.1703,-3.1629,-3.1556,-3.1123,-3.0583,-2.996,-2.925,-2.8633,-2.8018,-2.7383,-2.7231,-2.7231,-2.7231,-2.7231,-2.7231,-2.7231,-2.7231,-2.7231,-2.7231,-2.7231,-2.7415,-2.792,-2.8402,-2.8907,-2.9435,-2.9568,-2.9577,-2.9577,-2.9117,-2.8839,-2.8724,-2.8269,-2.7998,-2.7998,-2.7536,-2.7262,-2.7262,-2.7262,-2.7262,-2.7262,-2.7262,-2.7262,-2.7262,-2.7262,-2.7251,-2.1029,-2.2441,-2.4151,-3.0494,-3.4901,-3.8171,-3.9986,-4.2947,-4.5317,-4.5297,-4.5297,-4.5297,-4.5235,-4.5065,-4.4953,-4.5106,-4.4493,-4.3837,-4.3479,-4.2426,-4.1465,-4.0855,-4.0078,-3.9499,-3.9391,-3.8741,-3.8324,-3.8211,-3.7618,-3.7161,-3.6846,-3.6742,-3.6602,-3.6301,-3.6301,-3.6216,-3.5985,-3.5453,-3.4991,-3.4448,-3.3933,-3.3555,-3.3309,-3.3096,-3.3005,-3.2897,-3.2757,-3.2687,-3.2578,-3.2578,-3.2662,-3.2859,-3.4029,-3.4629,-3.4968,-3.5689,-3.5559,-3.4876,-3.4476,-3.3894,-3.3255,-3.3016,-3.2846,-3.2632,-3.2128,-3.1909,-3.1703,-3.1347,-3.1198,-3.1198,-3.1061,-3.0508,-2.9729,-2.8791,-2.8007,-2.7464,-2.7231,-2.7231,-2.7231,-2.7231,-2.7231,-2.7231,-2.7231,-2.7231,-2.7231,-2.7231,-2.7506,-2.7885,-2.8379,-2.8896,-2.9401,-2.9906,-2.9931,-2.9943,-2.9943,-2.9485,-2.9106,-2.8724,-2.8269,-2.7904,-2.7536,-2.7357,-2.7262,-2.7262,-2.7262,-2.7262,-2.7262,-2.7262,-2.7262,-2.7262,-2.7262,-2.7107,-1.9755,-2.0421,-2.1399,-2.5506,-2.9456,-3.3272,-3.6767,-4.0195,-4.3134,-4.4934,-4.5297,-4.5235,-4.5213,-4.4814,-4.4599,-4.5014,-4.4662,-4.4195,-4.3762,-4.3029,-4.229,-4.1673,-4.0917,-4.0438,-4.0347,-3.9732,-3.922,-3.8894,-3.8051,0.0,-3.7067,-3.6741,-3.6485,-3.6301,-3.6301,-3.6131,-3.581,-3.5299,-3.4738,-3.4134,-3.3642,-3.3293,-3.2958,-3.2812,-3.2718,-3.2718,-3.2523,-3.2398,-3.2398,-3.2398,-3.2675,-3.3183,-3.4106,-3.4678,-3.5003,-3.5498,-3.5219,-3.4543,-3.407,-3.3548,-3.3016,-3.2632,-3.2417,-3.2273,-3.1776,-3.1482,-3.1347,-3.1061,-3.0986,-3.0986,-3.0986,-3.0343,-2.9406,-2.8407,-2.7708,-2.7231,-2.7231,-2.7231,-2.7231,-2.7231,-2.7369,-2.7426,-2.7254,-2.7506,-2.7667,-2.7506,-2.7908,-2.8344,-2.8654,-2.9171,-2.9619,-2.994,-2.9943,-2.9943,-2.9943,-2.9393,-2.8828,-2.8445,-2.7987,-2.7631,-2.7357,-2.7262,-2.7262,-2.7262,-2.7262,-2.7262,-2.7262,-2.7262,-2.7262,-2.7262,-2.7262,-2.7096,0.0,0.0,0.0,-2.0835,-2.1909,-2.467,-3.4755,-3.7091,-3.8669,-4.3956,-4.4985,-4.4979,-4.5132,-4.4546,-4.4223,-4.4852,-4.4943,-4.4895,-4.4693,-4.3901,-4.3109,-4.2662,-4.181,-4.1046,-4.0528,-4.0438,-4.0179,-3.9651,-3.8707,-3.8023,-3.785,-3.6894,-3.6318,-3.6301,-3.6301,-3.6131,-3.581,-3.5128,-3.4447,-3.3783,-3.3187,-3.2718,-3.2398,-3.2398,-3.2398,-3.2398,-3.2398,-3.2398,-3.2398,-3.2413,-3.3213,-3.4445,-3.446,-3.4973,-3.5657,-3.5657,-3.5008,-3.407,-3.3644,-3.3171,-3.2632,-3.22,-3.1836,-3.1629,-3.1556,-3.1347,-3.0986,-3.0986,-3.0986,-3.0986,-3.0986,-3.0037,-2.8937,-2.8327,-2.7696,-2.7231,-2.7231,-2.7231,-2.7231,-2.7231,-2.7633,-2.7828,-2.7334,-2.8057,-2.854,-2.8069,-2.8413,-2.8723,-2.8723,-2.9183,-2.9515,-2.9515,-2.9489,-2.9485,-2.9485,-2.8549,-2.7987,-2.7998,-2.7536,-2.7357,-2.7262,-2.7262,-2.7262,-2.7262,-2.7262,-2.7262,-2.7262,-2.7262,-2.7262,-2.7262,-2.7262,-2.7262,-1.7507,0.0,0.0,0.0,0.0,0.0,-2.5481,-2.8913,-3.3032,-3.8064,-3.9058,-4.0121,-4.3688,-4.4146,-4.4046,-4.4125,-4.3881,-4.3836,-4.4298,-4.3732,-4.3162,-4.2849,-4.2505,-4.2157,-4.1787,-4.1127,-4.0588,0.0,-3.9266,-3.8573,-3.8372,-3.7603,-3.6887,-3.6318,-3.6301,-3.6131,-3.581,-3.5128,-3.4447,-3.3783,-3.3187,-3.2718,-3.2398,-3.2398,-3.2398,-3.2398,-3.2398,-3.2398,-3.2428,-3.2921,-3.3352,-3.3752,-3.4275,-3.4864,-3.5292,-3.4633,-3.4412,-3.4327,-3.3311,-3.2832,-3.2561,-3.1909,-3.1703,-3.1556,-3.1272,-3.1061,-3.0986,-3.0986,-3.0986,-3.0823,-2.9871,-2.9394,-2.8858,-2.7777,-2.7301,-2.7231,-2.7231,-2.7231,-2.7231,-2.7231,-2.7633,-2.7931,-2.7793,-2.8287,-2.8654,-2.8517,-2.8941,-2.9274,-2.9274,-2.9711,-2.984,-2.9568,-2.9498,-2.9301,-2.891,-2.8631,-2.8351,-2.7987,-2.7904,-2.7631,-2.7357,-2.7262,-2.7262,-2.7262,-2.7262,-2.7262,-2.7262,-2.7262,-2.7262,-2.7262,-2.7262,-2.7262,-1.7918,-1.7426,-1.6874,-1.5851,0.0,0.0,-2.4579,-2.7718,-3.178,-3.8601,-3.9965,-4.0768,-4.3506,-4.3831,-4.3721,-4.3786,-4.3493,-4.3373,-4.3804,-4.3575,-4.3267,-4.3032,-4.2957,-4.2768,-4.2374,-4.18,-4.1286,-4.085,-3.994,-3.9051,-3.8207,-3.7715,-3.7129,-3.6335,-3.6301,-3.6131,-3.581,-3.5018,-3.435,-3.3783,-3.3049,-3.2578,-3.2398,-3.2398,-3.2398,-3.2398,-3.2398,-3.2398,-3.2444,-3.3121,-3.3583,-3.386,-3.3983,-3.4529,-3.5118,-3.4056,-3.3856,-3.3851,-3.269,-3.2273,-3.2128,-3.1556,-3.1347,-3.1347,-3.1061,-3.0986,-3.0986,-3.0986,-3.0986,-3.0748,-2.9394,-2.9081,-2.8779,-2.7534,-2.7231,-2.7231,-2.7231,-2.7231,-2.7231,-2.7231,-2.7805,-2.8218,-2.8012,-2.8735,-2.9263,-2.9056,-2.947,-2.9802,-2.9802,-3.0044,-3.0125,-2.9852,-2.976,-2.9577,-2.9106,-2.8817,-2.8538,-2.7987,-2.7809,-2.7631,-2.7357,-2.7262,-2.7262,-2.7262,-2.7262,-2.7262,-2.7262,-2.7262,-2.7262,-2.7262,-2.7262,-2.7262,-1.8127,-1.7876,-1.7782,-1.6781,-1.6483,0.0,-2.712,-2.8891,-3.1299,-4.024,-4.1969,-4.193,-4.2188,-4.1977,-4.1855,-4.2129,-4.2378,-4.2737,-4.3316,-4.3406,-4.3355,-4.316,-4.316,-4.292,-4.2396,-4.2297,-4.2008,-4.1255,-4.0582,-3.9458,-3.7845,-3.7732,-3.737,-3.6577,-3.6559,-3.638,-3.599,-3.4994,-3.4267,-3.3818,-3.2857,-3.2398,-3.2398,-3.2398,-3.2398,-3.2398,-3.2398,-3.2398,-3.2444,-3.3044,-3.3721,-3.4306,-3.3737,-3.4243,-3.5155,-3.3914,-3.3389,-3.3199,-3.2128,-3.1703,-3.1556,-3.1123,-3.0986,-3.0986,-3.0986,-3.0986,-3.0986,-3.0986,-3.0986,-3.0583,-2.9394,-2.9081,-2.87,-2.7464,-2.7231,-2.7231,-2.7231,-2.7231,-2.7231,-2.7231,-2.7977,-2.8505,-2.8126,-2.9217,-3.0009,-2.963,-2.994,-3.0216,-3.0216,-3.0216,-3.0216,-3.0125,-3.0125,-2.9943,-2.9485,-2.8921,-2.8445,-2.7987,-2.7536,-2.7262,-2.7262,-2.7262,-2.7262,-2.7262,-2.7262,-2.7262,-2.7262,-2.7262,-2.7262,-2.7262,-2.7262,-2.7262,-2.0143,-1.9288,-1.917,-1.8161,-1.7951,0.0,-1.8585,-1.8306,-1.9559,-2.5244,-2.5881,-2.6627,-3.0496,-3.1654,-3.2032,-3.1978,-3.5157,-3.9012,-4.2878,-4.3493,-4.3355,-4.2864,-4.2788,-4.2595,-4.2044,-4.1831,-4.1613,-4.1255,-4.0903,-4.0296,-3.9319,-3.9267,-3.8922,-3.8163,-3.8146,-3.7792,-3.7014,-3.5885,-3.4889,-3.4103,-3.2949,-3.2398,-3.2398,-3.2398,-3.2398,-3.2398,-3.2398,-3.2342,-3.2262,-3.2384,-3.2844,-3.3502,-3.39,-3.4379,-3.4748,-3.4199,-3.3885,-3.3589,-3.2761,-3.2128,-3.1556,-3.1123,-3.0986,-3.0986,-3.0986,-3.0986,-3.0986,-3.0986,-3.0583,-3.0037,-2.9316,-2.87,-2.8167,-2.7383,-2.7231,-2.7231,-2.7231,-2.7231,-2.7231,-2.7231,-2.7713,-2.8218,-2.8505,-2.916,-2.9734,-3.0032,-3.0158,-3.0216,-3.0216,-3.0216,-3.0034,-2.9669,-2.9669,-2.9485,-2.8932,-2.8456,-2.8081,-2.7998,-2.7536,-2.7262,-2.7262,-2.7262,-2.7262,-2.7262,-2.7262,-2.7262,-2.7262,-2.7262,-2.7262,-2.7262,-2.7262,-2.7262,-2.0167,-1.9061,-1.9064,-1.8923,-1.8627,0.0,0.0,-2.037,-2.1003,-2.5051,-2.5774,-2.6157,-2.7672,-2.8423,-2.8785,-2.8706,-3.2639,-3.5897,-3.6445,-4.0221,-4.2826,-4.2534,-4.2494,-4.2333,-4.1917,-4.1719,-4.1471,-4.1088,-4.0965,-4.0526,-3.9733,-3.9698,-3.9353,-3.8612,-3.8594,-3.8171,-3.7325,-3.6102,-3.507,-3.4186,-3.2986,-3.2398,-3.2398,-3.2398,-3.2398,-3.2398,-3.2342,-3.2247,-3.2191,-3.215,-3.2235,-3.2528,-3.2977,-3.3788,-3.4585,-3.3691,-3.3448,-3.3367,-3.2676,-3.1896,-3.1272,-3.1061,-3.0986,-3.0986,-3.0986,-3.0986,-3.0986,-3.0986,-3.0748,-3.0266,-2.9316,-2.8858,-2.8395,-2.7464,-2.7231,-2.7231,-2.7231,-2.7231,-2.7231,-2.7231,-2.7438,-2.7839,-2.8574,-2.9137,-2.9665,-3.0147,-3.0216,-3.0216,-3.0216,-3.0216,-3.0125,-2.9852,-2.9852,-2.9566,-2.8828,-2.8549,-2.8186,-2.7726,-2.7441,-2.7262,-2.7262,-2.7262,-2.7262,-2.7262,-2.7262,-2.7262,-2.7262,-2.7262,-2.7262,-2.7262,-2.7262,-2.7262,-2.0486,-1.9111,-1.9213,-1.9586,-1.9216,-1.9763,0.0,0.0,0.0,-2.667,-2.7428,-2.7166,-2.555,-2.5594,-2.5932,-2.6086,-2.9849,-3.1784,-2.8951,-3.5025,-3.9811,-3.9886,-4.1279,-4.1819,-4.0747,-4.0499,-4.052,-4.0884,-4.0225,-3.9864,-3.9922,-3.9922,-3.9646,-3.9043,-3.9026,-3.8618,-3.7727,-3.6519,-3.5446,-3.4559,-3.3199,-3.2582,-3.2582,-3.2459,-3.2398,-3.2342,-3.2247,-3.2191,-3.2094,-3.1996,-3.1883,-3.1742,-3.2019,-3.3123,-3.4343,-3.3347,-3.3062,-3.3073,-3.2506,-3.175,-3.0986,-3.0986,-3.0986,-3.0986,-3.0986,-3.0986,-3.0986,-3.0986,-3.0823,-3.0432,-2.9406,-2.8924,-2.8462,-2.7452,-2.7231,-2.7231,-2.7231,-2.7231,-2.7231,-2.7231,-2.73,-2.7656,-2.854,-2.9056,-2.9538,-3.0124,-3.0216,-3.0216,-3.0216,-3.0216,-3.0216,-3.0216,-3.0216,-2.984,-2.891,-2.8839,-2.8384,-2.7441,-2.7347,-2.7262,-2.7262,-2.7262,-2.7262,-2.7262,-2.7262,-2.7262,-2.7262,-2.7262,-2.7262,-2.7262,-2.7262,-2.7262,-2.3634,-2.1688,-2.1467,-2.0587,-2.0356,-2.0095,-1.913,0.0,-1.7951,-1.7861,0.0,-1.678,-1.6196,0.0,0.0,-1.8072,-2.1669,-2.4475,-2.4768,-2.8134,-3.0768,-3.125,-3.7588,-4.0405,-3.6533,-3.6122,-3.745,-4.0664,-3.786,-3.7422,-4.0595,-4.075,-4.0716,-4.0629,-4.0612,-4.0156,-3.9183,-3.8019,-3.6967,-3.593,-3.4171,-3.329,-3.3275,-3.2675,-3.2342,-3.2247,-3.2191,-3.2038,-3.1841,-3.1841,-3.1727,-3.1599,-3.2329,-3.3066,-3.3664,-3.4095,-3.3798,-3.3213,-3.3073,-3.2173,-3.0986,-3.0986,-3.0986,-3.0986,-3.0986,-3.0986,-3.0986,-3.0986,-3.019,-2.9238,-2.916,-2.8235,-2.7383,-2.7231,-2.7231,-2.7231,-2.7231,-2.7231,-2.7231,-2.7231,-2.7587,-2.8069,-2.8609,-2.8746,-2.9114,-3.0078,-3.0216,-3.0216,-3.0216,-3.0216,-3.0216,-3.0216,-3.0216,-3.0034,-2.9485,-2.9024,-2.856,-2.7998,-2.7536,-2.7262,-2.7262,-2.7262,-2.7262,-2.7262,-2.7262,-2.7262,-2.7262,-2.7262,-2.7262,-2.7262,-2.7262,-2.7262,-2.2228,-2.2468,-2.375,-2.1156,-2.1941,-2.2586,-1.9709,0.0,-1.8185,-1.7437,0.0,0.0,0.0,0.0,0.0,0.0,-1.956,-2.148,-1.979,-2.5363,-2.9572,-2.9386,0.0,0.0,-3.5638,-3.5651,-3.712,-4.0629,-3.749,-3.7007,-4.0716,-4.0888,-4.0888,-4.0888,-4.0888,-4.0431,-3.9392,-3.8269,-3.7,-3.5525,-3.4069,-3.3198,-3.2813,-3.2521,-3.2342,-3.2206,-3.215,-3.1996,-3.1799,-3.167,-3.1597,-3.1599,-3.2302,-3.2961,-3.3529,-3.3799,-3.3877,-3.3768,-3.3353,-3.2506,-3.1603,-3.1123,-3.0986,-3.0986,-3.0986,-3.0986,-3.0898,-3.0508,-3.0037,-2.9484,-2.8791,-2.8167,-2.7696,-2.7313,-2.7231,-2.7231,-2.7231,-2.7231,-2.7231,-2.7231,-2.7403,-2.7793,-2.8574,-2.8953,-2.9401,-3.0112,-3.0216,-3.0216,-3.0216,-3.0216,-3.0216,-3.0216,-3.0216,-3.0034,-2.9577,-2.9301,-2.8839,-2.8092,-2.7536,-2.7262,-2.7262,-2.7262,-2.7262,-2.7262,-2.7262,-2.7262,-2.7262,-2.7262,-2.7262,-2.7262,-2.7262,-2.7262,-2.3397,0.0,-2.5618,0.0,0.0,0.0,0.0,0.0,0.0,0.0,-1.7984,0.0,0.0,0.0,-1.6015,-1.6153,0.0,-1.9124,-1.6974,-2.2264,-2.6232,-2.5899,0.0,0.0,0.0,-3.3389,-3.4607,-3.9118,-3.6005,-3.5989,-4.0664,-4.0888,-4.0888,-4.0888,-4.0871,-4.047,-3.9682,-3.8534,-3.729,-3.5946,-3.4453,-3.3444,-3.2952,-3.2567,-3.2302,-3.215,-3.2038,-3.1883,-3.1727,-3.1539,-3.1482,-3.1541,-3.2258,-3.2916,-3.3514,-3.3709,-3.3997,-3.4177,-3.3492,-3.2577,-3.175,-3.1198,-3.0986,-3.0986,-3.0986,-3.0986,-3.0823,-3.019,-2.9883,-2.9484,-2.8486,-2.8099,-2.7777,-2.7313,-2.7231,-2.7231,-2.7231,-2.7231,-2.7231,-2.7231,-2.7449,-2.7862,-2.8574,-2.9022,-2.9493,-3.0124,-3.0216,-3.0216,-3.0216,-3.0216,-3.0216,-3.0216,-3.0216,-2.9943,-2.9393,-2.9301,-2.8828,-2.7904,-2.7441,-2.7262,-2.7262,-2.7262,-2.7262,-2.7262,-2.7262,-2.7262,-2.7262,-2.7262,-2.7262,-2.7262,-2.7262,-2.7262,0.0,0.0,0.0,-2.1302,0.0,0.0,0.0,0.0,-1.8017,0.0,0.0,0.0,0.0,-1.5928,-1.6124,-1.6758,-1.6381,0.0,0.0,-1.7437,-1.7334,-1.7906,-2.1825,0.0,0.0,-2.7179,-2.8053,-3.5233,-3.2367,-3.3366,-4.0496,-4.0888,-4.0888,-4.0888,-4.0793,-4.0631,-4.0451,-3.9123,-3.8398,-3.8165,-3.566,-3.4429,-3.4368,-3.3013,-3.2247,-3.1996,-3.1996,-3.1811,-3.1539,-3.1482,-3.1482,-3.1541,-3.2258,-3.2916,-3.3574,-3.4203,-3.4381,-3.4177,-3.3492,-3.2245,-3.1061,-3.0986,-3.0986,-3.0986,-3.0986,-3.0986,-3.0823,-3.019,-2.9561,-2.9015,-2.8327,-2.7708,-2.7231,-2.7231,-2.7231,-2.7231,-2.7231,-2.7231,-2.7231,-2.7231,-2.8,-2.8666,-2.8689,-2.8712,-2.9068,-3.0067,-3.0216,-3.0216,-3.0216,-3.0216,-3.0216,-3.0216,-3.0216,-2.9852,-2.8943,-2.8735,-2.8362,-2.7347,-2.7357,-2.7262,-2.7262,-2.7262,-2.7262,-2.7262,-2.7262,-2.7262,-2.7262,-2.7262,-2.7262,-2.7262,-2.7262,-2.7262,0.0,0.0,-3.3524,-2.6322,0.0,0.0,0.0,0.0,0.0,0.0,0.0,0.0,0.0,-1.7955,-1.7919,-1.8065,-1.7163,-1.6563,0.0,-1.6939,-1.7362,-1.874,-2.1996,-2.4788,0.0,0.0,-3.0267,-3.5093,-3.4303,-3.5723,-4.0647,-4.0888,-4.0888,-4.0793,-4.0745,-4.0419,-3.9765,-3.8941,-3.7995,-3.7052,-3.5739,-3.466,-3.3752,-3.3275,-3.266,-3.1996,-3.1996,-3.1826,-3.1482,-3.1482,-3.1735,-3.2243,-3.2901,-3.3559,-3.4173,-3.4397,-3.4763,-3.492,-3.3644,-3.2245,-3.0986,-3.0986,-3.0986,-3.0986,-3.0986,-3.0986,-3.0748,-2.9716,-2.925,-2.8858,-2.7777,-2.7383,-2.7231,-2.7231,-2.7231,-2.7231,-2.7231,-2.7231,-2.7231,-2.7231,-2.7495,-2.7839,-2.8172,-2.8494,-2.9045,-3.0067,-3.0216,-3.0216,-3.0216,-3.0216,-3.0216,-3.0216,-2.9943,-2.9577,-2.9301,-2.8642,-2.8081,-2.7809,-2.7441,-2.7262,-2.7262,-2.7262,-2.7262,-2.7262,-2.7262,-2.7262,-2.7262,-2.7262,-2.7262,-2.7262,-2.7262,-2.7262,-3.5,-3.6683,0.0,-3.0268,-3.0396,0.0,-2.3524,0.0,-2.074,0.0,0.0,0.0,0.0,0.0,-1.8022,-1.7734,-1.686,-1.6337,0.0,-1.6937,-1.767,-1.909,-2.0686,-2.2504,-2.465,-2.5329,-2.7753,-3.2873,-3.3235,-3.4783,-3.8391,0.0,-4.0793,-4.0648,-4.06,-4.0221,-3.9437,-3.8778,-3.7842,-3.6738,-3.5869,-3.5014,-3.4121,-3.3571,-3.2955,-3.233,-3.2046,-3.1769,-3.1482,-3.1482,-3.1928,-3.2587,-3.3245,-3.3903,-3.4502,-3.4756,-3.4971,-3.4905,-3.3644,-3.2376,-3.1334,-3.1061,-3.0986,-3.0986,-3.0986,-3.0986,-3.0748,-2.9484,-2.9081,-2.8779,-2.7534,-2.7231,-2.7231,-2.7231,-2.7231,-2.7231,-2.7231,-2.7231,-2.7231,-2.7231,-2.7369,-2.7656,-2.8149,-2.8654,-2.9206,-2.986,-3.0101,-3.0216,-3.0216,-3.0216,-3.0216,-3.0216,-2.976,-2.9393,-2.9198,-2.8456,-2.7998,-2.7998,-2.7536,-2.7262,-2.7262,-2.7262,-2.7417,-2.7738,-2.7427,-2.7417,-2.7738,-2.7417,-2.7262,-2.7262,-2.7262,-2.7262]}]]